[[{"header":{"parameterUnit":"m.s-1","parameterCategory":1,"la1":31.0,"la2":29.5877,"lo1":-88.7671,"lo2":-86.6584,"dx":0.0162,"dy":0.0185,"nx":115,"ny":88,"refTime":"2022-12-07T06:00:00:Z","depth":0,"parameterNumber":2,"parameterNumberName":"U-component_of_WINDS"},"data":[0.0,0.0,0.0,0.0,0.0,0.0,0.0,0.0,0.0,0.0,0.0,0.0,0.0,0.0,0.0,0.0,0.0,0.0,0.0,0.0,0.0,0.0,0.0,0.0,0.0,0.0,0.0,0.0,0.0,0.0,0.0,0.0,0.0,0.0,0.0,0.0,0.0,0.0,0.0,0.0,0.0,0.0,0.0,0.0,0.0,0.0,0.0,0.0,0.0,0.0,0.0,0.0,0.0,0.0,0.0,0.0,0.0,0.0,0.0,0.0,0.0,0.0,0.0,0.0,0.0,0.0,0.0,0.0,0.0,0.0,0.0,0.0,0.0,0.0,0.0,0.0,0.0,0.0,0.0,0.0,0.0,0.0,0.0,0.0,0.0,0.0,0.0,0.0,0.0,0.0,0.0,0.0,0.0,0.0,0.0,0.0,0.0,0.0,0.0,0.0,0.0,0.0,0.0,0.0,0.0,0.0,0.0,0.0,0.0,0.0,0.0,0.0,0.0,0.0,0.0,0.0,0.0,0.0,0.0,0.0,0.0,0.0,0.0,0.0,0.0,0.0,0.0,0.0,0.0,0.0,0.0,0.0,0.0,0.0,0.0,0.0,0.0,0.0,0.0,0.0,0.0,0.0,0.0,0.0,0.0,0.0,0.0,0.0,0.0,0.0,0.0,0.0,0.0,0.0,0.0,0.0,0.0,0.0,0.0,0.0,0.0,0.0,0.0,0.0,0.0,0.0,0.0,0.0,0.0,0.0,0.0,0.0,0.0,0.0,0.0,0.0,0.0,0.0,0.0,0.0,0.0,0.0,0.0,0.0,0.0,0.0,0.0,0.0,0.0,0.0,0.0,0.0,0.0,0.0,0.0,0.0,0.0,0.0,0.0,0.0,0.0,0.0,0.0,0.0,0.0,0.0,0.0,0.0,0.0,0.0,0.0,0.0,0.0,0.0,0.0,0.0,0.0,0.0,0.0,0.0,0.0,0.0,0.0,0.0,0.0,0.0,0.0,0.0,0.0,0.0,0.0,0.0,0.0,0.0,0.0,0.0,0.0,0.0,0.0,0.0,0.0,0.0,0.0,0.0,0.0,0.0,0.0,0.0,0.0,0.0,0.0,0.0,0.0,0.0,0.0,0.0,0.0,0.0,0.0,0.0,0.0,0.0,0.0,0.0,0.0,0.0,0.0,0.0,0.0,0.0,0.0,0.0,0.0,0.0,0.0,0.0,0.0,0.0,0.0,0.0,0.0,0.0,0.0,0.0,0.0,0.0,0.0,0.0,0.0,0.0,0.0,0.0,0.0,0.0,0.0,0.0,0.0,0.0,0.0,0.0,0.0,0.0,0.0,0.0,0.0,0.0,0.0,0.0,0.0,0.0,0.0,0.0,0.0,0.0,0.0,0.0,0.0,0.0,0.0,0.0,0.0,0.0,0.0,0.0,0.0,0.0,0.0,0.0,0.0,0.0,0.0,0.0,0.0,0.0,0.0,0.0,0.0,0.0,0.0,0.0,0.0,0.0,0.0,0.0,0.0,0.0,0.0,0.0,0.0,0.0,0.0,0.0,0.0,0.0,0.0,0.0,0.0,0.0,0.0,0.0,0.0,0.0,0.0,0.0,0.0,0.0,0.0,0.0,0.0,0.0,0.0,0.0,0.0,0.0,0.0,0.0,0.0,0.0,0.0,0.0,0.0,0.0,0.0,0.0,0.0,0.0,0.0,0.0,0.0,0.0,0.0,0.0,0.0,0.0,0.0,0.0,0.0,0.0,0.0,0.0,0.0,0.0,0.0,0.0,0.0,0.0,0.0,0.0,0.0,0.0,0.0,0.0,0.0,0.0,0.0,0.0,0.0,0.0,0.0,0.0,0.0,0.0,0.0,0.0,0.0,0.0,0.0,0.0,0.0,0.0,0.0,0.0,0.0,0.0,0.0,0.0,0.0,0.0,0.0,0.0,0.0,0.0,0.0,0.0,0.0,0.0,0.0,0.0,0.0,0.0,0.0,0.0,0.0,0.0,0.0,0.0,0.0,0.0,0.0,0.0,0.0,0.0,0.0,0.0,0.0,0.0,0.0,0.0,0.0,0.0,0.0,0.0,0.0,0.0,0.0,0.0,0.0,0.0,0.0,0.0,0.0,0.0,0.0,0.0,0.0,0.0,0.0,0.0,0.0,0.0,0.0,0.0,0.0,0.0,0.0,0.0,0.0,0.0,0.0,0.0,0.0,0.0,0.0,0.0,0.0,0.0,0.0,0.0,0.0,0.0,0.0,0.0,0.0,0.0,0.0,0.0,0.0,0.0,0.0,0.0,0.0,0.0,0.0,0.0,0.0,0.0,0.0,0.0,0.0,0.0,0.0,0.0,0.0,0.0,0.0,0.0,0.0,0.0,0.0,0.0,0.0,0.0,0.0,0.0,0.0,0.0,0.0,0.0,0.0,0.0,0.0,0.0,0.0,0.0,0.0,0.0,0.0,0.0,0.0,0.0,0.0,0.0,0.0,0.0,0.0,0.0,0.0,0.0,0.0,0.0,0.0,0.0,0.0,0.0,0.0,0.0,0.0,0.0,0.0,0.0,0.0,0.0,0.0,0.0,0.0,0.0,0.0,0.0,0.0,0.0,0.0,0.0,0.0,0.0,0.0,0.0,0.0,0.0,0.0,0.0,0.0,0.0,0.0,0.0,0.0,0.0,0.0,0.0,0.0,0.0,0.0,0.0,0.0,0.0,0.0,0.0,0.0,0.0,0.0,0.0,0.0,0.0,0.0,0.0,0.0,0.0,0.0,0.0,0.0,0.0,0.0,0.0,0.0,0.0,0.0,0.0,0.0,0.0,0.0,0.0,0.0,0.0,0.0,0.0,0.0,0.0,0.0,0.0,0.0,0.0,0.0,0.0,0.0,0.0,0.0,0.0,0.0,0.0,0.0,0.0,0.0,0.0,0.0,0.0,0.0,0.0,0.0,0.0,0.0,0.0,0.0,0.0,0.0,0.0,0.0,0.0,0.0,0.0,0.0,0.0,0.0,0.0,0.0,0.0,0.0,0.0,0.0,0.0,0.0,0.0,0.0,0.0,0.0,0.0,0.0,0.0,0.0,0.0,0.0,0.0,0.0,0.0,0.0,0.0,0.0,0.0,0.0,0.0,0.0,0.0,0.0,0.0,0.0,0.0,0.0,0.0,0.0,0.0,0.0,0.0,0.0,0.0,0.0,0.0,0.0,0.0,0.0,0.0,0.0,0.0,0.0,0.0,0.0,0.0,0.0,0.0,0.0,0.0,0.0,0.0,0.0,0.0,0.0,0.0,0.0,0.0,0.0,0.0,0.0,0.0,0.0,0.0,0.0,0.0,0.0,0.0,0.0,0.0,0.0,0.0,0.0,0.0,0.0,0.0,0.0,0.0,0.0,0.0,0.0,0.0,0.0,0.0,0.0,0.0,0.0,0.0,0.0,0.0,0.0,0.0,0.0,0.0,0.0,0.0,0.0,0.0,0.0,0.0,0.0,0.0,0.0,0.0,0.0,0.0,0.0,0.0,0.0,0.0,0.0,0.0,0.0,0.0,0.0,0.0,0.0,0.0,0.0,0.0,0.0,0.0,0.0,0.0,0.0,0.0,0.0,0.0,0.0,0.0,0.0,0.0,0.0,0.0,0.0,0.0,0.0,0.0,0.0,0.0,0.0,0.0,0.0,0.0,0.0,0.0,0.0,0.0,0.0,0.0,0.0,0.0,0.0,0.0,0.0,0.0,0.0,0.0,0.0,0.0,0.0,0.0,0.0,0.0,0.0,0.0,0.0,0.0,0.0,0.0,0.0,0.0,0.0,0.0,0.0,0.0,0.0,0.0,0.0,0.0,0.0,0.0,0.0,0.0,0.0,0.0,0.0,0.0,0.0,0.0,0.0,0.0,0.0,0.0,0.0,0.0,0.0,0.0,0.0,0.0,0.0,0.0,0.0,0.0,0.0,0.0,0.0,0.0,0.0,0.0,0.0,0.0,0.0,0.0,0.0,0.0,0.0,0.0,0.0,0.0,0.0,0.0,0.0,0.0,0.0,0.0,0.0,0.0,0.0,0.0,0.0,0.0,0.0,0.0,0.0,0.0,0.0,0.0,0.0,0.0,0.0,0.0,0.0,0.0,0.0,0.0,0.0,0.0,0.0,0.0,0.0,0.0,0.0,0.0,0.0,0.0,0.0,0.0,0.0,0.0,0.0,0.0,0.0,0.0,0.0,0.0,0.0,0.0,0.0,0.0,0.0,0.0,0.0,0.0,-1.6822,0.0,0.0,0.0,-1.5404,0.0,0.0,0.0,0.0,0.0,0.0,0.0,0.0,0.0,0.0,0.0,0.0,0.0,0.0,0.0,0.0,0.0,0.0,0.0,0.0,0.0,0.0,0.0,0.0,0.0,0.0,0.0,0.0,0.0,0.0,0.0,0.0,0.0,0.0,0.0,0.0,0.0,0.0,0.0,0.0,0.0,0.0,0.0,0.0,0.0,0.0,0.0,0.0,0.0,0.0,0.0,0.0,0.0,0.0,0.0,0.0,0.0,0.0,0.0,0.0,0.0,0.0,0.0,0.0,0.0,0.0,0.0,0.0,0.0,0.0,0.0,0.0,0.0,0.0,0.0,0.0,0.0,0.0,0.0,0.0,0.0,0.0,0.0,0.0,0.0,0.0,0.0,0.0,0.0,0.0,0.0,0.0,0.0,0.0,0.0,0.0,0.0,0.0,0.0,0.0,0.0,0.0,0.0,0.0,0.0,0.0,0.0,0.0,0.0,0.0,-1.647,-1.5998,-1.5597,-1.5409,-1.5402,0.0,0.0,0.0,0.0,0.0,0.0,0.0,0.0,0.0,0.0,0.0,0.0,0.0,0.0,0.0,0.0,0.0,0.0,0.0,0.0,0.0,0.0,0.0,0.0,0.0,0.0,0.0,0.0,0.0,0.0,0.0,0.0,0.0,0.0,0.0,0.0,0.0,0.0,0.0,0.0,0.0,0.0,0.0,0.0,0.0,0.0,0.0,0.0,0.0,0.0,0.0,0.0,0.0,0.0,0.0,0.0,0.0,0.0,0.0,0.0,0.0,0.0,0.0,0.0,0.0,0.0,0.0,0.0,0.0,0.0,0.0,0.0,0.0,0.0,0.0,0.0,0.0,0.0,0.0,0.0,0.0,0.0,0.0,0.0,0.0,0.0,0.0,0.0,0.0,0.0,0.0,0.0,0.0,0.0,0.0,0.0,0.0,0.0,0.0,0.0,0.0,0.0,0.0,0.0,0.0,0.0,0.0,0.0,0.0,0.0,0.0,0.0,-1.5407,-1.5382,-1.5381,0.0,0.0,0.0,0.0,0.0,0.0,0.0,0.0,0.0,0.0,0.0,0.0,0.0,0.0,0.0,0.0,0.0,0.0,0.0,0.0,0.0,0.0,0.0,0.0,0.0,0.0,0.0,0.0,0.0,0.0,0.0,0.0,0.0,0.0,0.0,0.0,0.0,0.0,0.0,0.0,0.0,0.0,0.0,0.0,0.0,0.0,0.0,0.0,0.0,0.0,0.0,0.0,0.0,0.0,0.0,0.0,0.0,0.0,0.0,0.0,0.0,0.0,0.0,0.0,0.0,0.0,0.0,0.0,0.0,0.0,0.0,0.0,0.0,0.0,0.0,0.0,0.0,0.0,0.0,0.0,0.0,0.0,0.0,0.0,0.0,0.0,0.0,0.0,0.0,0.0,0.0,0.0,0.0,0.0,0.0,0.0,0.0,0.0,0.0,0.0,0.0,0.0,0.0,0.0,0.0,0.0,0.0,0.0,0.0,0.0,-1.5483,-1.5416,-1.5412,0.0,-1.5323,0.0,0.0,0.0,0.0,0.0,0.0,0.0,0.0,0.0,0.0,0.0,0.0,0.0,0.0,0.0,0.0,0.0,0.0,0.0,0.0,0.0,0.0,0.0,0.0,0.0,0.0,0.0,0.0,0.0,0.0,0.0,0.0,0.0,0.0,0.0,0.0,0.0,0.0,0.0,0.0,0.0,0.0,0.0,0.0,0.0,0.0,0.0,0.0,0.0,0.0,0.0,0.0,0.0,0.0,0.0,0.0,0.0,0.0,0.0,0.0,0.0,0.0,0.0,0.0,0.0,0.0,0.0,0.0,0.0,0.0,0.0,0.0,0.0,0.0,0.0,0.0,0.0,0.0,0.0,0.0,0.0,0.0,0.0,0.0,0.0,0.0,0.0,0.0,0.0,0.0,0.0,0.0,0.0,0.0,0.0,0.0,0.0,0.0,0.0,0.0,0.0,0.0,0.0,0.0,0.0,0.0,0.0,0.0,0.0,0.0,-1.5416,-1.5412,-1.5351,-1.5328,0.0,0.0,0.0,0.0,0.0,0.0,0.0,0.0,0.0,0.0,0.0,0.0,0.0,0.0,0.0,0.0,0.0,0.0,0.0,0.0,0.0,0.0,0.0,0.0,0.0,0.0,0.0,0.0,0.0,0.0,0.0,0.0,0.0,0.0,0.0,0.0,0.0,0.0,0.0,0.0,0.0,0.0,0.0,0.0,0.0,0.0,0.0,0.0,0.0,0.0,0.0,0.0,0.0,0.0,0.0,0.0,0.0,0.0,0.0,0.0,0.0,0.0,0.0,0.0,0.0,0.0,0.0,0.0,0.0,0.0,0.0,0.0,0.0,0.0,0.0,0.0,0.0,0.0,0.0,0.0,0.0,0.0,0.0,0.0,0.0,0.0,0.0,0.0,0.0,0.0,0.0,0.0,0.0,0.0,0.0,0.0,0.0,0.0,0.0,0.0,0.0,0.0,0.0,0.0,0.0,0.0,0.0,0.0,0.0,0.0,-1.5411,-1.538,-1.5371,-1.5319,-1.5288,-1.526,0.0,0.0,0.0,0.0,0.0,0.0,0.0,0.0,0.0,0.0,0.0,0.0,0.0,0.0,0.0,0.0,0.0,0.0,0.0,0.0,0.0,0.0,0.0,0.0,0.0,0.0,0.0,0.0,0.0,0.0,0.0,0.0,0.0,0.0,0.0,0.0,0.0,0.0,0.0,0.0,0.0,0.0,0.0,0.0,0.0,0.0,0.0,0.0,0.0,0.0,0.0,0.0,0.0,0.0,0.0,0.0,0.0,0.0,0.0,0.0,0.0,0.0,0.0,0.0,0.0,0.0,0.0,0.0,0.0,0.0,0.0,0.0,0.0,0.0,0.0,0.0,0.0,0.0,0.0,0.0,0.0,0.0,0.0,0.0,0.0,0.0,0.0,0.0,0.0,0.0,0.0,0.0,0.0,0.0,0.0,0.0,0.0,0.0,0.0,0.0,0.0,0.0,0.0,0.0,0.0,0.0,0.0,0.0,-1.5409,-1.5411,-1.5378,-1.5319,-1.5289,-1.5279,0.0,0.0,0.0,0.0,0.0,0.0,0.0,0.0,0.0,0.0,0.0,0.0,0.0,0.0,0.0,0.0,0.0,0.0,0.0,0.0,0.0,0.0,0.0,0.0,0.0,0.0,0.0,0.0,0.0,0.0,0.0,0.0,0.0,0.0,0.0,0.0,0.0,0.0,0.0,0.0,0.0,0.0,0.0,0.0,0.0,0.0,0.0,0.0,0.0,0.0,0.0,0.0,0.0,0.0,0.0,0.0,0.0,0.0,0.0,0.0,0.0,0.0,0.0,0.0,0.0,0.0,0.0,0.0,0.0,0.0,0.0,0.0,0.0,0.0,0.0,0.0,0.0,0.0,0.0,0.0,0.0,0.0,0.0,0.0,0.0,0.0,0.0,0.0,0.0,0.0,0.0,0.0,0.0,0.0,0.0,0.0,0.0,0.0,0.0,0.0,0.0,0.0,0.0,0.0,0.0,0.0,0.0,0.0,0.0,-1.54,-1.5349,-1.5319,-1.5299,-1.5259,-1.5201,0.0,0.0,0.0,0.0,0.0,0.0,0.0,0.0,0.0,0.0,0.0,0.0,0.0,0.0,0.0,0.0,0.0,0.0,0.0,0.0,0.0,0.0,0.0,0.0,0.0,0.0,0.0,0.0,0.0,0.0,0.0,0.0,0.0,0.0,0.0,0.0,0.0,0.0,0.0,0.0,0.0,0.0,0.0,0.0,0.0,0.0,0.0,0.0,0.0,0.0,0.0,0.0,0.0,0.0,0.0,0.0,0.0,0.0,0.0,0.0,0.0,0.0,0.0,0.0,0.0,0.0,0.0,0.0,0.0,0.0,0.0,0.0,0.0,0.0,0.0,0.0,0.0,0.0,0.0,0.0,0.0,0.0,0.0,0.0,0.0,0.0,0.0,0.0,0.0,0.0,0.0,0.0,0.0,0.0,0.0,0.0,0.0,0.0,0.0,0.0,0.0,0.0,0.0,0.0,0.0,0.0,0.0,0.0,0.0,-1.5728,-1.5466,-1.541,-1.562,-1.5339,-1.513,0.0,0.0,0.0,0.0,0.0,0.0,0.0,0.0,0.0,0.0,0.0,0.0,0.0,0.0,0.0,0.0,0.0,0.0,0.0,0.0,0.0,0.0,0.0,0.0,0.0,0.0,0.0,0.0,0.0,0.0,0.0,0.0,0.0,0.0,0.0,0.0,0.0,0.0,0.0,0.0,0.0,0.0,0.0,0.0,0.0,0.0,0.0,0.0,0.0,0.0,0.0,0.0,0.0,0.0,0.0,0.0,0.0,0.0,0.0,0.0,0.0,0.0,0.0,0.0,0.0,0.0,0.0,0.0,0.0,0.0,0.0,0.0,0.0,0.0,0.0,0.0,0.0,0.0,0.0,0.0,0.0,0.0,0.0,0.0,0.0,0.0,0.0,0.0,0.0,0.0,0.0,0.0,0.0,0.0,0.0,0.0,0.0,0.0,0.0,0.0,0.0,0.0,0.0,0.0,0.0,0.0,0.0,0.0,-1.5701,-1.641,-1.5748,-1.5726,-1.634,-1.5571,-1.5085,0.0,0.0,0.0,0.0,0.0,0.0,0.0,0.0,0.0,0.0,0.0,0.0,0.0,0.0,0.0,0.0,0.0,0.0,0.0,0.0,0.0,0.0,0.0,0.0,0.0,0.0,0.0,0.0,0.0,0.0,0.0,0.0,0.0,0.0,0.0,0.0,0.0,0.0,0.0,0.0,0.0,0.0,0.0,0.0,0.0,0.0,0.0,0.0,0.0,0.0,0.0,0.0,0.0,0.0,0.0,0.0,0.0,0.0,0.0,0.0,0.0,0.0,0.0,0.0,0.0,0.0,0.0,0.0,0.0,0.0,0.0,0.0,0.0,0.0,0.0,0.0,0.0,0.0,0.0,0.0,0.0,0.0,0.0,0.0,0.0,0.0,0.0,0.0,0.0,0.0,0.0,0.0,0.0,0.0,0.0,0.0,0.0,0.0,0.0,0.0,0.0,0.0,0.0,0.0,0.0,0.0,0.0,0.0,0.0,-1.6496,-1.6794,-1.6785,-1.6412,-1.6112,-1.5632,0.0,0.0,0.0,0.0,0.0,0.0,0.0,0.0,0.0,0.0,0.0,0.0,0.0,0.0,0.0,0.0,0.0,0.0,0.0,0.0,0.0,0.0,0.0,0.0,0.0,0.0,0.0,0.0,0.0,0.0,0.0,0.0,0.0,0.0,0.0,0.0,0.0,0.0,0.0,0.0,0.0,0.0,0.0,0.0,0.0,0.0,0.0,0.0,0.0,0.0,0.0,0.0,0.0,0.0,0.0,0.0,0.0,0.0,0.0,0.0,0.0,0.0,0.0,0.0,0.0,0.0,0.0,0.0,0.0,0.0,0.0,0.0,0.0,0.0,0.0,0.0,0.0,0.0,0.0,0.0,0.0,0.0,0.0,0.0,0.0,0.0,0.0,0.0,0.0,0.0,0.0,0.0,0.0,0.0,0.0,0.0,0.0,0.0,0.0,0.0,0.0,0.0,0.0,0.0,0.0,0.0,0.0,0.0,0.0,-1.7417,-1.7612,-1.7581,-1.7305,-1.6638,-1.6,-1.5401,0.0,0.0,0.0,0.0,0.0,0.0,0.0,0.0,0.0,0.0,0.0,0.0,0.0,0.0,0.0,0.0,0.0,0.0,0.0,0.0,0.0,0.0,0.0,0.0,0.0,0.0,0.0,0.0,0.0,0.0,0.0,0.0,0.0,0.0,0.0,0.0,0.0,0.0,0.0,0.0,0.0,0.0,0.0,0.0,0.0,0.0,0.0,0.0,0.0,0.0,0.0,0.0,0.0,0.0,0.0,0.0,0.0,0.0,0.0,0.0,0.0,0.0,0.0,0.0,0.0,0.0,0.0,0.0,0.0,0.0,0.0,0.0,0.0,0.0,0.0,0.0,0.0,0.0,0.0,0.0,0.0,0.0,0.0,0.0,0.0,0.0,0.0,0.0,0.0,0.0,0.0,0.0,0.0,0.0,0.0,0.0,0.0,0.0,0.0,0.0,0.0,0.0,0.0,0.0,0.0,0.0,0.0,0.0,-1.9064,-1.825,-1.8145,-1.8724,-1.7139,-1.6233,0.0,0.0,0.0,0.0,0.0,0.0,0.0,0.0,0.0,0.0,0.0,0.0,0.0,0.0,0.0,0.0,0.0,0.0,0.0,0.0,0.0,0.0,0.0,0.0,0.0,0.0,0.0,0.0,0.0,0.0,0.0,0.0,0.0,0.0,0.0,0.0,0.0,0.0,0.0,0.0,0.0,0.0,0.0,0.0,0.0,0.0,0.0,0.0,0.0,0.0,0.0,0.0,0.0,0.0,0.0,0.0,0.0,0.0,0.0,0.0,0.0,0.0,0.0,0.0,0.0,0.0,0.0,0.0,0.0,0.0,0.0,0.0,0.0,0.0,0.0,0.0,0.0,0.0,0.0,0.0,0.0,0.0,0.0,0.0,0.0,0.0,0.0,0.0,0.0,0.0,0.0,0.0,0.0,0.0,0.0,0.0,0.0,0.0,0.0,0.0,0.0,0.0,0.0,0.0,0.0,0.0,0.0,0.0,0.0,-1.9871,-1.9644,-1.9258,-1.8793,-1.7681,-1.6772,0.0,0.0,0.0,0.0,0.0,0.0,0.0,0.0,0.0,0.0,0.0,0.0,0.0,0.0,0.0,0.0,0.0,0.0,0.0,0.0,0.0,0.0,0.0,0.0,0.0,0.0,0.0,0.0,0.0,0.0,0.0,0.0,0.0,0.0,0.0,0.0,0.0,0.0,0.0,0.0,0.0,0.0,0.0,0.0,0.0,0.0,0.0,0.0,0.0,0.0,0.0,0.0,0.0,0.0,0.0,0.0,0.0,0.0,0.0,0.0,0.0,0.0,0.0,0.0,0.0,0.0,0.0,0.0,0.0,0.0,0.0,0.0,0.0,0.0,0.0,0.0,0.0,0.0,0.0,0.0,0.0,0.0,0.0,0.0,0.0,0.0,0.0,0.0,0.0,0.0,0.0,0.0,0.0,0.0,0.0,0.0,0.0,0.0,0.0,0.0,0.0,0.0,0.0,0.0,0.0,0.0,0.0,0.0,-1.8985,-2.0264,-2.0172,-1.9841,-1.9315,-1.8069,-1.7158,0.0,0.0,0.0,0.0,0.0,0.0,0.0,0.0,0.0,0.0,0.0,0.0,0.0,0.0,0.0,0.0,0.0,0.0,0.0,0.0,0.0,0.0,0.0,0.0,0.0,0.0,0.0,0.0,0.0,0.0,0.0,0.0,0.0,0.0,0.0,0.0,0.0,0.0,0.0,0.0,0.0,0.0,0.0,0.0,0.0,0.0,0.0,0.0,0.0,0.0,0.0,0.0,0.0,0.0,0.0,0.0,0.0,0.0,0.0,0.0,0.0,0.0,0.0,0.0,0.0,0.0,0.0,0.0,0.0,0.0,0.0,0.0,0.0,0.0,0.0,0.0,0.0,0.0,0.0,0.0,0.0,0.0,0.0,0.0,0.0,0.0,0.0,0.0,0.0,0.0,0.0,0.0,0.0,0.0,0.0,0.0,0.0,0.0,0.0,0.0,0.0,0.0,0.0,0.0,0.0,0.0,0.0,0.0,-1.9493,-2.0273,-2.0171,-2.0089,-1.9961,-1.8315,-1.7364,0.0,0.0,0.0,0.0,0.0,0.0,0.0,0.0,0.0,0.0,0.0,0.0,0.0,0.0,0.0,0.0,0.0,0.0,0.0,0.0,0.0,0.0,0.0,0.0,0.0,0.0,0.0,0.0,0.0,0.0,0.0,0.0,0.0,0.0,0.0,0.0,0.0,0.0,0.0,0.0,0.0,0.0,0.0,0.0,0.0,0.0,0.0,0.0,0.0,0.0,0.0,0.0,0.0,0.0,0.0,0.0,0.0,0.0,0.0,0.0,0.0,0.0,0.0,0.0,0.0,0.0,0.0,0.0,0.0,0.0,0.0,0.0,0.0,0.0,0.0,0.0,0.0,0.0,0.0,0.0,0.0,0.0,0.0,0.0,0.0,0.0,0.0,0.0,0.0,0.0,0.0,0.0,0.0,0.0,0.0,0.0,0.0,0.0,0.0,0.0,0.0,0.0,0.0,0.0,0.0,0.0,0.0,0.0,-1.95,-2.0267,-2.0223,-2.0126,-2.0001,-1.8306,-1.7364,0.0,0.0,0.0,0.0,0.0,0.0,0.0,0.0,0.0,0.0,0.0,0.0,0.0,0.0,0.0,0.0,0.0,0.0,0.0,0.0,0.0,0.0,0.0,0.0,0.0,0.0,0.0,0.0,0.0,0.0,0.0,0.0,0.0,0.0,0.0,0.0,0.0,0.0,0.0,0.0,0.0,0.0,0.0,0.0,0.0,0.0,0.0,0.0,-0.7095,0.0,0.0,0.0,0.0,0.0,0.0,0.0,0.0,0.0,0.0,0.0,0.0,0.0,0.0,0.0,0.0,0.0,0.0,0.0,0.0,0.0,0.0,0.0,0.0,0.0,0.0,0.0,0.0,0.0,0.0,0.0,0.0,0.0,0.0,0.0,0.0,0.0,0.0,0.0,0.0,0.0,0.0,0.0,0.0,0.0,0.0,0.0,0.0,0.0,0.0,0.0,0.0,0.0,0.0,0.0,0.0,0.0,0.0,0.0,-1.9899,-2.0284,-2.024,-2.0163,-1.9993,-1.8317,-1.7366,0.0,0.0,0.0,0.0,0.0,0.0,0.0,0.0,0.0,0.0,0.0,0.0,0.0,0.0,0.0,0.0,0.0,0.0,0.0,0.0,0.0,0.0,0.0,0.0,0.0,0.0,0.0,0.0,0.0,0.0,0.0,0.0,0.0,0.0,0.0,0.0,0.0,0.0,0.0,0.0,0.0,0.0,0.0,0.0,0.0,0.0,0.0,0.0,0.0,0.0,0.0,0.0,0.0,0.0,0.0,0.0,0.0,0.0,0.0,0.0,0.0,0.0,0.0,0.0,0.0,0.0,0.0,0.0,0.0,0.0,0.0,0.0,0.0,0.0,0.0,0.0,0.0,0.0,0.0,0.0,0.0,0.0,0.0,0.0,0.0,0.0,0.0,0.0,0.0,0.0,0.0,0.0,0.0,0.0,0.0,0.0,0.0,0.0,0.0,0.0,0.0,0.0,0.0,0.0,0.0,0.0,0.0,-1.9549,-2.037,-2.0292,-2.024,-2.0182,-2.0079,-1.8355,-1.7377,-1.7263,0.0,0.0,0.0,0.0,0.0,0.0,0.0,0.0,0.0,0.0,0.0,0.0,0.0,0.0,0.0,0.0,0.0,0.0,0.0,0.0,0.0,0.0,0.0,0.0,0.0,0.0,0.0,0.0,0.0,0.0,0.0,0.0,0.0,0.0,0.0,0.0,0.0,0.0,-0.7366,-0.7653,0.0,0.0,0.0,0.0,0.0,0.0,0.0,0.0,-0.7886,0.0,0.0,0.0,0.0,0.0,0.0,0.0,0.0,0.0,0.0,0.0,0.0,0.0,0.0,0.0,0.0,0.0,0.0,0.0,0.0,0.0,0.0,0.0,0.0,0.0,0.0,0.0,0.0,0.0,0.0,0.0,0.0,0.0,0.0,0.0,0.0,0.0,0.0,0.0,0.0,0.0,0.0,0.0,0.0,0.0,0.0,0.0,0.0,0.0,0.0,0.0,0.0,0.0,0.0,0.0,0.0,-1.7926,-1.9556,-2.0359,-2.0294,-2.0298,-2.0216,-2.005,-1.8412,-1.7415,-1.72,0.0,0.0,0.0,0.0,0.0,0.0,0.0,0.0,0.0,0.0,0.0,0.0,0.0,0.0,0.0,0.0,0.0,0.0,0.0,0.0,0.0,0.0,0.0,0.0,0.0,0.0,0.0,0.0,0.0,0.0,0.0,0.0,0.0,0.0,0.0,0.0,0.0,0.0,0.0,-0.8466,-0.8515,0.0,0.0,0.0,0.0,0.0,0.0,0.0,0.0,-0.8149,0.0,0.0,0.0,0.0,0.0,0.0,0.0,0.0,0.0,0.0,0.0,0.0,0.0,0.0,0.0,0.0,0.0,0.0,0.0,0.0,0.0,0.0,0.0,0.0,0.0,0.0,0.0,0.0,0.0,0.0,0.0,0.0,0.0,0.0,0.0,0.0,0.0,0.0,0.0,0.0,0.0,0.0,0.0,0.0,0.0,0.0,0.0,0.0,0.0,0.0,0.0,0.0,0.0,0.0,0.0,-1.7997,-1.9546,-2.0363,-2.0294,-2.0269,-2.0207,-2.0079,-1.8412,-1.7425,0.0,0.0,0.0,0.0,0.0,0.0,0.0,0.0,0.0,0.0,0.0,0.0,0.0,0.0,0.0,0.0,0.0,0.0,0.0,0.0,0.0,0.0,0.0,0.0,0.0,0.0,0.0,0.0,0.0,0.0,0.0,0.0,0.0,0.0,0.0,0.0,0.0,0.0,0.0,0.0,-0.8928,-0.9112,-0.9368,0.0,0.0,0.0,0.0,0.0,0.0,-0.85,-0.8318,0.0,0.0,0.0,0.0,0.0,0.0,0.0,0.0,0.0,0.0,0.0,0.0,0.0,0.0,0.0,0.0,0.0,0.0,0.0,0.0,0.0,0.0,0.0,0.0,0.0,0.0,0.0,0.0,0.0,0.0,0.0,0.0,0.0,0.0,0.0,0.0,0.0,0.0,0.0,0.0,0.0,0.0,0.0,0.0,0.0,0.0,0.0,0.0,0.0,0.0,0.0,0.0,0.0,0.0,0.0,-1.7956,-1.9556,-2.0372,-2.0294,-2.0235,-2.0162,-2.005,-1.8384,-1.7425,0.0,0.0,0.0,0.0,0.0,0.0,0.0,0.0,0.0,0.0,0.0,0.0,0.0,0.0,0.0,0.0,0.0,0.0,0.0,0.0,0.0,0.0,0.0,0.0,0.0,0.0,0.0,0.0,0.0,0.0,0.0,0.0,0.0,0.0,0.0,0.0,0.0,0.0,0.0,0.0,0.0,-0.969,-0.9811,-0.9788,0.0,0.0,0.0,0.0,-0.9125,-0.8736,0.0,0.0,0.0,0.0,0.0,0.0,0.0,0.0,0.0,0.0,0.0,0.0,0.0,0.0,0.0,0.0,0.0,0.0,0.0,0.0,0.0,0.0,0.0,0.0,0.0,0.0,0.0,0.0,0.0,0.0,0.0,0.0,0.0,0.0,0.0,0.0,0.0,0.0,0.0,0.0,0.0,0.0,0.0,0.0,0.0,0.0,0.0,0.0,0.0,0.0,0.0,0.0,0.0,0.0,0.0,0.0,-1.7966,-1.9556,-2.0355,-2.031,-2.0229,-2.0144,-1.9992,-1.8317,-1.7386,0.0,0.0,0.0,0.0,0.0,0.0,0.0,0.0,0.0,0.0,0.0,0.0,0.0,0.0,0.0,0.0,0.0,0.0,0.0,0.0,0.0,0.0,0.0,0.0,0.0,0.0,0.0,0.0,0.0,0.0,0.0,0.0,0.0,0.0,0.0,0.0,0.0,0.0,0.0,0.0,0.0,-1.0351,-1.0021,-1.0206,-1.0325,0.0,0.0,-0.9657,-0.946,-0.9092,0.0,0.0,0.0,0.0,0.0,0.0,0.0,0.0,0.0,0.0,0.0,0.0,0.0,0.0,0.0,0.0,0.0,0.0,0.0,0.0,0.0,0.0,0.0,0.0,0.0,0.0,0.0,0.0,0.0,0.0,0.0,0.0,0.0,0.0,0.0,0.0,0.0,0.0,0.0,0.0,0.0,0.0,0.0,0.0,0.0,0.0,0.0,0.0,0.0,0.0,0.0,0.0,0.0,0.0,0.0,-1.7978,-1.7961,-1.9541,-2.0355,-2.0294,-2.0238,-2.0144,-1.9981,-1.8751,-1.7826,0.0,0.0,0.0,0.0,0.0,0.0,0.0,0.0,0.0,0.0,0.0,0.0,0.0,0.0,0.0,0.0,0.0,0.0,0.0,0.0,0.0,0.0,0.0,0.0,0.0,0.0,0.0,0.0,0.0,0.0,0.0,0.0,0.0,0.0,0.0,0.0,0.0,0.0,0.0,0.0,0.0,0.0,-1.1161,-1.1125,0.0,0.0,0.0,-1.0257,-1.0045,0.0,0.0,0.0,0.0,0.0,0.0,0.0,0.0,0.0,0.0,0.0,0.0,0.0,0.0,0.0,0.0,0.0,0.0,0.0,0.0,0.0,0.0,0.0,0.0,0.0,0.0,0.0,0.0,0.0,0.0,0.0,0.0,0.0,0.0,0.0,0.0,0.0,0.0,0.0,0.0,0.0,0.0,0.0,0.0,0.0,0.0,0.0,0.0,0.0,0.0,0.0,0.0,0.0,0.0,0.0,0.0,0.0,-1.7913,-1.9551,-2.0371,-2.0294,-2.0211,-2.0117,-1.9989,-1.9087,0.0,0.0,0.0,0.0,0.0,0.0,0.0,0.0,0.0,0.0,0.0,0.0,0.0,0.0,0.0,0.0,0.0,0.0,0.0,0.0,0.0,0.0,0.0,0.0,0.0,0.0,0.0,-0.5582,0.0,0.0,0.0,0.0,0.0,0.0,0.0,0.0,0.0,0.0,0.0,0.0,0.0,0.0,-1.1384,-1.2075,-1.1943,-1.1763,0.0,0.0,-1.0814,-1.0604,-0.9994,-0.9447,0.0,0.0,0.0,0.0,0.0,0.0,0.0,0.0,0.0,0.0,0.0,0.0,0.0,0.0,0.0,0.0,0.0,0.0,0.0,0.0,0.0,0.0,0.0,0.0,0.0,0.0,0.0,0.0,0.0,0.0,0.0,0.0,0.0,0.0,0.0,0.0,0.0,0.0,0.0,0.0,0.0,0.0,0.0,0.0,0.0,0.0,0.0,0.0,0.0,0.0,0.0,0.0,0.0,0.0,-1.7426,-1.7946,-1.9541,-2.0373,-2.0304,-2.0175,-2.0079,-1.9974,-1.9094,-1.8125,0.0,0.0,0.0,0.0,0.0,0.0,0.0,0.0,0.0,0.0,0.0,0.0,0.0,0.0,0.0,0.0,0.0,0.0,0.0,0.0,0.0,0.0,0.0,0.0,0.0,0.0,0.0,0.0,0.0,0.0,0.0,0.0,0.0,0.0,0.0,0.0,0.0,0.0,0.0,0.0,0.0,-1.218,-1.2443,-1.2442,-1.2318,0.0,-1.1584,-1.126,-1.1072,-1.0505,-1.0052,-1.0021,0.0,0.0,0.0,0.0,0.0,0.0,0.0,0.0,0.0,0.0,0.0,0.0,0.0,0.0,0.0,0.0,0.0,0.0,0.0,0.0,0.0,0.0,0.0,0.0,0.0,0.0,0.0,0.0,0.0,0.0,0.0,0.0,0.0,0.0,0.0,0.0,0.0,0.0,0.0,0.0,0.0,0.0,0.0,0.0,0.0,0.0,0.0,0.0,0.0,0.0,0.0,0.0,0.0,-1.7733,-1.7907,-1.9593,-2.0655,-2.1061,-2.0507,-2.0365,-2.0796,-1.9837,-1.8633,0.0,0.0,0.0,0.0,0.0,0.0,0.0,0.0,0.0,0.0,0.0,0.0,0.0,0.0,0.0,0.0,0.0,0.0,0.0,0.0,0.0,0.0,0.0,0.0,0.0,0.0,0.0,0.0,-0.7207,-0.7643,-0.7768,0.0,0.0,0.0,0.0,0.0,0.0,0.0,0.0,0.0,0.0,-1.3168,-1.3349,-1.3103,0.0,0.0,-1.178,-1.1421,-1.119,-1.0732,-1.0325,-1.0103,-0.9577,0.0,0.0,0.0,0.0,0.0,0.0,0.0,0.0,0.0,0.0,0.0,0.0,0.0,0.0,0.0,0.0,0.0,0.0,0.0,0.0,0.0,0.0,0.0,0.0,0.0,0.0,0.0,0.0,0.0,0.0,0.0,0.0,0.0,0.0,0.0,0.0,0.0,0.0,0.0,0.0,0.0,0.0,0.0,0.0,0.0,0.0,0.0,0.0,0.0,0.0,0.0,0.0,-1.8131,-1.7922,-1.9615,-2.086,-2.1572,-2.0919,-2.0786,-2.1256,-2.0564,-1.9304,0.0,0.0,0.0,0.0,0.0,0.0,0.0,0.0,0.0,0.0,0.0,0.0,0.0,0.0,0.0,0.0,0.0,0.0,0.0,0.0,0.0,0.0,0.0,0.0,0.0,0.0,0.0,0.0,-0.7424,-0.7872,-0.8249,0.0,0.0,0.0,0.0,0.0,0.0,0.0,0.0,0.0,0.0,-1.3977,-1.4285,-1.3805,-1.3267,-1.2874,-1.2313,-1.1816,-1.1501,-1.0986,-1.0558,-1.0222,0.0,0.0,0.0,0.0,0.0,0.0,0.0,0.0,0.0,0.0,0.0,0.0,0.0,0.0,0.0,0.0,0.0,0.0,0.0,0.0,0.0,0.0,0.0,0.0,0.0,0.0,0.0,-0.6446,0.0,0.0,-0.5255,0.0,0.0,0.0,0.0,0.0,0.0,0.0,0.0,0.0,0.0,0.0,0.0,0.0,0.0,0.0,0.0,0.0,0.0,0.0,0.0,0.0,0.0,-1.8483,-1.7937,-1.9651,-2.0895,-2.1599,-2.1468,-2.1378,-2.135,-2.1082,-2.0077,-1.8217,0.0,0.0,0.0,0.0,0.0,0.0,0.0,0.0,0.0,0.0,0.0,0.0,0.0,0.0,0.0,0.0,0.0,0.0,0.0,0.0,0.0,0.0,0.0,0.0,0.0,0.0,-0.7621,-0.787,-0.8331,0.0,0.0,0.0,0.0,0.0,0.0,0.0,0.0,0.0,-1.3765,-1.4041,-1.4482,-1.5147,-1.4594,-1.4143,-1.4229,-1.3302,-1.2458,-1.2131,-1.13,-1.0682,0.0,0.0,0.0,0.0,0.0,0.0,0.0,0.0,0.0,0.0,0.0,0.0,0.0,0.0,0.0,0.0,0.0,0.0,0.0,0.0,0.0,0.0,0.0,0.0,0.0,0.0,0.0,-0.9452,-0.8889,0.0,0.0,0.0,0.0,0.0,0.0,0.0,0.0,0.0,0.0,0.0,-1.4137,-1.4954,0.0,0.0,0.0,0.0,0.0,0.0,0.0,0.0,0.0,0.0,0.0,0.0,-1.8428,-1.8837,-2.0424,-2.1672,-2.2436,-2.2322,-2.2498,-2.2943,-2.168,-2.0038,-1.7997,0.0,0.0,0.0,0.0,0.0,0.0,0.0,0.0,0.0,0.0,0.0,0.0,0.0,0.0,0.0,0.0,0.0,0.0,0.0,0.0,0.0,0.0,0.0,0.0,0.0,-0.7629,0.0,0.0,0.0,0.0,0.0,0.0,0.0,0.0,0.0,0.0,-1.3362,-1.4319,-1.4758,-1.5388,-1.5726,-1.5592,-1.5332,-1.4978,0.0,0.0,0.0,0.0,0.0,0.0,0.0,0.0,0.0,0.0,0.0,0.0,0.0,0.0,-0.7746,-0.8057,-0.8257,-0.8491,-0.8831,0.0,0.0,0.0,0.0,0.0,0.0,0.0,0.0,0.0,0.0,0.0,0.0,0.0,0.0,-1.2189,-1.1855,-1.1042,0.0,0.0,0.0,0.0,0.0,0.0,0.0,0.0,-1.3347,-1.4715,-1.5851,-1.6671,-1.7334,-1.7859,-1.7861,-1.6726,0.0,0.0,0.0,0.0,0.0,0.0,0.0,0.0,-1.8706,-1.9257,-2.087,-2.2114,-2.2856,-2.3059,-2.336,-2.3764,-2.1911,-2.0046,-1.8281,-1.5834,-1.3922,0.0,0.0,0.0,0.0,0.0,0.0,0.0,0.0,0.0,0.0,0.0,0.0,0.0,0.0,0.0,0.0,0.0,0.0,0.0,0.0,0.0,0.0,0.0,-0.8692,0.0,0.0,0.0,0.0,0.0,0.0,0.0,0.0,0.0,-1.3246,-1.4288,-1.5257,-1.571,-1.63,-1.6642,-1.6468,0.0,0.0,0.0,0.0,0.0,0.0,0.0,-1.1696,-1.1347,-1.0821,-1.0221,-0.96,-0.9116,-0.8789,-0.8794,0.0,0.0,-0.8804,-0.8994,-0.9226,-0.9637,-1.0032,-1.0476,-1.0906,-1.1256,-1.1625,0.0,0.0,0.0,0.0,-1.4042,0.0,0.0,0.0,-1.6487,-1.6048,0.0,-1.4496,0.0,0.0,0.0,0.0,-1.1657,-1.2558,0.0,0.0,-1.599,-1.675,-1.6841,-1.7704,-1.8019,-1.7936,-1.797,-1.7917,-1.7743,-1.7029,0.0,0.0,0.0,0.0,0.0,0.0,-1.9297,-1.9363,-2.1006,-2.2216,-2.295,-2.3664,-2.3965,-2.3743,-2.1817,-2.0224,-1.9048,-1.7099,-1.4992,-1.2771,-1.0706,0.0,0.0,0.0,0.0,0.0,0.0,0.0,0.0,0.0,0.0,0.0,0.0,0.0,0.0,0.0,0.0,0.0,0.0,0.0,0.0,-0.9416,0.0,0.0,0.0,0.0,0.0,0.0,0.0,0.0,0.0,-1.5198,-1.4367,-1.5299,-1.6185,-1.6594,0.0,0.0,0.0,0.0,-1.6545,-1.6298,-1.5373,-1.4422,-1.3801,-1.2925,-1.2189,-1.1785,0.0,0.0,-1.035,-1.0165,-1.0041,-1.0075,-1.0011,-0.9714,-0.8694,-0.8901,-0.9239,-0.9562,-1.0082,-1.0598,-1.1454,-1.1926,-1.2376,-1.9476,0.0,0.0,0.0,0.0,-1.7974,-1.8763,-1.9046,-1.9044,-1.8952,-1.8722,-1.7922,0.0,0.0,0.0,0.0,0.0,0.0,-1.6837,-1.7708,-1.9393,-2.0156,-2.0199,-2.1007,-2.107,-2.0451,-2.0453,-1.982,-1.8683,-1.8438,-1.7931,-1.7186,0.0,0.0,0.0,0.0,-1.9872,-2.1042,-2.2125,-2.3056,-2.3888,-2.4575,-2.4508,-2.3691,-2.2345,-2.1089,-1.9969,-1.7977,-1.6134,-1.4433,-1.236,0.0,0.0,0.0,0.0,0.0,0.0,0.0,0.0,0.0,0.0,0.0,0.0,0.0,0.0,0.0,0.0,0.0,0.0,0.0,-0.9424,-1.0374,-1.0989,0.0,0.0,0.0,0.0,0.0,0.0,0.0,0.0,0.0,-1.6567,-1.6721,-1.6977,0.0,0.0,-1.8394,-1.8057,-1.7775,-1.731,-1.657,-1.5774,0.0,-1.4303,-1.3409,-1.2612,-1.2143,-1.1207,-1.0404,-1.0183,-0.9956,-0.9819,-0.9831,-0.9815,-0.9755,-0.9705,-1.0132,-1.0676,-1.114,-1.1683,-1.2257,-1.2776,-1.322,-1.361,-2.2015,-1.9649,-2.0442,-2.0035,-1.8998,-2.0287,-2.1121,-2.1524,-2.1537,-2.1559,-2.157,-2.0812,-1.9976,-1.9081,-1.7766,0.0,0.0,0.0,-1.9767,-2.0659,-2.1615,-2.2057,-2.2076,-2.2542,-2.2478,-2.1943,-2.1933,-2.1416,-2.0439,-2.0462,-2.0248,-1.9767,0.0,-1.865,-1.9205,-1.9921,-2.0784,-2.1797,-2.2951,-2.3802,-2.4305,-2.4924,-2.4885,-2.4119,-2.3101,-2.2027,-2.0902,-1.8977,-1.7217,-1.5677,-1.3408,-1.1422,0.0,0.0,0.0,0.0,0.0,0.0,0.0,0.0,0.0,0.0,0.0,-0.2523,-0.3712,0.0,0.0,0.0,-0.8804,-1.0058,-1.0906,-1.2022,0.0,0.0,0.0,0.0,0.0,0.0,0.0,-1.6001,-1.6893,-1.7628,-1.8044,-1.8369,-1.862,-1.8655,-1.8991,-1.9049,-1.8614,0.0,-1.7625,-1.6637,-1.5951,-1.5238,-1.446,-1.3662,-1.2929,-1.2173,-1.1314,-1.0638,-1.0349,-1.0167,-0.9967,-0.9875,-0.9923,-1.0119,-1.0349,-1.0973,-1.1453,-1.1728,-1.2249,-1.2806,-1.3253,-1.3674,-1.4062,-2.3796,-2.3137,-2.252,-2.1796,-2.1176,-2.2013,-2.2914,-2.3761,-2.3768,-2.3818,-2.3833,-2.3163,-2.2401,-2.155,-2.0754,0.0,-2.1788,-2.1789,-2.2252,-2.3094,-2.3018,-2.2975,-2.2882,-2.2891,-2.2801,-2.2667,-2.268,-2.2642,-2.2564,-2.263,-2.268,-2.2633,-2.0477,-1.9419,-1.9565,-2.11,-2.1928,-2.2026,-2.358,-2.4404,-2.4398,-2.4908,-2.512,-2.4906,-2.394,-2.2946,-2.1909,-2.0054,-1.826,-1.663,-1.4236,-1.2345,-1.1124,0.0,0.0,0.0,0.0,0.0,0.0,0.0,0.0,0.0,0.0,0.0,0.0,0.0,0.0,0.0,-1.0842,0.0,-1.2673,-1.3994,0.0,0.0,0.0,-1.5475,-1.5597,-1.6361,-1.6919,-1.6973,0.0,0.0,-1.8983,-1.9984,-2.0582,-2.0239,-1.9736,-1.934,-1.9244,-1.8549,-1.7666,-1.6674,-1.5944,-1.5232,-1.4362,-1.3679,-1.2943,-1.208,-1.1528,-1.1078,-1.0728,-1.0533,-1.0348,-1.0056,-1.0253,-1.0549,-1.0808,-1.1216,-1.1594,-1.1547,-1.2075,-1.2674,-1.3238,-1.3585,-1.4015,-2.4118,-2.3915,-2.3759,-2.3303,-2.274,-2.358,-2.4117,-2.4394,-2.4424,-2.4526,-2.4619,-2.4439,-2.3979,-2.3269,-2.2459,-2.2595,-2.3438,-2.3438,-2.3899,-2.4697,-2.4658,-2.4607,-2.4538,-2.4469,-2.4062,-2.3388,-2.3356,-2.3054,-2.2461,-2.2472,-2.25,-2.2517,-2.201,-2.1857,-2.2033,-2.2484,-2.3069,-2.3764,-2.4189,-2.4673,-2.5192,-2.5249,-2.5213,-2.5047,-2.4066,-2.3332,-2.285,-2.1025,-1.9425,-1.8102,-1.6462,-1.4512,-1.2185,-1.0833,0.0,0.0,0.0,0.0,0.0,0.0,0.0,0.0,0.0,-0.4773,-0.6297,0.0,-0.8594,0.0,-1.2674,-1.4098,-1.4357,-1.4878,0.0,0.0,-1.5992,-1.6403,-1.6486,-1.7692,-1.8555,-1.8546,-1.9367,-2.006,-2.0422,-2.06,-2.08,-2.0985,-2.0541,-2.0028,-1.942,-1.8731,-1.7861,-1.6873,-1.607,-1.5271,-1.4403,-1.342,-1.2466,-1.1877,-1.1427,-1.1023,-1.062,-1.0415,-1.0261,-1.0047,-1.0051,-1.0257,-1.0518,-1.0875,-1.1266,-1.1722,-1.2534,-1.3325,-1.3836,-1.4278,-1.4624,-2.4199,-2.4199,-2.4199,-2.3989,-2.3675,-2.418,-2.4426,-2.4521,-2.4552,-2.4623,-2.4712,-2.4775,-2.4628,-2.4324,-2.3919,-2.4014,-2.4481,-2.4521,-2.48,-2.5242,-2.52,-2.5141,-2.5044,-2.4957,-2.4601,-2.4052,-2.4056,-2.3806,-2.3365,-2.3408,-2.3477,-2.3508,-2.3615,-2.374,-2.3869,-2.3657,-2.3796,-2.4348,-2.4735,-2.5125,-2.5519,-2.5439,-2.5303,-2.5128,-2.4578,-2.3986,-2.3396,-2.2274,-2.0792,-1.9004,-1.7977,-1.6404,-1.4181,-1.3043,-1.1842,0.0,0.0,0.0,0.0,0.0,0.0,0.0,0.0,0.0,0.0,0.0,-1.0577,-1.2689,-1.4353,-1.5424,-1.5681,-1.6444,-1.699,-1.7131,-1.7898,-1.8399,-1.8487,-1.9235,-1.976,-1.9719,-2.0351,-2.0841,-2.1014,-2.1128,-2.1225,-2.1283,-2.0819,-2.0239,-1.9515,-1.88,-1.7941,-1.6964,-1.6101,-1.5181,-1.4082,-1.2992,-1.218,-1.1673,-1.1226,-1.082,-1.047,-1.0154,-0.994,-0.9788,-0.9781,-0.9888,-1.0146,-1.0561,-1.0972,-1.1573,-1.226,-1.303,-1.38,-1.4233,-1.4553,-2.4208,-2.4199,-2.4199,-2.4199,-2.4199,-2.42,-2.4266,-2.4385,-2.4392,-2.4425,-2.4504,-2.461,-2.474,-2.4865,-2.493,-2.5,-2.5082,-2.5143,-2.5177,-2.518,-2.5172,-2.512,-2.4976,-2.4828,-2.4689,-2.4582,-2.453,-2.4504,-2.4478,-2.4587,-2.4676,-2.4757,-2.4894,-2.5,-2.5053,-2.4587,-2.4367,-2.4476,-2.5223,-2.5603,-2.5604,-2.5544,-2.5418,-2.5235,-2.5157,-2.4683,-2.3825,-2.3439,-2.2249,-2.0116,-1.9237,-1.8103,-1.6526,-1.5296,-1.4118,0.0,-1.1706,0.0,0.0,0.0,0.0,0.0,0.0,0.0,0.0,-1.1438,-1.2921,-1.5024,-1.6036,-1.6739,-1.7058,-1.8396,-1.9264,-1.9381,-2.0085,-2.057,-2.0608,-2.0695,-2.0732,-2.0668,-2.1238,-2.1558,-2.1356,-2.1602,-2.17,-2.1348,-2.0852,-2.0281,-1.9595,-1.8846,-1.7981,-1.7012,-1.6014,-1.4846,-1.3542,-1.2598,-1.1981,-1.1519,-1.107,-1.0565,-1.0265,-0.9892,-0.9558,-0.9409,-0.9462,-0.9614,-0.9766,-1.0241,-1.0714,-1.1124,-1.1669,-1.2309,-1.3223,-1.3716,-1.4015,-2.4113,-2.4104,-2.417,-2.4199,-2.4199,-2.4209,-2.4209,-2.4238,-2.4229,-2.4321,-2.4429,-2.4504,-2.4594,-2.467,-2.4729,-2.4804,-2.4942,-2.5009,-2.5025,-2.5034,-2.5044,-2.4972,-2.4826,-2.4651,-2.4495,-2.4366,-2.4294,-2.4257,-2.4257,-2.433,-2.4445,-2.4564,-2.4673,-2.4823,-2.4936,0.0,0.0,0.0,-2.552,-2.5603,-2.561,-2.5576,-2.5515,-2.5372,-2.5235,0.0,-2.4734,-2.3944,-2.3562,-2.3533,-2.1333,0.0,0.0,0.0,0.0,0.0,0.0,0.0,0.0,0.0,0.0,0.0,-1.3426,-1.319,-1.3003,-1.4373,-1.5857,-1.7192,-1.8118,-1.8953,-1.9762,-2.0147,-2.0397,-2.0437,-2.0622,-2.0731,-2.078,-2.1304,-2.1618,-2.1579,-2.2081,-2.2364,-2.2084,-2.1985,-2.1721,-2.134,-2.0819,-2.0323,-1.9747,-1.8959,-1.814,-1.7221,-1.5694,-1.4283,-1.3357,-1.2603,-1.1927,-1.1427,-1.0968,-1.0518,-0.9999,-0.9725,-0.9514,-0.9309,-0.9263,-0.9364,-0.961,-0.9821,-1.0135,-1.0714,-1.112,-1.1764,-1.2725,-1.3256,-1.3568,-2.3976,-2.4016,-2.4113,-2.4151,0.0,-2.4199,-2.42,-2.42,-2.42,-2.4238,-2.4312,-2.4348,-2.44,-2.4513,-2.4545,-2.4623,-2.4741,-2.4823,-2.4865,-2.4892,-2.4875,-2.4774,-2.4645,-2.4434,-2.4284,-2.4153,-2.4065,-2.3989,-2.399,-2.4114,-2.4201,-2.4293,-2.4486,-2.4623,-2.4808,-2.5063,-2.5311,-2.5542,-2.557,-2.5602,-2.5641,-2.5602,-2.558,-2.5509,-2.5405,0.0,0.0,0.0,0.0,0.0,0.0,0.0,0.0,-1.9101,-1.8141,-1.7351,-1.6331,-1.5774,-1.5846,-1.5506,-1.5657,-1.6547,-1.7342,-1.7241,-1.5901,-1.6976,-1.8202,-1.9269,-1.9787,-2.0276,-2.0828,-2.1229,-2.1454,-2.1503,-2.187,-2.2118,-2.2117,-2.2412,-2.2588,-2.2469,-2.2659,-2.2685,-2.2386,-2.2106,-2.1743,-2.1332,-2.086,-2.0315,-1.9747,-1.9004,-1.8061,-1.674,-1.5281,-1.4061,-1.3309,-1.2603,-1.1868,-1.1322,-1.0867,-1.0356,-0.9788,-0.9469,-0.9208,-0.9057,-0.8945,-0.9001,-0.9162,-0.9357,-0.9673,-1.0138,-1.0608,-1.1061,-1.1846,-1.2491,-1.2953,-2.3783,-2.3864,-2.3987,-2.4045,-2.4065,-2.4142,-2.417,-2.417,-2.4199,0.0,0.0,-2.4201,-2.4275,-2.4348,-2.4374,-2.4424,-2.4568,-2.4617,-2.4679,-2.4736,-2.4679,-2.4578,-2.4452,-2.4248,-2.4086,-2.3955,-2.3813,-2.3732,-2.3762,-2.3894,-2.3978,-2.4058,-2.422,-2.445,-2.4682,-2.4977,-2.5264,-2.5427,-2.5522,-2.5609,-2.5681,-2.5633,-2.5603,-2.5603,-2.555,-2.5482,-2.5419,-2.5264,-2.4784,-2.4004,-2.3544,-2.2914,-2.2062,-2.112,-2.0427,-2.003,-1.8656,-1.8014,-1.8399,-1.7882,-1.8104,-1.9459,-2.0545,-2.0423,-1.8687,-1.9241,-2.0102,-2.1147,-2.1206,-2.1349,-2.166,-2.2162,-2.2525,-2.2586,-2.3164,-2.3513,-2.3458,-2.3439,-2.3301,-2.3168,-2.3003,-2.2773,-2.2424,-2.2101,-2.1751,-2.1348,-2.0827,-2.0189,-1.9559,-1.8731,-1.7632,-1.612,-1.4971,-1.4055,-1.3309,-1.255,-1.1823,-1.1217,-1.0722,-1.0205,-0.9673,-0.9215,-0.8903,-0.8748,-0.8633,-0.8633,-0.8748,-0.8949,-0.9256,-0.9618,-0.9984,-1.0344,-1.0812,-1.1523,-1.2116,-2.3562,-2.3651,-2.3792,-2.3867,-2.3917,-2.3987,-2.4007,-2.4054,-2.4151,-2.4199,-2.4209,-2.4209,-2.42,-2.4238,-2.422,-2.4284,-2.4419,-2.4453,-2.4467,-2.4536,-2.4467,-2.4391,-2.433,-2.4057,-2.3867,-2.3744,-2.3625,-2.3544,-2.3544,-2.3669,-2.375,-2.3777,-2.4018,-2.4275,-2.454,-2.488,-2.5069,-2.5153,-2.5401,-2.5547,-2.5606,-2.5606,-2.5605,-2.5609,-2.5583,-2.5557,-2.5486,-2.5414,-2.5254,-2.4962,-2.3907,-2.3281,-2.3225,-2.2776,-2.2188,-2.1484,-2.1176,-2.0997,-2.0888,-2.0797,-2.0916,-2.1306,-2.161,-2.1478,-2.0824,-2.0963,-2.1474,-2.234,-2.244,-2.2768,-2.3471,-2.3583,-2.3608,-2.3635,-2.3717,-2.3761,-2.373,-2.3576,-2.3439,-2.328,-2.3119,-2.2842,-2.2451,-2.2166,-2.1773,-2.1285,-2.0728,-2.0042,-1.8907,-1.7948,-1.6993,-1.5958,-1.4937,-1.4061,-1.3304,-1.2452,-1.1773,-1.1175,-1.0514,-0.9947,-0.9364,-0.9005,-0.8748,-0.8477,-0.8421,-0.8418,-0.858,-0.8629,-0.8837,-0.9208,-0.9472,-0.9673,-0.9972,-1.0442,-1.0952,-2.3271,-2.3365,-2.3553,-2.3694,-2.3738,-2.3855,-2.3896,-2.3905,-2.3955,-2.4045,-2.4142,-2.417,-2.4209,-2.4209,-2.4209,-2.4247,-2.4284,-2.4302,-2.4329,-2.4374,-2.4312,-2.4247,-2.4114,-2.3905,-2.3694,-2.354,-2.3398,-2.3313,-2.3289,-2.3374,-2.3458,-2.3553,-2.3873,-2.4154,-2.4391,-2.4635,-2.4823,-2.4936,-2.5274,-2.5482,-2.5541,-2.557,-2.5607,-2.5605,-2.56,-2.5591,-2.5566,-2.5526,-2.5444,-2.5314,-2.4668,-2.4331,-2.4353,-2.4138,-2.3652,-2.278,-2.2268,-2.1931,-2.1847,-2.2245,-2.2544,-2.2666,-2.3142,-2.3353,-2.3177,-2.2663,-2.2721,-2.3511,-2.3584,-2.374,-2.4164,-2.4134,-2.4048,-2.4077,-2.3996,-2.3933,-2.3861,-2.3752,-2.3567,-2.3392,-2.3193,-2.2885,-2.2515,-2.2186,-2.1794,-2.1254,-2.0504,-1.9508,-1.8539,-1.7652,-1.6795,-1.5914,-1.4926,-1.4061,-1.3309,-1.2452,-1.1723,-1.1078,-1.0462,-0.9792,-0.9211,-0.885,-0.848,-0.8162,-0.7999,-0.7993,-0.8096,-0.8096,-0.8309,-0.8685,-0.8893,-0.9044,-0.9305,-0.9573,-1.0035,-2.2927,-2.3028,-2.3286,-2.3444,-2.3526,-2.3651,-2.3707,-2.3707,-2.371,-2.3813,-2.3974,-2.4074,-2.4142,-2.417,-2.417,-2.419,-2.421,-2.4201,-2.4238,-2.4257,-2.42,-2.4094,-2.3946,-2.3756,-2.3544,-2.336,-2.3184,-2.3061,-2.302,-2.3086,-2.3193,-2.3392,-2.3707,-2.3987,-2.4163,-2.4374,-2.4533,-2.4687,-2.5051,-2.5312,-2.5425,-2.5498,-2.5547,-2.5558,-2.5564,-2.5576,-2.5602,-2.5608,-2.5541,-2.5455,-2.5331,-2.5253,-2.5175,-2.5141,-2.4767,-2.3986,-2.3291,-2.2874,-2.2897,-2.3459,-2.3832,-2.3905,-2.4449,-2.4828,-2.4813,-2.4127,-2.387,-2.439,-2.4416,-2.4401,-2.4446,-2.4357,-2.4284,-2.4293,-2.42,-2.4095,-2.3987,-2.3882,-2.3712,-2.3476,-2.3247,-2.297,-2.2552,-2.2186,-2.1705,-2.0966,-2.0007,-1.9109,-1.833,-1.7524,-1.6648,-1.582,-1.4886,-1.4055,-1.3256,-1.2403,-1.1623,-1.0918,-1.0249,-0.9577,-0.9001,-0.8527,-0.8159,-0.7842,-0.7577,-0.7518,-0.7566,-0.7563,-0.772,-0.804,-0.8196,-0.8362,-0.8629,-0.8735,-0.9099,-2.2694,-2.2764,-2.2961,-2.316,-2.3304,-2.3351,-2.336,-2.3374,-2.3481,-2.3549,-2.3585,-2.3822,-2.3996,-2.4103,-2.4094,-2.4151,-2.419,-2.4209,-2.419,-2.4209,-2.4084,-2.3967,-2.3896,-2.3571,-2.3351,-2.3193,-2.2952,-2.2825,-2.2738,-2.2808,-2.297,-2.3217,-2.3417,-2.3629,-2.3765,-2.3955,-2.4155,-2.4335,-2.4614,-2.4906,-2.5214,-2.5301,-2.5364,-2.5431,-2.5484,-2.5538,-2.5598,-2.5605,-2.5595,-2.5574,-2.5508,-2.5451,-2.5381,-2.5423,-2.5331,-2.5053,-2.4926,-2.4893,-2.483,-2.4943,-2.4991,-2.504,-2.5071,-2.5147,-2.5155,-2.5003,-2.4841,-2.4794,-2.4757,-2.4711,-2.4686,-2.4596,-2.4547,-2.454,-2.4402,-2.4238,-2.4145,-2.3998,-2.3813,-2.3625,-2.3319,-2.302,-2.2552,-2.211,-2.1469,-2.0514,-1.9652,-1.8891,-1.8159,-1.7353,-1.6484,-1.5599,-1.4749,-1.3962,-1.3155,-1.23,-1.1418,-1.0612,-0.9884,-0.926,-0.8629,-0.8099,-0.767,-0.7413,-0.7198,-0.7085,-0.7136,-0.719,-0.7187,-0.7345,-0.745,-0.7503,-0.7723,-0.778,-0.804,-2.2487,-2.255,-2.2694,-2.2859,-2.2986,-2.3036,-2.307,-2.3052,-2.3102,-2.3199,-2.3271,-2.3371,-2.362,-2.3917,-2.3967,-2.4036,-2.4151,-2.4142,-2.418,-2.418,-2.4054,-2.3937,-2.3804,-2.3549,-2.3274,-2.3011,-2.2782,-2.2614,-2.2506,-2.256,-2.2703,-2.2859,-2.3077,-2.3277,-2.3459,-2.3665,-2.3853,-2.405,-2.4275,-2.4493,-2.4669,-2.4977,-2.5148,-2.5225,-2.5316,-2.5412,-2.5474,-2.5525,-2.5558,-2.5596,-2.5613,-2.558,-2.5517,-2.5585,-2.5548,-2.5386,-2.5348,-2.5306,-2.5271,-2.5291,-2.532,-2.5312,-2.5322,-2.5322,-2.5322,-2.5264,-2.5192,-2.5111,-2.5002,-2.4898,-2.4851,-2.4798,-2.4713,-2.4717,-2.4589,-2.4437,-2.4339,-2.4143,-2.3905,-2.3638,-2.3319,-2.2995,-2.2489,-2.1794,-2.0983,-2.0116,-1.9383,-1.8655,-1.7974,-1.7076,-1.6219,-1.5332,-1.4468,-1.3669,-1.2856,-1.2049,-1.1158,-1.034,-0.9621,-0.8945,-0.8253,-0.767,-0.7244,-0.698,-0.6704,-0.6591,-0.6534,-0.6591,-0.6591,-0.6699,-0.6858,-0.691,-0.7015,-0.6915,-0.7023,-2.2358,-2.2386,-2.2506,-2.2614,-2.2712,-2.2764,-2.2782,-2.2782,-2.2808,-2.2859,-2.2961,-2.3003,-2.3221,-2.358,-2.3741,-2.3885,-2.3967,-2.4016,-2.4045,-2.4084,-2.4005,-2.3864,-2.3701,-2.3449,-2.3144,-2.2799,-2.2561,-2.236,-2.22,-2.2285,-2.2371,-2.2489,-2.2703,-2.2901,-2.3116,-2.3318,-2.35,-2.3701,-2.391,-2.403,-2.4155,-2.4491,-2.4784,-2.497,-2.5116,-2.5245,-2.5311,-2.5389,-2.5469,-2.5554,-2.5655,-2.5674,-2.5608,-2.5664,-2.5652,-2.5541,-2.5479,-2.5453,-2.5461,-2.545,-2.546,-2.5457,-2.5456,-2.5464,-2.5418,-2.5203,-2.5018,-2.4935,-2.4665,-2.4478,-2.5025,-2.4944,-2.4879,-2.4851,-2.4738,-2.4599,-2.4481,-2.4266,-2.4007,-2.3685,-2.3365,-2.2876,-2.2271,-2.1415,-2.0532,-1.9872,-1.9132,-1.8383,-1.7619,-1.6782,-1.5876,-1.5017,-1.4039,-1.3188,-1.2511,-1.1692,-1.0846,-0.9972,-0.9201,-0.8577,-0.7821,-0.7238,-0.6753,-0.6428,-0.6154,-0.5937,-0.5882,-0.5884,-0.5828,-0.5993,-0.6046,-0.6095,-0.6095,-0.5991,-0.583,-2.231,-2.231,-2.2386,-2.246,-2.2497,-2.2533,-2.2542,-2.2542,-2.2587,-2.2605,-2.265,-2.2756,-2.2876,-2.3077,-2.3403,-2.3642,-2.3723,-2.3795,-2.3828,-2.3833,-2.3801,-2.3685,-2.3491,-2.3245,-2.2936,-2.2597,-2.2281,-2.2036,-2.1819,-2.1907,-2.1998,-2.2124,-2.2284,-2.2465,-2.2703,-2.2797,-2.2963,-2.3227,-2.3441,-2.3548,-2.364,-2.3849,-2.4192,-2.462,-2.4827,-2.4955,-2.5083,-2.5235,-2.5347,-2.5408,-2.5586,-2.5671,-2.5593,-2.5599,-2.5527,-2.5496,-2.5507,-2.5517,-2.5476,-2.5431,-2.5443,-2.5488,-2.5375,-2.5517,-2.5279,-2.4709,-2.4321,-2.4254,-2.3587,-2.3684,-2.477,-2.4815,-2.4857,-2.4908,-2.4823,-2.4672,-2.4607,-2.4365,-2.4106,-2.3795,-2.3385,-2.2712,-2.1718,-2.0967,-2.0261,-1.9565,-1.8846,-1.8028,-1.7249,-1.6404,-1.5427,-1.4468,-1.3474,-1.2618,-1.207,-1.1288,-1.0383,-0.9454,-0.8728,-0.8103,-0.7348,-0.6699,-0.6263,-0.5825,-0.5445,-0.5228,-0.5122,-0.5066,-0.5009,-0.5007,-0.5005,-0.5058,-0.5056,-0.4891,-0.4785,-2.2319,-2.2319,-2.2338,-2.2358,-2.2358,-2.2358,-2.2386,-2.2358,-2.2422,-2.2432,-2.2479,-2.2533,-2.2614,-2.2747,-2.2918,-2.323,-2.3576,-2.3598,-2.3646,-2.3674,-2.3642,-2.3526,-2.3353,-2.3044,-2.2703,-2.2337,-2.2064,-2.1751,-2.1442,-2.1495,-2.1548,-2.1623,-2.1836,-2.2056,-2.2206,-2.2404,-2.2538,-2.2686,-2.2898,-2.303,-2.3109,-2.3253,-2.3455,-2.3728,-2.4209,-2.4548,-2.4718,-2.4882,-2.504,-2.5139,-2.5414,-2.5258,-2.4624,-2.4154,-2.3916,-2.3932,-2.3923,-2.394,-2.3934,-2.3935,-2.3964,-2.399,-2.4004,-2.4054,-2.3947,-2.368,-2.3455,-2.3351,-2.3178,-2.3312,-2.3552,-2.3667,-2.3792,-2.4248,-2.4248,-2.4306,-2.4589,-2.4517,-2.4238,-2.383,-2.3183,-2.2349,-2.1467,-2.0805,-2.0066,-1.9222,-1.838,-1.751,-1.6587,-1.5676,-1.4744,-1.3721,-1.2706,-1.1711,-1.0809,-1.0466,-0.9814,-0.8879,-0.8099,-0.7292,-0.6539,-0.5884,-0.5391,-0.5005,-0.4624,-0.4403,-0.4348,-0.4293,-0.4182,-0.4182,-0.4181,-0.4124,-0.4068,-0.3843,-0.3792,-2.2319,-2.2319,-2.2319,-2.2319,-2.2319,-2.2319,-2.2319,-2.2319,-2.2319,-2.2338,-2.2358,-2.2358,-2.2432,-2.2525,-2.2587,-2.2808,-2.3182,-2.3286,-2.333,-2.3364,-2.333,-2.3217,-2.3046,-2.2773,-2.2455,-2.2068,-2.1675,-2.1332,-2.1087,-2.103,-2.1039,-2.1095,-2.1347,-2.1532,-2.1604,-2.1653,-2.1726,-2.1803,-2.1779,-2.1799,-2.1884,-2.196,-2.2058,-2.2242,-2.2661,-2.3359,-2.4163,-2.4181,-2.4236,-2.4443,-2.4972,-2.4483,-2.2842,-2.2707,-2.2772,-2.2831,-2.2862,-2.2868,-2.2894,-2.2932,-2.2978,-2.3005,-2.3046,-2.3054,-2.3037,-2.2773,-2.2604,-2.254,-2.2299,-2.2199,-2.2166,-2.2071,-2.2444,-2.3367,-2.3523,-2.3612,-2.3975,-2.3838,-2.347,-2.2858,-2.2089,-2.1388,-2.0714,-2.0104,-1.9324,-1.8457,-1.7704,-1.6905,-1.5822,-1.4892,-1.3894,-1.2841,-1.1751,-1.0691,-0.9666,-0.8995,-0.8688,-0.7859,-0.7173,-0.6423,-0.5775,-0.5119,-0.4568,-0.4182,-0.385,-0.3684,-0.3518,-0.3463,-0.3408,-0.3409,-0.3352,-0.3296,-0.3071,-0.2735,-0.2623,-2.2319,-2.2319,-2.2319,-2.2319,-2.2319,-2.2319,-2.2319,-2.2319,-2.2319,-2.2319,-2.231,-2.231,-2.233,-2.2386,-2.2405,-2.2487,-2.2659,-2.2833,-2.291,-2.2933,-2.2926,-2.2833,-2.2639,-2.2424,-2.2124,-2.1751,-2.1182,-2.0844,-2.0685,-2.0553,-2.0504,-2.0597,-2.0634,-2.0726,-2.0951,-2.0578,-2.0414,-2.0377,-2.0129,-1.9913,-1.9822,-2.0034,-2.0154,-2.0228,-2.0376,-2.1365,-2.3377,-2.3029,-2.2876,-2.3165,-2.4131,-2.3166,-2.0682,-2.1274,-2.2285,-2.223,-2.2411,-2.2512,-2.2545,-2.2535,-2.2449,-2.2489,-2.2712,-2.2613,-2.2487,-2.2042,-2.1664,-2.1561,-2.1103,-2.0641,-2.0683,-2.0709,-2.1286,-2.2572,-2.2771,-2.2699,-2.2654,-2.2344,-2.1879,-2.1326,-2.0738,-1.9892,-1.9208,-1.881,-1.8223,-1.7297,-1.6618,-1.5837,-1.4646,-1.3658,-1.2829,-1.1652,-1.0437,-0.9253,-0.8297,-0.7463,-0.7149,-0.6727,-0.6086,-0.5441,-0.4893,-0.4237,-0.357,-0.3128,-0.2732,-0.2511,-0.2345,-0.229,-0.2292,-0.2292,-0.2349,-0.2179,-0.1731,-0.1339,-0.1171,-2.2319,-2.2319,-2.2319,-2.2319,-2.2319,-2.2319,-2.2319,-2.2319,-2.2319,-2.2319,-2.2319,-2.2319,-2.231,-2.233,-2.233,-2.2358,-2.2405,-2.2451,-2.2579,-2.2721,-2.2694,-2.2604,-2.2428,-2.2203,-2.1769,-2.1166,-2.0648,-2.0319,-2.0085,-1.9987,-1.9925,-1.9834,-1.9611,-1.9539,-1.9568,-1.9186,-1.9007,-1.9043,-1.906,-1.907,-1.9111,-1.9163,-1.923,-1.9331,-1.9396,-1.9878,-2.056,-2.1092,-2.1431,-2.1584,-2.2246,-2.1463,-1.9574,-1.9627,-2.009,-2.0168,-2.0279,-2.0355,-2.0448,-2.0567,-2.0689,-2.0728,-2.081,-2.0876,-2.0928,-2.0769,-2.0617,-2.0621,-2.0405,-2.0311,-2.0364,-2.0407,-2.0918,-2.1965,-2.1993,-2.2126,-2.2374,-2.2193,-2.1817,-2.1254,-2.0559,-1.9765,-1.8852,-1.811,-1.7013,-1.5904,-1.5066,-1.4078,-1.2848,-1.1803,-1.0718,-0.9601,-0.8594,-0.7635,-0.6542,-0.5648,-0.5224,-0.4913,-0.4482,-0.4215,-0.3731,-0.3122,-0.2513,-0.1955,-0.1563,-0.1284,-0.1173,-0.1061,-0.1006,-0.0838,-0.0614,-0.0335,-0.0056,0.0223,0.0557,-2.2262,-2.2262,-2.2254,-2.2254,-2.2254,-2.218,-2.2163,-2.22,-2.2172,-2.2155,-2.2192,-2.2192,-2.22,-2.2192,-2.2192,-2.2217,-2.2262,-2.2254,-2.2366,-2.2515,-2.2515,-2.2396,-2.222,-2.1886,-2.1401,-2.0755,-2.025,-1.9859,-1.9536,-1.9369,-1.9141,-1.8768,-1.8573,-1.8352,-1.8194,-1.7729,-1.7531,-1.7563,-1.747,-1.7497,-1.757,-1.7613,-1.7647,-1.7718,-1.7767,-1.7844,-1.7968,-1.8559,-1.9224,-1.9821,-2.009,-1.9341,-1.8113,-1.8323,-1.8574,-1.8644,-1.8748,-1.8892,-1.8992,-1.9206,-1.9254,-1.9367,-1.9485,-1.959,-1.9654,-1.9729,-1.9772,-1.9812,-1.9886,-1.9992,-2.0058,-2.0153,-2.049,-2.101,-2.113,-2.1328,-2.1658,-2.1422,-2.0964,-2.0363,-1.9687,-1.8833,-1.7841,-1.6845,-1.5647,-1.4431,-1.3345,-1.221,-1.0973,-0.9797,-0.8826,-0.7812,-0.6789,-0.5795,-0.4689,-0.3901,-0.3303,-0.2954,-0.264,-0.2584,-0.2398,-0.1673,-0.1005,-0.0502,-0.0056,0.0167,0.0279,0.0446,0.0502,0.0837,0.1164,0.184,0.2286,0.2396,0.2616,-2.2185,-2.2177,-2.2177,-2.2177,-2.214,-2.1974,-2.192,-2.194,-2.1928,-2.1949,-2.1969,-2.1978,-2.1978,-2.2007,-2.1986,-2.2049,-2.216,-2.2168,-2.2177,-2.218,-2.2209,-2.2163,-2.1957,-2.1479,-2.099,-2.0478,-1.9917,-1.945,-1.899,-1.8624,-1.8155,-1.7602,-1.7445,-1.7242,-1.6716,-1.6228,-1.6009,-1.5954,-1.5574,-1.5439,-1.5558,-1.5514,-1.5581,-1.5625,-1.5676,-1.5742,-1.5895,-1.5994,-1.6682,-1.7986,-1.7885,-1.7447,-1.7082,-1.7361,-1.7637,-1.7761,-1.7867,-1.7971,-1.8161,-1.8262,-1.8403,-1.8547,-1.8668,-1.8856,-1.8924,-1.9005,-1.9079,-1.9133,-1.928,-1.9445,-1.956,-1.9683,-1.9877,-2.0051,-2.0363,-2.0476,-2.0251,-2.0113,-1.992,-1.9301,-1.8373,-1.7394,-1.6366,-1.53,-1.3941,-1.2579,-1.1562,-1.0491,-0.8832,-0.7607,-0.7164,-0.601,-0.4558,-0.3537,-0.233,-0.1604,-0.0942,-0.0401,-0.0206,-0.0212,-0.0488,0.0054,0.0544,0.1038,0.1375,0.1603,0.1708,0.185,0.2007,0.2268,0.2934,0.4045,0.4306,0.4136,0.422,-2.1873,-2.1886,-2.1894,-2.1873,-2.1814,-2.1784,-2.1691,-2.1637,-2.1721,-2.1738,-2.1751,-2.1781,-2.1759,-2.1797,-2.1759,-2.1814,-2.1852,-2.1882,-2.1894,-2.1894,-2.1915,-2.1865,-2.1691,-2.1214,-2.0745,-2.025,-1.958,-1.8959,-1.8345,-1.7667,-1.7088,-1.6545,-1.5781,-1.5314,-1.5049,-1.4628,-1.4397,-1.4429,-1.4463,-1.441,-1.4449,-1.4516,-1.4547,-1.4533,-1.4509,-1.4509,-1.4526,-1.4443,-1.5225,-1.6843,-1.6638,-1.6192,-1.5811,-1.622,-1.6507,-1.6567,-1.6676,-1.6816,-1.6954,-1.7096,-1.7282,-1.7493,-1.7556,-1.7722,-1.7905,-1.8062,-1.8162,-1.822,-1.8386,-1.8555,-1.8679,-1.8877,-1.9137,-1.9517,-1.9825,-2.014,-2.0211,-2.0113,-1.9828,-1.9257,-1.8262,-1.699,-1.5494,-1.3717,-1.1969,-1.0364,-0.9228,-0.8203,-0.6083,-0.4686,-0.3929,-0.2857,-0.1626,-0.0814,-0.0,0.075,0.143,0.2106,0.2451,0.2671,0.2251,0.2007,0.2313,0.2672,0.2862,0.3092,0.3111,0.3174,0.3397,0.3755,0.4156,0.4912,0.5066,0.505,0.541,-2.1565,-2.157,-2.1579,-2.1565,-2.1511,-2.1363,-2.1308,-2.13,-2.1316,-2.1355,-2.1386,-2.1409,-2.1409,-2.1409,-2.1409,-2.1448,-2.1534,-2.1587,-2.1579,-2.1595,-2.1573,-2.1565,-2.1456,-2.1055,-2.0556,-1.9992,-1.9199,-1.831,-1.7492,-1.6718,-1.5925,-1.5063,-1.4349,-1.3891,-1.358,-1.3323,-1.3151,-1.3253,-1.3382,-1.3416,-1.3483,-1.3497,-1.3478,-1.3438,-1.3377,-1.3377,-1.327,-1.3183,-1.4018,-1.537,-1.5433,-1.492,-1.4529,-1.4957,-1.5294,-1.5337,-1.5416,-1.5515,-1.5641,-1.5758,-1.5914,-1.6113,-1.6239,-1.637,-1.653,-1.6727,-1.6832,-1.687,-1.7128,-1.73,-1.7505,-1.7795,-1.8136,-1.8426,-1.8877,-1.9366,-1.9958,-2.0037,-1.9803,-1.9172,-1.8107,-1.6498,-1.4615,-1.215,-0.9687,-0.7607,-0.5944,-0.4424,-0.2683,-0.1512,-0.0519,0.0391,0.1262,0.2062,0.2729,0.342,0.376,0.4431,0.4965,0.5234,0.4626,0.4016,0.4054,0.4261,0.4417,0.4558,0.4624,0.4817,0.5144,0.5421,0.555,0.5806,0.6182,0.6479,0.6775,-2.1214,-2.1222,-2.1214,-2.1222,-2.1151,-2.0885,-2.0844,-2.0886,-2.0844,-2.0836,-2.0918,-2.0942,-2.0934,-2.0942,-2.095,-2.1031,-2.1191,-2.1175,-2.1206,-2.1183,-2.1159,-2.1199,-2.1158,-2.0877,-2.0353,-1.9702,-1.8795,-1.769,-1.6619,-1.582,-1.4682,-1.3714,-1.319,-1.2728,-1.2338,-1.2162,-1.2223,-1.2271,-1.2295,-1.233,-1.236,-1.239,-1.2342,-1.226,-1.2188,-1.2081,-1.1938,-1.1974,-1.2643,-1.4346,-1.4013,-1.3559,-1.3162,-1.3624,-1.3938,-1.4021,-1.4026,-1.4083,-1.4203,-1.4277,-1.4408,-1.4574,-1.4674,-1.4824,-1.4943,-1.5095,-1.5174,-1.5236,-1.5536,-1.5714,-1.5968,-1.6442,-1.6706,-1.6884,-1.7135,-1.7893,-1.8906,-1.9505,-1.9608,-1.9194,-1.7792,-1.5566,-1.3065,-1.0116,-0.6982,-0.3578,-0.2109,-0.0625,0.1052,0.2456,0.298,0.3293,0.4132,0.494,0.5561,0.6196,0.6358,0.6713,0.7273,0.7404,0.6633,0.6119,0.5992,0.5976,0.604,0.617,0.6317,0.6559,0.6848,0.7077,0.7199,0.7565,0.7983,0.8165,0.8465,-2.062,-2.0654,-2.0646,-2.0654,-2.0579,-2.0504,-2.0478,-2.0452,-2.0478,-2.0504,-2.0538,-2.0538,-2.053,-2.0545,-2.0538,-2.053,-2.0613,-2.0679,-2.0654,-2.0695,-2.0785,-2.0711,-2.0646,-2.0478,-2.0062,-1.9303,-1.8398,-1.7163,-1.5924,-1.4663,-1.3569,-1.2519,-1.1926,-1.1459,-1.1148,-1.1159,-1.1132,-1.1116,-1.1148,-1.1169,-1.1169,-1.1201,-1.1121,-1.1031,-1.0886,-1.074,-1.056,-1.0517,-1.0664,-1.1058,-1.1771,-1.1989,-1.1797,-1.2124,-1.2436,-1.2471,-1.2477,-1.2512,-1.2575,-1.2627,-1.2696,-1.2886,-1.2962,-1.3095,-1.3171,-1.3284,-1.335,-1.3402,-1.3551,-1.3765,-1.4076,-1.4431,-1.4652,-1.4762,-1.4867,-1.5056,-1.5694,-1.7234,-1.8269,-1.7896,-1.5696,-1.3082,-1.0565,-0.6018,-0.2769,0.0198,0.1993,0.331,0.4757,0.6275,0.6475,0.6513,0.6907,0.7647,0.796,0.8523,0.8755,0.8945,0.9451,0.9724,0.8949,0.8315,0.8165,0.7884,0.7585,0.7769,0.8018,0.8118,0.8384,0.8586,0.8819,0.9177,0.9473,0.9776,1.0074,-2.0273,-2.0323,-2.0315,-2.0315,-2.0239,-2.0185,-2.0115,-2.0123,-2.0108,-2.0143,-2.0227,-2.022,-2.0227,-2.0227,-2.0227,-2.022,-2.0281,-2.0281,-2.0315,-2.035,-2.0399,-2.0339,-2.0185,-1.998,-1.963,-1.891,-1.7708,-1.6362,-1.4968,-1.3616,-1.2388,-1.1334,-1.0779,-1.0472,-1.0171,-1.0133,-1.0084,-0.9987,-0.9992,-0.9982,-0.9953,-0.9953,-0.9861,-0.973,-0.9538,-0.935,-0.9147,-0.9111,-0.8992,-0.9058,-0.958,-1.0088,-1.0226,-1.0606,-1.0876,-1.0892,-1.086,-1.0897,-1.093,-1.0924,-1.0973,-1.101,-1.1078,-1.111,-1.1156,-1.1238,-1.1228,-1.1258,-1.1334,-1.155,-1.1879,-1.1964,-1.2143,-1.2183,-1.2152,-1.2107,-1.2408,-1.4413,-1.5844,-1.4784,-1.1521,-0.8315,-0.4985,-0.1265,0.2163,0.5368,0.6423,0.7637,0.8114,0.9388,0.9664,0.9775,0.993,1.0217,1.0447,1.0782,1.1084,1.1312,1.156,1.1772,1.1503,1.0899,1.0376,0.993,0.9409,0.9541,0.9721,0.9804,0.9945,1.022,1.0475,1.0699,1.0994,1.1335,1.1617,-2.0038,-2.003,-2.0038,-2.003,-2.0003,-1.9861,-1.9869,-1.9919,-1.9848,-1.9876,-1.9927,-1.9978,-1.9955,-1.9962,-1.9955,-1.999,-2.0045,-2.0038,-2.0038,-2.0038,-2.0073,-2.0053,-1.9912,-1.9631,-1.9185,-1.8503,-1.7126,-1.5624,-1.4152,-1.2652,-1.144,-1.0391,-0.9829,-0.95,-0.9306,-0.911,-0.8977,-0.888,-0.8827,-0.8791,-0.8723,-0.8727,-0.8594,-0.8334,-0.8175,-0.7975,-0.7811,-0.7732,-0.7615,-0.7415,-0.7419,-0.7766,-0.8319,-0.9015,-0.9358,-0.9288,-0.9279,-0.9279,-0.9274,-0.9235,-0.9217,-0.9116,-0.9112,-0.9112,-0.9099,-0.9063,-0.9046,-0.9006,-0.9035,-0.9086,-0.9313,-0.9221,-0.9193,-0.917,-0.9073,-0.8788,-0.8955,-1.0891,-1.0965,-1.0635,-0.7275,-0.3652,0.011,0.3866,0.7243,1.0015,1.0897,1.16,1.197,1.2291,1.2479,1.2573,1.2658,1.2617,1.2798,1.283,1.3168,1.3304,1.3558,1.361,1.3662,1.3285,1.2617,1.1693,1.1304,1.1377,1.1444,1.1547,1.1709,1.1898,1.2095,1.2335,1.2596,1.288,1.3146,-1.9762,-1.9762,-1.9754,-1.9762,-1.9754,-1.9726,-1.9726,-1.9726,-1.9726,-1.9733,-1.9769,-1.9762,-1.9762,-1.9762,-1.9769,-1.9754,-1.979,-1.9833,-1.9797,-1.979,-1.9826,-1.9841,-1.9726,-1.945,-1.8893,-1.7958,-1.6705,-1.523,-1.3686,-1.2125,-1.0759,-0.967,-0.907,-0.8667,-0.8337,-0.8091,-0.7923,-0.7788,-0.7657,-0.7574,-0.7543,-0.7457,-0.7328,-0.7064,-0.69,-0.669,-0.6522,-0.6489,-0.6362,-0.6143,-0.6146,-0.6132,-0.6355,-0.7197,-0.771,-0.7837,-0.7758,-0.7721,-0.7672,-0.7586,-0.7538,-0.7452,-0.7358,-0.7272,-0.7183,-0.7038,-0.6912,-0.675,-0.6567,-0.6467,-0.6418,-0.6334,-0.6079,-0.5923,-0.5667,-0.5315,-0.4973,-0.4926,-0.5518,-0.5715,-0.2496,0.0903,0.445,0.7775,1.072,1.2793,1.3666,1.4215,1.4554,1.4828,1.5072,1.5136,1.5169,1.5104,1.5079,1.5014,1.5114,1.5086,1.5238,1.5203,1.5276,1.5358,1.4808,1.3657,1.3096,1.303,1.3149,1.3222,1.3355,1.3494,1.3728,1.3955,1.4158,1.4318,1.4525,-1.9697,-1.9697,-1.9697,-1.9697,-1.9697,-1.9697,-1.9697,-1.9697,-1.9697,-1.9697,-1.9697,-1.9697,-1.9697,-1.9697,-1.9697,-1.9697,-1.9697,-1.9697,-1.9697,-1.9726,-1.9718,-1.9733,-1.9661,-1.9384,-1.8869,-1.794,-1.6592,-1.4949,-1.3314,-1.1578,-1.0145,-0.9039,-0.8263,-0.7769,-0.744,-0.7105,-0.6888,-0.6713,-0.6537,-0.6368,-0.6295,-0.6204,-0.599,-0.5856,-0.5677,-0.5505,-0.5336,-0.5247,-0.5214,-0.5178,-0.4949,-0.4769,-0.4851,-0.5151,-0.5834,-0.6225,-0.6316,-0.6228,-0.618,-0.6089,-0.5998,-0.5823,-0.5658,-0.5481,-0.5257,-0.5021,-0.4761,-0.447,-0.4231,-0.4024,-0.3936,-0.3675,-0.3339,-0.3017,-0.2662,-0.2164,-0.1416,-0.037,-0.0491,-0.0745,0.2326,0.5321,0.7923,1.1091,1.3974,1.5545,1.6308,1.657,1.6694,1.677,1.6732,1.6703,1.653,1.6423,1.6302,1.6279,1.6216,1.6322,1.6395,1.6403,1.6475,1.6353,1.602,1.5307,1.4964,1.4514,1.4651,1.4691,1.4868,1.4972,1.5067,1.5173,1.5506,1.575,1.5778,-1.9697,-1.9697,-1.9697,-1.9697,-1.9697,-1.9697,-1.9697,-1.969,-1.9682,-1.9682,-1.9697,-1.9646,-1.9646,-1.961,-1.9625,-1.9617,-1.9661,-1.9625,-1.9632,-1.9625,-1.9617,-1.9625,-1.9581,-1.9362,-1.8943,-1.8136,-1.6775,-1.49,-1.3092,-1.1278,-0.9683,-0.847,-0.7513,-0.6894,-0.665,-0.6176,-0.5916,-0.5696,-0.543,-0.5262,-0.5094,-0.4925,-0.4751,-0.4661,-0.4524,-0.4343,-0.4168,-0.4079,-0.4176,-0.4142,-0.3963,-0.3644,-0.3556,-0.3471,-0.3823,-0.4565,-0.4824,-0.4863,-0.4815,-0.4728,-0.4637,-0.4374,-0.4077,-0.3854,-0.352,-0.3183,-0.2705,-0.2281,-0.1965,-0.1786,-0.1626,-0.1236,-0.0854,-0.0443,0.0037,0.07,0.1414,0.2435,0.3791,0.4802,0.7295,0.8932,1.0662,1.2737,1.5258,1.6077,1.6826,1.698,1.7144,1.7464,1.7536,1.7606,1.7536,1.7417,1.7267,1.7026,1.6899,1.678,1.6782,1.6738,1.6933,1.7084,1.6592,1.6026,1.5943,1.5559,1.5833,1.5767,1.5417,1.5391,1.5954,1.6102,1.5871,1.6152,1.645,-1.9697,-1.9697,-1.9697,-1.9697,-1.9697,-1.969,-1.969,-1.9682,-1.9624,-1.9595,-1.9603,-1.9501,-1.9428,-1.9398,-1.9362,-1.9369,-1.9413,-1.9369,-1.9376,-1.9406,-1.9442,-1.945,-1.945,-1.9369,-1.895,-1.8245,-1.7119,-1.5269,-1.3284,-1.1291,-0.9446,-0.8101,-0.7076,-0.6346,-0.5827,-0.5313,-0.4925,-0.4703,-0.4437,-0.413,-0.3959,-0.3829,-0.3651,-0.352,-0.3432,-0.3295,-0.3115,-0.3073,-0.3123,-0.3222,-0.2998,-0.2771,-0.2591,-0.25,-0.25,-0.2854,-0.3295,-0.3734,-0.3642,-0.3554,-0.338,-0.3114,-0.2808,-0.2498,-0.203,-0.1496,-0.096,-0.0541,-0.0154,0.0182,0.0431,0.0907,0.14,0.1837,0.2226,0.2853,0.3648,0.4207,0.5655,0.6792,0.8132,1.0141,1.2056,1.4161,1.6145,1.6734,1.7195,1.725,1.7449,1.7646,1.7817,1.7767,1.7715,1.7615,1.7585,1.7454,1.7303,1.7132,1.7067,1.7004,1.712,1.7138,1.6715,1.6284,1.6238,1.5919,1.553,1.5365,1.54,1.5666,1.6043,1.5969,1.5722,1.6226,1.6838,-1.9581,-1.9697,-1.9697,-1.9697,-1.9697,-1.9661,-1.964,-1.9596,-1.9501,-1.9435,-1.942,-1.9294,-1.9205,-1.9101,-1.9101,-1.9071,-1.9056,-1.9056,-1.9101,-1.9146,-1.9183,-1.9228,-1.9228,-1.9176,-1.8905,-1.8337,-1.7417,-1.6007,-1.383,-1.1644,-0.9632,-0.7985,-0.6704,-0.5698,-0.5135,-0.4484,-0.4091,-0.3783,-0.3429,-0.3121,-0.2901,-0.2811,-0.2678,-0.2545,-0.25,-0.2366,-0.2189,-0.2056,-0.2101,-0.2104,-0.1925,-0.1655,-0.1565,-0.1521,-0.161,-0.1654,-0.1965,-0.2274,-0.2539,-0.2451,-0.2275,-0.1966,-0.1609,-0.1116,-0.0573,0.0042,0.0563,0.0881,0.1284,0.1637,0.1999,0.2423,0.2894,0.3364,0.3881,0.4448,0.511,0.5964,0.6867,0.7906,0.8899,1.0566,1.2027,1.3282,1.4632,1.528,1.5924,1.6376,1.6815,1.7351,1.7499,1.7607,1.7561,1.7514,1.753,1.7491,1.7378,1.7236,1.7179,1.7143,1.7144,1.7014,1.6527,1.6253,1.6122,1.5695,1.5142,1.5363,1.573,1.5922,1.6078,1.5933,1.5813,1.6244,1.675,-1.9317,-1.9457,-1.9537,-1.9537,-1.9545,-1.9494,-1.9457,-1.9376,-1.9199,-1.9139,-1.9085,-1.8917,-1.8795,-1.8721,-1.8637,-1.8592,-1.8637,-1.8637,-1.8676,-1.876,-1.8843,-1.8882,-1.8874,-1.8867,-1.8784,-1.8514,-1.772,-1.6386,-1.4545,-1.2351,-1.0131,-0.8103,-0.6437,-0.5412,-0.4618,-0.3873,-0.3255,-0.2722,-0.2413,-0.2191,-0.2013,-0.1923,-0.1787,-0.1697,-0.1652,-0.1564,-0.1343,-0.1209,-0.1164,-0.1119,-0.1074,-0.0895,-0.0671,-0.0806,-0.0896,-0.0897,-0.0985,-0.103,-0.1341,-0.143,-0.1295,-0.0984,-0.0447,0.0134,0.084,0.1406,0.1796,0.2073,0.2391,0.2775,0.3184,0.3542,0.3988,0.4503,0.5055,0.5643,0.6194,0.6815,0.7482,0.833,0.9148,0.99,1.1164,1.2013,1.2913,1.3701,1.4481,1.5348,1.5999,1.6637,1.6706,1.6708,1.6682,1.6654,1.6741,1.6875,1.6987,1.7105,1.7035,1.6879,1.6626,1.6486,1.6157,1.5986,1.5902,1.5597,1.5132,1.564,1.6068,1.5775,1.5587,1.5869,1.6035,1.6369,1.6682,-1.8912,-1.8867,-1.9064,-1.9139,-1.9139,-1.9146,-1.9064,-1.8936,-1.8717,-1.8609,-1.8507,-1.8347,-1.8275,-1.8182,-1.8082,-1.8049,-1.8235,-1.8009,-1.8088,-1.8182,-1.8282,-1.8333,-1.8404,-1.8475,-1.8514,-1.8266,-1.768,-1.668,-1.5191,-1.3007,-1.0579,-0.8195,-0.6443,-0.5368,-0.4318,-0.3301,-0.2368,-0.1834,-0.1522,-0.1343,-0.1253,-0.1119,-0.1029,-0.085,-0.0805,-0.0716,-0.0537,-0.0492,-0.0403,-0.0358,-0.0358,-0.0313,-0.0134,-0.0179,-0.0269,-0.0179,-0.009,-0.009,-0.0179,-0.0492,-0.0492,0.0,0.0626,0.1295,0.1821,0.2189,0.264,0.3053,0.332,0.3643,0.4086,0.4549,0.4928,0.5369,0.5848,0.6332,0.6871,0.737,0.8039,0.8745,0.9413,1.0059,1.0609,1.1512,1.227,1.3093,1.3825,1.4676,1.4973,1.5478,1.5509,1.5513,1.5498,1.5504,1.5533,1.5722,1.6072,1.6147,1.6104,1.5909,1.5676,1.5584,1.5782,1.5637,1.5531,1.5323,1.5211,1.5472,1.5522,1.5165,1.511,1.547,1.5668,1.5828,1.6317,-1.8226,-1.818,-1.8147,-1.8422,-1.8912,-1.8784,-1.87,-1.8592,-1.8259,-1.8021,-1.7868,-1.7808,-1.7733,-1.7693,-1.7652,-1.7564,-1.7611,-1.7611,-1.7645,-1.7686,-1.7727,-1.7801,-1.7955,-1.8075,-1.8114,-1.8082,-1.7605,-1.6893,-1.5744,-1.3533,-1.1334,-0.9032,-0.6751,-0.5077,-0.391,-0.2549,-0.1565,-0.1075,-0.0762,-0.0583,-0.0448,-0.0314,-0.0224,-0.0045,0.0,0.0045,0.0134,0.0134,0.0224,0.0314,0.0269,0.0359,0.0403,0.0359,0.0404,0.0449,0.0583,0.0718,0.0762,0.0493,0.0448,0.1074,0.17,0.2234,0.2669,0.3073,0.3416,0.3819,0.4121,0.4378,0.473,0.5194,0.5637,0.6075,0.6504,0.6983,0.7427,0.7893,0.8349,0.8937,0.9449,0.9995,1.0514,1.1094,1.1829,1.2568,1.3283,1.393,1.4295,1.4626,1.4803,1.4968,1.5012,1.5105,1.5179,1.5233,1.5282,1.5298,1.5312,1.5326,1.533,1.5387,1.5512,1.5352,1.5316,1.5312,1.5282,1.52,1.5142,1.5098,1.5087,1.5181,1.5293,1.5395,1.5809,-1.7666,-1.7598,-1.7482,-1.7794,-1.8344,-1.8266,-1.8187,-1.8101,-1.7801,-1.7523,-1.731,-1.7323,-1.7269,-1.7234,-1.7199,-1.7205,-1.717,-1.7164,-1.7205,-1.7288,-1.7323,-1.7393,-1.7468,-1.7591,-1.7727,-1.7808,-1.7455,-1.6786,-1.5885,-1.3876,-1.177,-0.9546,-0.7294,-0.5325,-0.3235,-0.1658,-0.0672,-0.0359,-0.0134,0.009,0.0268,0.0358,0.0494,0.0627,0.0671,0.0671,0.0761,0.0761,0.0806,0.0852,0.0853,0.0853,0.0898,0.0943,0.0987,0.1075,0.1164,0.1299,0.1344,0.1344,0.1389,0.188,0.2414,0.2946,0.3399,0.3812,0.416,0.4395,0.4693,0.5012,0.525,0.5665,0.611,0.6513,0.6876,0.7324,0.7729,0.8166,0.8595,0.9075,0.952,0.9912,1.0447,1.1001,1.1752,1.2427,1.3048,1.3626,1.3966,1.4283,1.4541,1.471,1.4832,1.494,1.506,1.5135,1.5204,1.5257,1.5286,1.5337,1.5355,1.5386,1.5408,1.538,1.5381,1.54,1.536,1.5288,1.5268,1.5265,1.5238,1.5204,1.5266,1.5389,1.5333,-1.7317,-1.7247,-1.7199,-1.7317,-1.755,-1.755,-1.7523,-1.7468,-1.7323,-1.7115,-1.6947,-1.6905,-1.6911,-1.6911,-1.6827,-1.6833,-1.6882,-1.6797,-1.684,-1.6918,-1.6954,-1.6947,-1.7073,-1.7199,-1.7323,-1.731,-1.7089,-1.6606,-1.582,-1.4251,-1.2224,-0.9886,-0.7536,-0.5067,-0.2924,-0.0999,0.0045,0.0315,0.0448,0.0627,0.0806,0.0895,0.103,0.121,0.1254,0.1299,0.1344,0.1344,0.1344,0.139,0.1256,0.13,0.1391,0.1391,0.1479,0.1567,0.1702,0.1837,0.1972,0.1974,0.2195,0.2506,0.304,0.3524,0.4014,0.4411,0.474,0.4989,0.5236,0.5459,0.5727,0.6037,0.6456,0.685,0.7214,0.7598,0.7976,0.8313,0.8712,0.9081,0.9426,0.9782,1.0373,1.0987,1.1731,1.2384,1.2913,1.3336,1.3659,1.3956,1.4237,1.4469,1.4622,1.4765,1.4893,1.5033,1.5118,1.5178,1.5231,1.5274,1.5322,1.5346,1.5368,1.5397,1.5387,1.5371,1.5371,1.5373,1.5339,1.5302,1.5312,1.5303,1.5354,1.5377,1.5339,-1.6931,-1.6876,-1.6778,-1.6772,-1.6856,-1.7115,-1.7157,-1.7122,-1.6954,-1.6791,-1.6656,-1.6656,-1.6656,-1.6614,-1.662,-1.662,-1.662,-1.6614,-1.6607,-1.6663,-1.6656,-1.6712,-1.6797,-1.6876,-1.6954,-1.7031,-1.6863,-1.6601,-1.6082,-1.4567,-1.2857,-1.0598,-0.7105,-0.4077,-0.2144,-0.0594,0.0179,0.0672,0.0896,0.1164,0.1344,0.1479,0.1569,0.1749,0.1793,0.1838,0.1839,0.1839,0.1839,0.1838,0.1703,0.1748,0.1838,0.1883,0.1971,0.2103,0.2191,0.246,0.2683,0.2862,0.2951,0.3219,0.3529,0.401,0.4424,0.4959,0.5295,0.5561,0.5795,0.5974,0.6245,0.6352,0.6668,0.7009,0.7367,0.7749,0.8096,0.8398,0.8734,0.9075,0.9405,0.9912,1.046,1.089,1.1571,1.2084,1.2567,1.3009,1.3369,1.3672,1.395,1.4206,1.4395,1.4566,1.4719,1.4872,1.4992,1.506,1.5126,1.5178,1.5221,1.5281,1.5307,1.5328,1.5326,1.5323,1.5316,1.532,1.5333,1.5319,1.5298,1.532,1.5371,1.539,1.539,-1.662,-1.662,-1.6515,-1.6528,-1.6522,-1.6735,-1.682,-1.6778,-1.6699,-1.6571,-1.6522,-1.6528,-1.6528,-1.6528,-1.6528,-1.6528,-1.6528,-1.6522,-1.6522,-1.6528,-1.6528,-1.6577,-1.6626,-1.6626,-1.6693,-1.6784,-1.6699,-1.6442,-1.5963,-1.4829,-1.2719,-0.9753,-0.6473,-0.3904,-0.1867,-0.0523,0.0459,0.0961,0.1321,0.1614,0.1792,0.1882,0.2015,0.215,0.2194,0.224,0.2241,0.2242,0.2242,0.2196,0.2195,0.2195,0.2286,0.2465,0.2508,0.2593,0.2769,0.2993,0.3263,0.353,0.3619,0.3794,0.4102,0.4449,0.484,0.5343,0.5714,0.6006,0.6288,0.6534,0.6693,0.6775,0.6974,0.7337,0.7541,0.7901,0.816,0.8469,0.8734,0.9075,0.9432,0.9963,1.0492,1.0897,1.1377,1.1775,1.2195,1.2641,1.3079,1.3395,1.3698,1.3949,1.4211,1.4404,1.4575,1.4728,1.4847,1.4946,1.5012,1.5089,1.5157,1.5215,1.5236,1.5251,1.526,1.526,1.5241,1.5241,1.5226,1.5231,1.5231,1.5277,1.5367,1.5376,1.5371,-1.6528,-1.6528,-1.6528,-1.6528,-1.6528,-1.6528,-1.6528,-1.6515,-1.6515,-1.6515,-1.6528,-1.6528,-1.6528,-1.6528,-1.6528,-1.6528,-1.6528,-1.6528,-1.6528,-1.6528,-1.6528,-1.6528,-1.6528,-1.6534,-1.6571,-1.6528,-1.6485,-1.6312,-1.5786,-1.4584,-1.2184,-0.9154,-0.6478,-0.3992,-0.2109,-0.0499,0.0579,0.1236,0.1777,0.2025,0.2194,0.2307,0.2389,0.2471,0.2551,0.2595,0.2597,0.2595,0.2551,0.255,0.2504,0.2594,0.2775,0.3047,0.3086,0.3127,0.326,0.344,0.3663,0.393,0.4196,0.4368,0.4578,0.4888,0.5239,0.5666,0.6073,0.6382,0.6649,0.693,0.7176,0.7316,0.7436,0.7612,0.7755,0.801,0.8267,0.8501,0.8762,0.9075,0.9405,0.9866,1.0368,1.0801,1.1185,1.1556,1.194,1.2324,1.2762,1.3184,1.3476,1.375,1.4005,1.425,1.4428,1.4595,1.4728,1.483,1.4933,1.5011,1.508,1.5146,1.5168,1.518,1.5199,1.5189,1.5158,1.5127,1.5114,1.512,1.5128,1.5173,1.5237,1.5289,1.5297,-1.6528,-1.6528,-1.6528,-1.6528,-1.6528,-1.6528,-1.6528,-1.6528,-1.6528,-1.6528,-1.6528,-1.6528,-1.6528,-1.6528,-1.6528,-1.6528,-1.6528,-1.6528,-1.6528,-1.6528,-1.6479,-1.6528,-1.6485,-1.6479,-1.6485,-1.6485,-1.6399,-1.6225,-1.5674,-1.4481,-1.2203,-0.9285,-0.6822,-0.4533,-0.2467,-0.0631,0.0511,0.1494,0.2053,0.239,0.2587,0.2709,0.2769,0.2825,0.2943,0.2988,0.2986,0.2981,0.2978,0.2967,0.2866,0.2861,0.3083,0.3311,0.3444,0.3442,0.353,0.3707,0.4056,0.428,0.4504,0.4808,0.506,0.5229,0.5539,0.5964,0.6395,0.6696,0.7012,0.7305,0.7575,0.7782,0.7948,0.8123,0.8228,0.8361,0.8602,0.8784,0.9038,0.9301,0.9629,0.9915,1.0383,1.0639,1.1022,1.1362,1.1711,1.2086,1.2463,1.2901,1.3295,1.3565,1.3833,1.4096,1.4279,1.4453,1.4586,1.4709,1.4822,1.4928,1.5019,1.5064,1.5095,1.5099,1.5106,1.5083,1.5043,1.5018,1.4996,1.5008,1.5021,1.5072,1.5126,1.516,1.5197,-1.6528,-1.6479,-1.6472,-1.6436,-1.6392,-1.6399,-1.6349,-1.6349,-1.6429,-1.6528,-1.6528,-1.6528,-1.6528,-1.6528,-1.6528,-1.6528,-1.6528,-1.6528,-1.6528,-1.6485,-1.6429,-1.6485,-1.6442,-1.6343,-1.63,-1.6256,-1.6182,-1.6013,-1.5445,-1.3955,-1.1796,-0.9694,-0.7381,-0.5097,-0.2907,-0.0979,0.0538,0.1468,0.2201,0.2644,0.2896,0.3061,0.3108,0.3204,0.3321,0.3367,0.3413,0.3365,0.337,0.3328,0.3189,0.3187,0.3407,0.3664,0.3703,0.3693,0.3838,0.4012,0.423,0.4541,0.4808,0.5113,0.5455,0.5712,0.5967,0.631,0.6683,0.7054,0.7351,0.7664,0.797,0.8253,0.8453,0.8674,0.8737,0.8773,0.8978,0.9152,0.9368,0.9635,0.9882,1.0131,1.0411,1.0614,1.0856,1.1201,1.1541,1.1876,1.2276,1.2679,1.3079,1.3404,1.3691,1.3952,1.4118,1.4311,1.4476,1.4616,1.4728,1.4831,1.493,1.4979,1.4994,1.5002,1.5002,1.4976,1.4935,1.4911,1.4894,1.4895,1.485,1.4865,1.491,1.4988,1.5026,-1.6528,-1.6479,-1.6436,-1.6318,-1.6188,-1.6144,-1.6057,-1.5994,-1.6262,-1.6423,-1.6392,-1.6436,-1.6399,-1.6349,-1.6349,-1.6349,-1.6349,-1.6355,-1.6312,-1.6442,-1.6312,-1.6269,-1.6175,-1.6126,-1.5994,-1.5913,-1.578,-1.5552,-1.4988,-1.3737,-1.2069,-1.0121,-0.797,-0.5746,-0.3477,-0.1385,0.0165,0.1366,0.2169,0.2772,0.3149,0.3385,0.3534,0.3658,0.37,0.3701,0.3706,0.3716,0.3728,0.3621,0.3562,0.3491,0.3843,0.3928,0.3888,0.4013,0.4178,0.4361,0.4578,0.4881,0.5099,0.5392,0.5763,0.6062,0.6358,0.6565,0.6901,0.7241,0.7546,0.7968,0.8309,0.8609,0.8878,0.911,0.9244,0.9376,0.9571,0.9777,1.0028,1.025,1.0444,1.0668,1.0567,1.0779,1.0895,1.116,1.1384,1.1711,1.2058,1.2467,1.2855,1.3218,1.3527,1.3791,1.4028,1.4219,1.4389,1.4519,1.4637,1.4738,1.4822,1.4867,1.4902,1.4902,1.4894,1.4859,1.4832,1.4813,1.4765,1.4707,1.4677,1.4648,1.4699,1.4775,1.4828,-1.6528,-1.6485,-1.6318,-1.6106,-1.5881,-1.5774,-1.5686,-1.5597,-1.5686,-1.5818,-1.5919,-1.5963,-1.6007,-1.6001,-1.6001,-1.6001,-1.6001,-1.6044,-1.5969,-1.5963,-1.5963,-1.5907,-1.5812,-1.568,-1.5641,-1.5558,-1.5373,-1.4954,-1.4438,-1.3432,-1.2292,-1.055,-0.8505,-0.6391,-0.4194,-0.2107,-0.0334,0.1059,0.2032,0.2773,0.3257,0.3547,0.374,0.3826,0.3838,0.3956,0.3954,0.3944,0.3931,0.387,0.3868,0.412,0.4576,0.4337,0.4344,0.4542,0.4637,0.4805,0.5013,0.5293,0.5523,0.5711,0.6013,0.6328,0.6608,0.6813,0.7105,0.7447,0.7821,0.8267,0.8655,0.8975,0.9289,0.9521,0.9798,0.9985,1.0235,1.0471,1.072,1.0861,1.1082,1.1044,1.0932,1.0919,1.0998,1.1138,1.1295,1.1564,1.1862,1.2223,1.2641,1.3008,1.3354,1.3646,1.3886,1.411,1.427,1.4425,1.455,1.4648,1.4728,1.4776,1.4822,1.4804,1.4785,1.4747,1.4707,1.4684,1.4632,1.4549,1.4485,1.4444,1.4464,1.4524,1.4586,-1.6442,-1.6436,-1.6088,-1.573,-1.5412,-1.5316,-1.5187,-1.5011,-1.5011,-1.5011,-1.5091,-1.5424,-1.5659,-1.5653,-1.5653,-1.5603,-1.5603,-1.5691,-1.5697,-1.5653,-1.5513,-1.5463,-1.5367,-1.5187,-1.5051,-1.492,-1.4645,-1.4274,-1.3894,-1.3246,-1.219,-1.0872,-0.904,-0.7142,-0.4948,-0.2877,-0.0946,0.0559,0.1734,0.2599,0.3254,0.3621,0.3989,0.4066,0.4157,0.4206,0.4216,0.4216,0.4217,0.4271,0.4287,0.433,0.463,0.4584,0.4682,0.482,0.502,0.5202,0.5457,0.5731,0.6012,0.6217,0.6475,0.6846,0.7088,0.7284,0.7454,0.7784,0.8148,0.8594,0.8967,0.927,0.9573,0.9829,1.0185,1.0515,1.0931,1.1323,1.1429,1.1477,1.1584,1.1578,1.15,1.149,1.1515,1.1433,1.1566,1.1588,1.1852,1.2088,1.2487,1.2799,1.3148,1.3487,1.3767,1.3977,1.4154,1.4307,1.446,1.4583,1.4678,1.4718,1.4747,1.4727,1.4687,1.4626,1.4591,1.4545,1.4464,1.4375,1.4307,1.4261,1.43,1.4464,1.4756,-1.6386,-1.6175,-1.5718,-1.5226,-1.4858,-1.4772,-1.4599,-1.4373,-1.4274,-1.4176,-1.4118,-1.4869,-1.5238,-1.5283,-1.5328,-1.5328,-1.5283,-1.5091,-1.5181,-1.5175,-1.5006,-1.4863,-1.4726,-1.4553,-1.4414,-1.4228,-1.3994,-1.3758,-1.352,-1.3025,-1.2321,-1.1153,-0.9581,-0.7849,-0.5759,-0.37,-0.1721,-0.0167,0.1173,0.2292,0.3015,0.3634,0.4055,0.4336,0.4462,0.4462,0.4458,0.4512,0.4508,0.4496,0.4576,0.4681,0.4786,0.4848,0.5046,0.5189,0.5422,0.5624,0.5841,0.6265,0.6525,0.6785,0.7047,0.7299,0.7554,0.7762,0.7935,0.8229,0.8594,0.8846,0.9181,0.9541,0.9848,1.023,1.0624,1.0977,1.1487,1.1966,1.2036,1.2046,1.2062,1.2063,1.2063,1.2038,1.1994,1.1899,1.1871,1.1894,1.1968,1.2186,1.2499,1.2696,1.2944,1.3261,1.362,1.3856,1.4064,1.4206,1.4356,1.4508,1.4626,1.4666,1.4666,1.4655,1.4602,1.46,1.4476,1.4399,1.4301,1.4324,1.4445,1.4506,1.4568,1.4789,1.5205,-1.6248,-1.5484,-1.5175,-1.4777,-1.4357,-1.4186,-1.3999,-1.3758,-1.3763,-1.3705,-1.3705,-1.38,-1.4077,-1.4305,-1.4299,-1.4346,-1.4485,-1.4392,-1.4302,-1.4228,-1.4335,-1.4206,-1.4071,-1.3999,-1.381,-1.3615,-1.352,-1.3382,-1.3248,-1.2958,-1.2515,-1.1656,-1.0446,-0.8746,-0.6876,-0.4772,-0.2712,-0.1,0.067,0.19,0.2906,0.352,0.4024,0.4244,0.4408,0.4463,0.4462,0.4462,0.4462,0.4519,0.4629,0.4824,0.5019,0.5153,0.5325,0.5606,0.5903,0.6159,0.6406,0.6774,0.7088,0.7273,0.7513,0.7879,0.8095,0.8282,0.849,0.882,0.9035,0.9039,0.9323,0.9704,1.0049,1.0582,1.1024,1.1388,1.1825,1.2157,1.2371,1.2473,1.2608,1.2562,1.252,1.2503,1.2481,1.2454,1.2464,1.2467,1.2289,1.2422,1.2591,1.2754,1.2948,1.3096,1.347,1.3757,1.3955,1.411,1.4261,1.4407,1.4528,1.4591,1.4618,1.4809,1.4731,1.4669,1.4523,1.4755,1.4491,1.4567,1.4772,1.4865,1.4917,1.5184,1.567]},{"header":{"parameterUnit":"m.s-1","parameterCategory":1,"la1":31.0,"la2":29.5877,"lo1":-88.7671,"lo2":-86.6584,"dx":0.0162,"dy":0.0185,"nx":115,"ny":88,"refTime":"2022-12-07T06:00:00:Z","depth":0,"parameterNumber":3,"parameterNumberName":"V-component_of_WINDS"},"data":[0.0,0.0,0.0,0.0,0.0,0.0,0.0,0.0,0.0,0.0,0.0,0.0,0.0,0.0,0.0,0.0,0.0,0.0,0.0,0.0,0.0,0.0,0.0,0.0,0.0,0.0,0.0,0.0,0.0,0.0,0.0,0.0,0.0,0.0,0.0,0.0,0.0,0.0,0.0,0.0,0.0,0.0,0.0,0.0,0.0,0.0,0.0,0.0,0.0,0.0,0.0,0.0,0.0,0.0,0.0,0.0,0.0,0.0,0.0,0.0,0.0,0.0,0.0,0.0,0.0,0.0,0.0,0.0,0.0,0.0,0.0,0.0,0.0,0.0,0.0,0.0,0.0,0.0,0.0,0.0,0.0,0.0,0.0,0.0,0.0,0.0,0.0,0.0,0.0,0.0,0.0,0.0,0.0,0.0,0.0,0.0,0.0,0.0,0.0,0.0,0.0,0.0,0.0,0.0,0.0,0.0,0.0,0.0,0.0,0.0,0.0,0.0,0.0,0.0,0.0,0.0,0.0,0.0,0.0,0.0,0.0,0.0,0.0,0.0,0.0,0.0,0.0,0.0,0.0,0.0,0.0,0.0,0.0,0.0,0.0,0.0,0.0,0.0,0.0,0.0,0.0,0.0,0.0,0.0,0.0,0.0,0.0,0.0,0.0,0.0,0.0,0.0,0.0,0.0,0.0,0.0,0.0,0.0,0.0,0.0,0.0,0.0,0.0,0.0,0.0,0.0,0.0,0.0,0.0,0.0,0.0,0.0,0.0,0.0,0.0,0.0,0.0,0.0,0.0,0.0,0.0,0.0,0.0,0.0,0.0,0.0,0.0,0.0,0.0,0.0,0.0,0.0,0.0,0.0,0.0,0.0,0.0,0.0,0.0,0.0,0.0,0.0,0.0,0.0,0.0,0.0,0.0,0.0,0.0,0.0,0.0,0.0,0.0,0.0,0.0,0.0,0.0,0.0,0.0,0.0,0.0,0.0,0.0,0.0,0.0,0.0,0.0,0.0,0.0,0.0,0.0,0.0,0.0,0.0,0.0,0.0,0.0,0.0,0.0,0.0,0.0,0.0,0.0,0.0,0.0,0.0,0.0,0.0,0.0,0.0,0.0,0.0,0.0,0.0,0.0,0.0,0.0,0.0,0.0,0.0,0.0,0.0,0.0,0.0,0.0,0.0,0.0,0.0,0.0,0.0,0.0,0.0,0.0,0.0,0.0,0.0,0.0,0.0,0.0,0.0,0.0,0.0,0.0,0.0,0.0,0.0,0.0,0.0,0.0,0.0,0.0,0.0,0.0,0.0,0.0,0.0,0.0,0.0,0.0,0.0,0.0,0.0,0.0,0.0,0.0,0.0,0.0,0.0,0.0,0.0,0.0,0.0,0.0,0.0,0.0,0.0,0.0,0.0,0.0,0.0,0.0,0.0,0.0,0.0,0.0,0.0,0.0,0.0,0.0,0.0,0.0,0.0,0.0,0.0,0.0,0.0,0.0,0.0,0.0,0.0,0.0,0.0,0.0,0.0,0.0,0.0,0.0,0.0,0.0,0.0,0.0,0.0,0.0,0.0,0.0,0.0,0.0,0.0,0.0,0.0,0.0,0.0,0.0,0.0,0.0,0.0,0.0,0.0,0.0,0.0,0.0,0.0,0.0,0.0,0.0,0.0,0.0,0.0,0.0,0.0,0.0,0.0,0.0,0.0,0.0,0.0,0.0,0.0,0.0,0.0,0.0,0.0,0.0,0.0,0.0,0.0,0.0,0.0,0.0,0.0,0.0,0.0,0.0,0.0,0.0,0.0,0.0,0.0,0.0,0.0,0.0,0.0,0.0,0.0,0.0,0.0,0.0,0.0,0.0,0.0,0.0,0.0,0.0,0.0,0.0,0.0,0.0,0.0,0.0,0.0,0.0,0.0,0.0,0.0,0.0,0.0,0.0,0.0,0.0,0.0,0.0,0.0,0.0,0.0,0.0,0.0,0.0,0.0,0.0,0.0,0.0,0.0,0.0,0.0,0.0,0.0,0.0,0.0,0.0,0.0,0.0,0.0,0.0,0.0,0.0,0.0,0.0,0.0,0.0,0.0,0.0,0.0,0.0,0.0,0.0,0.0,0.0,0.0,0.0,0.0,0.0,0.0,0.0,0.0,0.0,0.0,0.0,0.0,0.0,0.0,0.0,0.0,0.0,0.0,0.0,0.0,0.0,0.0,0.0,0.0,0.0,0.0,0.0,0.0,0.0,0.0,0.0,0.0,0.0,0.0,0.0,0.0,0.0,0.0,0.0,0.0,0.0,0.0,0.0,0.0,0.0,0.0,0.0,0.0,0.0,0.0,0.0,0.0,0.0,0.0,0.0,0.0,0.0,0.0,0.0,0.0,0.0,0.0,0.0,0.0,0.0,0.0,0.0,0.0,0.0,0.0,0.0,0.0,0.0,0.0,0.0,0.0,0.0,0.0,0.0,0.0,0.0,0.0,0.0,0.0,0.0,0.0,0.0,0.0,0.0,0.0,0.0,0.0,0.0,0.0,0.0,0.0,0.0,0.0,0.0,0.0,0.0,0.0,0.0,0.0,0.0,0.0,0.0,0.0,0.0,0.0,0.0,0.0,0.0,0.0,0.0,0.0,0.0,0.0,0.0,0.0,0.0,0.0,0.0,0.0,0.0,0.0,0.0,0.0,0.0,0.0,0.0,0.0,0.0,0.0,0.0,0.0,0.0,0.0,0.0,0.0,0.0,0.0,0.0,0.0,0.0,0.0,0.0,0.0,0.0,0.0,0.0,0.0,0.0,0.0,0.0,0.0,0.0,0.0,0.0,0.0,0.0,0.0,0.0,0.0,0.0,0.0,0.0,0.0,0.0,0.0,0.0,0.0,0.0,0.0,0.0,0.0,0.0,0.0,0.0,0.0,0.0,0.0,0.0,0.0,0.0,0.0,0.0,0.0,0.0,0.0,0.0,0.0,0.0,0.0,0.0,0.0,0.0,0.0,0.0,0.0,0.0,0.0,0.0,0.0,0.0,0.0,0.0,0.0,0.0,0.0,0.0,0.0,0.0,0.0,0.0,0.0,0.0,0.0,0.0,0.0,0.0,0.0,0.0,0.0,0.0,0.0,0.0,0.0,0.0,0.0,0.0,0.0,0.0,0.0,0.0,0.0,0.0,0.0,0.0,0.0,0.0,0.0,0.0,0.0,0.0,0.0,0.0,0.0,0.0,0.0,0.0,0.0,0.0,0.0,0.0,0.0,0.0,0.0,0.0,0.0,0.0,0.0,0.0,0.0,0.0,0.0,0.0,0.0,0.0,0.0,0.0,0.0,0.0,0.0,0.0,0.0,0.0,0.0,0.0,0.0,0.0,0.0,0.0,0.0,0.0,0.0,0.0,0.0,0.0,0.0,0.0,0.0,0.0,0.0,0.0,0.0,0.0,0.0,0.0,0.0,0.0,0.0,0.0,0.0,0.0,0.0,0.0,0.0,0.0,0.0,0.0,0.0,0.0,0.0,0.0,0.0,0.0,0.0,0.0,0.0,0.0,0.0,0.0,0.0,0.0,0.0,0.0,0.0,0.0,0.0,0.0,0.0,0.0,0.0,0.0,0.0,0.0,0.0,0.0,0.0,0.0,0.0,0.0,0.0,0.0,0.0,0.0,0.0,0.0,0.0,0.0,0.0,0.0,0.0,0.0,0.0,0.0,0.0,0.0,0.0,0.0,0.0,0.0,0.0,0.0,0.0,0.0,0.0,0.0,0.0,0.0,0.0,0.0,0.0,0.0,0.0,0.0,0.0,0.0,0.0,0.0,0.0,0.0,0.0,0.0,0.0,0.0,0.0,0.0,0.0,0.0,0.0,0.0,0.0,0.0,0.0,0.0,0.0,0.0,0.0,0.0,0.0,0.0,0.0,0.0,0.0,0.0,0.0,0.0,0.0,0.0,0.0,0.0,0.0,0.0,0.0,0.0,0.0,0.0,0.0,0.0,0.0,0.0,0.0,0.0,0.0,0.0,0.0,0.0,0.0,0.0,0.0,0.0,0.0,0.0,0.0,0.0,0.0,0.0,0.0,0.0,0.0,0.0,0.0,0.0,0.0,0.0,0.0,0.0,0.0,0.0,0.0,0.0,0.0,0.0,0.0,0.0,0.0,0.0,0.0,0.0,0.0,0.0,0.0,0.0,0.0,0.0,0.0,0.0,0.0,0.0,0.0,0.0,0.0,0.0,0.0,0.0,0.0,0.0,0.0,0.0,0.0,0.0,0.0,0.0,0.0,-0.0367,0.0,0.0,0.0,-0.1179,0.0,0.0,0.0,0.0,0.0,0.0,0.0,0.0,0.0,0.0,0.0,0.0,0.0,0.0,0.0,0.0,0.0,0.0,0.0,0.0,0.0,0.0,0.0,0.0,0.0,0.0,0.0,0.0,0.0,0.0,0.0,0.0,0.0,0.0,0.0,0.0,0.0,0.0,0.0,0.0,0.0,0.0,0.0,0.0,0.0,0.0,0.0,0.0,0.0,0.0,0.0,0.0,0.0,0.0,0.0,0.0,0.0,0.0,0.0,0.0,0.0,0.0,0.0,0.0,0.0,0.0,0.0,0.0,0.0,0.0,0.0,0.0,0.0,0.0,0.0,0.0,0.0,0.0,0.0,0.0,0.0,0.0,0.0,0.0,0.0,0.0,0.0,0.0,0.0,0.0,0.0,0.0,0.0,0.0,0.0,0.0,0.0,0.0,0.0,0.0,0.0,0.0,0.0,0.0,0.0,0.0,0.0,0.0,0.0,0.0,-0.0395,-0.0489,-0.0749,-0.0976,-0.1212,0.0,0.0,0.0,0.0,0.0,0.0,0.0,0.0,0.0,0.0,0.0,0.0,0.0,0.0,0.0,0.0,0.0,0.0,0.0,0.0,0.0,0.0,0.0,0.0,0.0,0.0,0.0,0.0,0.0,0.0,0.0,0.0,0.0,0.0,0.0,0.0,0.0,0.0,0.0,0.0,0.0,0.0,0.0,0.0,0.0,0.0,0.0,0.0,0.0,0.0,0.0,0.0,0.0,0.0,0.0,0.0,0.0,0.0,0.0,0.0,0.0,0.0,0.0,0.0,0.0,0.0,0.0,0.0,0.0,0.0,0.0,0.0,0.0,0.0,0.0,0.0,0.0,0.0,0.0,0.0,0.0,0.0,0.0,0.0,0.0,0.0,0.0,0.0,0.0,0.0,0.0,0.0,0.0,0.0,0.0,0.0,0.0,0.0,0.0,0.0,0.0,0.0,0.0,0.0,0.0,0.0,0.0,0.0,0.0,0.0,0.0,0.0,-0.0841,-0.1076,-0.1346,0.0,0.0,0.0,0.0,0.0,0.0,0.0,0.0,0.0,0.0,0.0,0.0,0.0,0.0,0.0,0.0,0.0,0.0,0.0,0.0,0.0,0.0,0.0,0.0,0.0,0.0,0.0,0.0,0.0,0.0,0.0,0.0,0.0,0.0,0.0,0.0,0.0,0.0,0.0,0.0,0.0,0.0,0.0,0.0,0.0,0.0,0.0,0.0,0.0,0.0,0.0,0.0,0.0,0.0,0.0,0.0,0.0,0.0,0.0,0.0,0.0,0.0,0.0,0.0,0.0,0.0,0.0,0.0,0.0,0.0,0.0,0.0,0.0,0.0,0.0,0.0,0.0,0.0,0.0,0.0,0.0,0.0,0.0,0.0,0.0,0.0,0.0,0.0,0.0,0.0,0.0,0.0,0.0,0.0,0.0,0.0,0.0,0.0,0.0,0.0,0.0,0.0,0.0,0.0,0.0,0.0,0.0,0.0,0.0,0.0,-0.0676,-0.101,-0.1078,0.0,-0.1814,0.0,0.0,0.0,0.0,0.0,0.0,0.0,0.0,0.0,0.0,0.0,0.0,0.0,0.0,0.0,0.0,0.0,0.0,0.0,0.0,0.0,0.0,0.0,0.0,0.0,0.0,0.0,0.0,0.0,0.0,0.0,0.0,0.0,0.0,0.0,0.0,0.0,0.0,0.0,0.0,0.0,0.0,0.0,0.0,0.0,0.0,0.0,0.0,0.0,0.0,0.0,0.0,0.0,0.0,0.0,0.0,0.0,0.0,0.0,0.0,0.0,0.0,0.0,0.0,0.0,0.0,0.0,0.0,0.0,0.0,0.0,0.0,0.0,0.0,0.0,0.0,0.0,0.0,0.0,0.0,0.0,0.0,0.0,0.0,0.0,0.0,0.0,0.0,0.0,0.0,0.0,0.0,0.0,0.0,0.0,0.0,0.0,0.0,0.0,0.0,0.0,0.0,0.0,0.0,0.0,0.0,0.0,0.0,0.0,0.0,-0.0842,-0.1078,-0.1343,-0.1679,0.0,0.0,0.0,0.0,0.0,0.0,0.0,0.0,0.0,0.0,0.0,0.0,0.0,0.0,0.0,0.0,0.0,0.0,0.0,0.0,0.0,0.0,0.0,0.0,0.0,0.0,0.0,0.0,0.0,0.0,0.0,0.0,0.0,0.0,0.0,0.0,0.0,0.0,0.0,0.0,0.0,0.0,0.0,0.0,0.0,0.0,0.0,0.0,0.0,0.0,0.0,0.0,0.0,0.0,0.0,0.0,0.0,0.0,0.0,0.0,0.0,0.0,0.0,0.0,0.0,0.0,0.0,0.0,0.0,0.0,0.0,0.0,0.0,0.0,0.0,0.0,0.0,0.0,0.0,0.0,0.0,0.0,0.0,0.0,0.0,0.0,0.0,0.0,0.0,0.0,0.0,0.0,0.0,0.0,0.0,0.0,0.0,0.0,0.0,0.0,0.0,0.0,0.0,0.0,0.0,0.0,0.0,0.0,0.0,0.0,-0.0943,-0.1109,-0.1345,-0.1678,-0.2013,-0.2349,0.0,0.0,0.0,0.0,0.0,0.0,0.0,0.0,0.0,0.0,0.0,0.0,0.0,0.0,0.0,0.0,0.0,0.0,0.0,0.0,0.0,0.0,0.0,0.0,0.0,0.0,0.0,0.0,0.0,0.0,0.0,0.0,0.0,0.0,0.0,0.0,0.0,0.0,0.0,0.0,0.0,0.0,0.0,0.0,0.0,0.0,0.0,0.0,0.0,0.0,0.0,0.0,0.0,0.0,0.0,0.0,0.0,0.0,0.0,0.0,0.0,0.0,0.0,0.0,0.0,0.0,0.0,0.0,0.0,0.0,0.0,0.0,0.0,0.0,0.0,0.0,0.0,0.0,0.0,0.0,0.0,0.0,0.0,0.0,0.0,0.0,0.0,0.0,0.0,0.0,0.0,0.0,0.0,0.0,0.0,0.0,0.0,0.0,0.0,0.0,0.0,0.0,0.0,0.0,0.0,0.0,0.0,0.0,-0.1111,-0.1213,-0.1481,-0.1847,-0.2149,-0.2352,0.0,0.0,0.0,0.0,0.0,0.0,0.0,0.0,0.0,0.0,0.0,0.0,0.0,0.0,0.0,0.0,0.0,0.0,0.0,0.0,0.0,0.0,0.0,0.0,0.0,0.0,0.0,0.0,0.0,0.0,0.0,0.0,0.0,0.0,0.0,0.0,0.0,0.0,0.0,0.0,0.0,0.0,0.0,0.0,0.0,0.0,0.0,0.0,0.0,0.0,0.0,0.0,0.0,0.0,0.0,0.0,0.0,0.0,0.0,0.0,0.0,0.0,0.0,0.0,0.0,0.0,0.0,0.0,0.0,0.0,0.0,0.0,0.0,0.0,0.0,0.0,0.0,0.0,0.0,0.0,0.0,0.0,0.0,0.0,0.0,0.0,0.0,0.0,0.0,0.0,0.0,0.0,0.0,0.0,0.0,0.0,0.0,0.0,0.0,0.0,0.0,0.0,0.0,0.0,0.0,0.0,0.0,0.0,0.0,-0.1347,-0.1579,-0.1847,-0.215,-0.2417,-0.2646,0.0,0.0,0.0,0.0,0.0,0.0,0.0,0.0,0.0,0.0,0.0,0.0,0.0,0.0,0.0,0.0,0.0,0.0,0.0,0.0,0.0,0.0,0.0,0.0,0.0,0.0,0.0,0.0,0.0,0.0,0.0,0.0,0.0,0.0,0.0,0.0,0.0,0.0,0.0,0.0,0.0,0.0,0.0,0.0,0.0,0.0,0.0,0.0,0.0,0.0,0.0,0.0,0.0,0.0,0.0,0.0,0.0,0.0,0.0,0.0,0.0,0.0,0.0,0.0,0.0,0.0,0.0,0.0,0.0,0.0,0.0,0.0,0.0,0.0,0.0,0.0,0.0,0.0,0.0,0.0,0.0,0.0,0.0,0.0,0.0,0.0,0.0,0.0,0.0,0.0,0.0,0.0,0.0,0.0,0.0,0.0,0.0,0.0,0.0,0.0,0.0,0.0,0.0,0.0,0.0,0.0,0.0,0.0,0.0,-0.1792,-0.1933,-0.22,-0.2509,-0.2705,-0.2975,0.0,0.0,0.0,0.0,0.0,0.0,0.0,0.0,0.0,0.0,0.0,0.0,0.0,0.0,0.0,0.0,0.0,0.0,0.0,0.0,0.0,0.0,0.0,0.0,0.0,0.0,0.0,0.0,0.0,0.0,0.0,0.0,0.0,0.0,0.0,0.0,0.0,0.0,0.0,0.0,0.0,0.0,0.0,0.0,0.0,0.0,0.0,0.0,0.0,0.0,0.0,0.0,0.0,0.0,0.0,0.0,0.0,0.0,0.0,0.0,0.0,0.0,0.0,0.0,0.0,0.0,0.0,0.0,0.0,0.0,0.0,0.0,0.0,0.0,0.0,0.0,0.0,0.0,0.0,0.0,0.0,0.0,0.0,0.0,0.0,0.0,0.0,0.0,0.0,0.0,0.0,0.0,0.0,0.0,0.0,0.0,0.0,0.0,0.0,0.0,0.0,0.0,0.0,0.0,0.0,0.0,0.0,0.0,-0.1858,-0.2379,-0.2318,-0.2526,-0.2992,-0.3062,-0.3241,0.0,0.0,0.0,0.0,0.0,0.0,0.0,0.0,0.0,0.0,0.0,0.0,0.0,0.0,0.0,0.0,0.0,0.0,0.0,0.0,0.0,0.0,0.0,0.0,0.0,0.0,0.0,0.0,0.0,0.0,0.0,0.0,0.0,0.0,0.0,0.0,0.0,0.0,0.0,0.0,0.0,0.0,0.0,0.0,0.0,0.0,0.0,0.0,0.0,0.0,0.0,0.0,0.0,0.0,0.0,0.0,0.0,0.0,0.0,0.0,0.0,0.0,0.0,0.0,0.0,0.0,0.0,0.0,0.0,0.0,0.0,0.0,0.0,0.0,0.0,0.0,0.0,0.0,0.0,0.0,0.0,0.0,0.0,0.0,0.0,0.0,0.0,0.0,0.0,0.0,0.0,0.0,0.0,0.0,0.0,0.0,0.0,0.0,0.0,0.0,0.0,0.0,0.0,0.0,0.0,0.0,0.0,0.0,0.0,-0.2465,-0.2773,-0.2997,-0.319,-0.3388,-0.3573,0.0,0.0,0.0,0.0,0.0,0.0,0.0,0.0,0.0,0.0,0.0,0.0,0.0,0.0,0.0,0.0,0.0,0.0,0.0,0.0,0.0,0.0,0.0,0.0,0.0,0.0,0.0,0.0,0.0,0.0,0.0,0.0,0.0,0.0,0.0,0.0,0.0,0.0,0.0,0.0,0.0,0.0,0.0,0.0,0.0,0.0,0.0,0.0,0.0,0.0,0.0,0.0,0.0,0.0,0.0,0.0,0.0,0.0,0.0,0.0,0.0,0.0,0.0,0.0,0.0,0.0,0.0,0.0,0.0,0.0,0.0,0.0,0.0,0.0,0.0,0.0,0.0,0.0,0.0,0.0,0.0,0.0,0.0,0.0,0.0,0.0,0.0,0.0,0.0,0.0,0.0,0.0,0.0,0.0,0.0,0.0,0.0,0.0,0.0,0.0,0.0,0.0,0.0,0.0,0.0,0.0,0.0,0.0,0.0,-0.2837,-0.3145,-0.3417,-0.36,-0.3727,-0.3841,-0.3947,0.0,0.0,0.0,0.0,0.0,0.0,0.0,0.0,0.0,0.0,0.0,0.0,0.0,0.0,0.0,0.0,0.0,0.0,0.0,0.0,0.0,0.0,0.0,0.0,0.0,0.0,0.0,0.0,0.0,0.0,0.0,0.0,0.0,0.0,0.0,0.0,0.0,0.0,0.0,0.0,0.0,0.0,0.0,0.0,0.0,0.0,0.0,0.0,0.0,0.0,0.0,0.0,0.0,0.0,0.0,0.0,0.0,0.0,0.0,0.0,0.0,0.0,0.0,0.0,0.0,0.0,0.0,0.0,0.0,0.0,0.0,0.0,0.0,0.0,0.0,0.0,0.0,0.0,0.0,0.0,0.0,0.0,0.0,0.0,0.0,0.0,0.0,0.0,0.0,0.0,0.0,0.0,0.0,0.0,0.0,0.0,0.0,0.0,0.0,0.0,0.0,0.0,0.0,0.0,0.0,0.0,0.0,0.0,-0.3404,-0.3506,-0.3733,-0.4108,-0.4075,-0.4123,0.0,0.0,0.0,0.0,0.0,0.0,0.0,0.0,0.0,0.0,0.0,0.0,0.0,0.0,0.0,0.0,0.0,0.0,0.0,0.0,0.0,0.0,0.0,0.0,0.0,0.0,0.0,0.0,0.0,0.0,0.0,0.0,0.0,0.0,0.0,0.0,0.0,0.0,0.0,0.0,0.0,0.0,0.0,0.0,0.0,0.0,0.0,0.0,0.0,0.0,0.0,0.0,0.0,0.0,0.0,0.0,0.0,0.0,0.0,0.0,0.0,0.0,0.0,0.0,0.0,0.0,0.0,0.0,0.0,0.0,0.0,0.0,0.0,0.0,0.0,0.0,0.0,0.0,0.0,0.0,0.0,0.0,0.0,0.0,0.0,0.0,0.0,0.0,0.0,0.0,0.0,0.0,0.0,0.0,0.0,0.0,0.0,0.0,0.0,0.0,0.0,0.0,0.0,0.0,0.0,0.0,0.0,0.0,0.0,-0.3549,-0.3908,-0.4181,-0.4382,-0.4327,-0.4377,0.0,0.0,0.0,0.0,0.0,0.0,0.0,0.0,0.0,0.0,0.0,0.0,0.0,0.0,0.0,0.0,0.0,0.0,0.0,0.0,0.0,0.0,0.0,0.0,0.0,0.0,0.0,0.0,0.0,0.0,0.0,0.0,0.0,0.0,0.0,0.0,0.0,0.0,0.0,0.0,0.0,0.0,0.0,0.0,0.0,0.0,0.0,0.0,0.0,0.0,0.0,0.0,0.0,0.0,0.0,0.0,0.0,0.0,0.0,0.0,0.0,0.0,0.0,0.0,0.0,0.0,0.0,0.0,0.0,0.0,0.0,0.0,0.0,0.0,0.0,0.0,0.0,0.0,0.0,0.0,0.0,0.0,0.0,0.0,0.0,0.0,0.0,0.0,0.0,0.0,0.0,0.0,0.0,0.0,0.0,0.0,0.0,0.0,0.0,0.0,0.0,0.0,0.0,0.0,0.0,0.0,0.0,0.0,-0.3049,-0.3573,-0.4058,-0.4399,-0.4593,-0.4547,-0.4598,0.0,0.0,0.0,0.0,0.0,0.0,0.0,0.0,0.0,0.0,0.0,0.0,0.0,0.0,0.0,0.0,0.0,0.0,0.0,0.0,0.0,0.0,0.0,0.0,0.0,0.0,0.0,0.0,0.0,0.0,0.0,0.0,0.0,0.0,0.0,0.0,0.0,0.0,0.0,0.0,0.0,0.0,0.0,0.0,0.0,0.0,0.0,0.0,0.0,0.0,0.0,0.0,0.0,0.0,0.0,0.0,0.0,0.0,0.0,0.0,0.0,0.0,0.0,0.0,0.0,0.0,0.0,0.0,0.0,0.0,0.0,0.0,0.0,0.0,0.0,0.0,0.0,0.0,0.0,0.0,0.0,0.0,0.0,0.0,0.0,0.0,0.0,0.0,0.0,0.0,0.0,0.0,0.0,0.0,0.0,0.0,0.0,0.0,0.0,0.0,0.0,0.0,0.0,0.0,0.0,0.0,0.0,0.0,-0.3087,-0.3575,-0.4012,-0.4408,-0.4746,-0.4651,-0.4734,0.0,0.0,0.0,0.0,0.0,0.0,0.0,0.0,0.0,0.0,0.0,0.0,0.0,0.0,0.0,0.0,0.0,0.0,0.0,0.0,0.0,0.0,0.0,0.0,0.0,0.0,0.0,0.0,0.0,0.0,0.0,0.0,0.0,0.0,0.0,0.0,0.0,0.0,0.0,0.0,0.0,0.0,0.0,0.0,0.0,0.0,0.0,0.0,0.0,0.0,0.0,0.0,0.0,0.0,0.0,0.0,0.0,0.0,0.0,0.0,0.0,0.0,0.0,0.0,0.0,0.0,0.0,0.0,0.0,0.0,0.0,0.0,0.0,0.0,0.0,0.0,0.0,0.0,0.0,0.0,0.0,0.0,0.0,0.0,0.0,0.0,0.0,0.0,0.0,0.0,0.0,0.0,0.0,0.0,0.0,0.0,0.0,0.0,0.0,0.0,0.0,0.0,0.0,0.0,0.0,0.0,0.0,0.0,-0.2914,-0.3437,-0.3794,-0.4186,-0.4618,-0.4607,-0.4734,0.0,0.0,0.0,0.0,0.0,0.0,0.0,0.0,0.0,0.0,0.0,0.0,0.0,0.0,0.0,0.0,0.0,0.0,0.0,0.0,0.0,0.0,0.0,0.0,0.0,0.0,0.0,0.0,0.0,0.0,0.0,0.0,0.0,0.0,0.0,0.0,0.0,0.0,0.0,0.0,0.0,0.0,0.0,0.0,0.0,0.0,0.0,0.0,-1.0469,0.0,0.0,0.0,0.0,0.0,0.0,0.0,0.0,0.0,0.0,0.0,0.0,0.0,0.0,0.0,0.0,0.0,0.0,0.0,0.0,0.0,0.0,0.0,0.0,0.0,0.0,0.0,0.0,0.0,0.0,0.0,0.0,0.0,0.0,0.0,0.0,0.0,0.0,0.0,0.0,0.0,0.0,0.0,0.0,0.0,0.0,0.0,0.0,0.0,0.0,0.0,0.0,0.0,0.0,0.0,0.0,0.0,0.0,0.0,-0.2885,-0.3394,-0.3706,-0.4102,-0.4524,-0.4524,-0.4653,0.0,0.0,0.0,0.0,0.0,0.0,0.0,0.0,0.0,0.0,0.0,0.0,0.0,0.0,0.0,0.0,0.0,0.0,0.0,0.0,0.0,0.0,0.0,0.0,0.0,0.0,0.0,0.0,0.0,0.0,0.0,0.0,0.0,0.0,0.0,0.0,0.0,0.0,0.0,0.0,0.0,0.0,0.0,0.0,0.0,0.0,0.0,0.0,0.0,0.0,0.0,0.0,0.0,0.0,0.0,0.0,0.0,0.0,0.0,0.0,0.0,0.0,0.0,0.0,0.0,0.0,0.0,0.0,0.0,0.0,0.0,0.0,0.0,0.0,0.0,0.0,0.0,0.0,0.0,0.0,0.0,0.0,0.0,0.0,0.0,0.0,0.0,0.0,0.0,0.0,0.0,0.0,0.0,0.0,0.0,0.0,0.0,0.0,0.0,0.0,0.0,0.0,0.0,0.0,0.0,0.0,0.0,-0.2487,-0.2908,-0.335,-0.3706,-0.406,-0.4451,-0.4407,-0.4575,-0.495,0.0,0.0,0.0,0.0,0.0,0.0,0.0,0.0,0.0,0.0,0.0,0.0,0.0,0.0,0.0,0.0,0.0,0.0,0.0,0.0,0.0,0.0,0.0,0.0,0.0,0.0,0.0,0.0,0.0,0.0,0.0,0.0,0.0,0.0,0.0,0.0,0.0,0.0,-0.9302,-1.0019,0.0,0.0,0.0,0.0,0.0,0.0,0.0,0.0,-1.1972,0.0,0.0,0.0,0.0,0.0,0.0,0.0,0.0,0.0,0.0,0.0,0.0,0.0,0.0,0.0,0.0,0.0,0.0,0.0,0.0,0.0,0.0,0.0,0.0,0.0,0.0,0.0,0.0,0.0,0.0,0.0,0.0,0.0,0.0,0.0,0.0,0.0,0.0,0.0,0.0,0.0,0.0,0.0,0.0,0.0,0.0,0.0,0.0,0.0,0.0,0.0,0.0,0.0,0.0,0.0,0.0,-0.2003,-0.2358,-0.2771,-0.3214,-0.3488,-0.3884,-0.4308,-0.4336,-0.4504,-0.4851,0.0,0.0,0.0,0.0,0.0,0.0,0.0,0.0,0.0,0.0,0.0,0.0,0.0,0.0,0.0,0.0,0.0,0.0,0.0,0.0,0.0,0.0,0.0,0.0,0.0,0.0,0.0,0.0,0.0,0.0,0.0,0.0,0.0,0.0,0.0,0.0,0.0,0.0,0.0,-1.0934,-1.1351,0.0,0.0,0.0,0.0,0.0,0.0,0.0,0.0,-1.243,0.0,0.0,0.0,0.0,0.0,0.0,0.0,0.0,0.0,0.0,0.0,0.0,0.0,0.0,0.0,0.0,0.0,0.0,0.0,0.0,0.0,0.0,0.0,0.0,0.0,0.0,0.0,0.0,0.0,0.0,0.0,0.0,0.0,0.0,0.0,0.0,0.0,0.0,0.0,0.0,0.0,0.0,0.0,0.0,0.0,0.0,0.0,0.0,0.0,0.0,0.0,0.0,0.0,0.0,0.0,-0.1892,-0.2357,-0.2817,-0.3214,-0.3483,-0.3882,-0.436,-0.4336,-0.4506,0.0,0.0,0.0,0.0,0.0,0.0,0.0,0.0,0.0,0.0,0.0,0.0,0.0,0.0,0.0,0.0,0.0,0.0,0.0,0.0,0.0,0.0,0.0,0.0,0.0,0.0,0.0,0.0,0.0,0.0,0.0,0.0,0.0,0.0,0.0,0.0,0.0,0.0,0.0,0.0,-1.1428,-1.2038,-1.2954,0.0,0.0,0.0,0.0,0.0,0.0,-1.3215,-1.2809,0.0,0.0,0.0,0.0,0.0,0.0,0.0,0.0,0.0,0.0,0.0,0.0,0.0,0.0,0.0,0.0,0.0,0.0,0.0,0.0,0.0,0.0,0.0,0.0,0.0,0.0,0.0,0.0,0.0,0.0,0.0,0.0,0.0,0.0,0.0,0.0,0.0,0.0,0.0,0.0,0.0,0.0,0.0,0.0,0.0,0.0,0.0,0.0,0.0,0.0,0.0,0.0,0.0,0.0,0.0,-0.1808,-0.2358,-0.2818,-0.3214,-0.3568,-0.401,-0.4491,-0.4414,-0.4506,0.0,0.0,0.0,0.0,0.0,0.0,0.0,0.0,0.0,0.0,0.0,0.0,0.0,0.0,0.0,0.0,0.0,0.0,0.0,0.0,0.0,0.0,0.0,0.0,0.0,0.0,0.0,0.0,0.0,0.0,0.0,0.0,0.0,0.0,0.0,0.0,0.0,0.0,0.0,0.0,0.0,-1.2629,-1.338,-1.3722,0.0,0.0,0.0,0.0,-1.4323,-1.3713,0.0,0.0,0.0,0.0,0.0,0.0,0.0,0.0,0.0,0.0,0.0,0.0,0.0,0.0,0.0,0.0,0.0,0.0,0.0,0.0,0.0,0.0,0.0,0.0,0.0,0.0,0.0,0.0,0.0,0.0,0.0,0.0,0.0,0.0,0.0,0.0,0.0,0.0,0.0,0.0,0.0,0.0,0.0,0.0,0.0,0.0,0.0,0.0,0.0,0.0,0.0,0.0,0.0,0.0,0.0,0.0,-0.1809,-0.2271,-0.2725,-0.3171,-0.3658,-0.4098,-0.457,-0.4482,-0.4577,0.0,0.0,0.0,0.0,0.0,0.0,0.0,0.0,0.0,0.0,0.0,0.0,0.0,0.0,0.0,0.0,0.0,0.0,0.0,0.0,0.0,0.0,0.0,0.0,0.0,0.0,0.0,0.0,0.0,0.0,0.0,0.0,0.0,0.0,0.0,0.0,0.0,0.0,0.0,0.0,0.0,-1.2955,-1.3358,-1.4047,-1.461,0.0,0.0,-1.5014,-1.5139,-1.4551,0.0,0.0,0.0,0.0,0.0,0.0,0.0,0.0,0.0,0.0,0.0,0.0,0.0,0.0,0.0,0.0,0.0,0.0,0.0,0.0,0.0,0.0,0.0,0.0,0.0,0.0,0.0,0.0,0.0,0.0,0.0,0.0,0.0,0.0,0.0,0.0,0.0,0.0,0.0,0.0,0.0,0.0,0.0,0.0,0.0,0.0,0.0,0.0,0.0,0.0,0.0,0.0,0.0,0.0,0.0,-0.1336,-0.165,-0.2226,-0.2725,-0.3214,-0.366,-0.4144,-0.4705,-0.4719,-0.486,0.0,0.0,0.0,0.0,0.0,0.0,0.0,0.0,0.0,0.0,0.0,0.0,0.0,0.0,0.0,0.0,0.0,0.0,0.0,0.0,0.0,0.0,0.0,0.0,0.0,0.0,0.0,0.0,0.0,0.0,0.0,0.0,0.0,0.0,0.0,0.0,0.0,0.0,0.0,0.0,0.0,0.0,-1.4157,-1.4764,0.0,0.0,0.0,-1.5719,-1.5844,0.0,0.0,0.0,0.0,0.0,0.0,0.0,0.0,0.0,0.0,0.0,0.0,0.0,0.0,0.0,0.0,0.0,0.0,0.0,0.0,0.0,0.0,0.0,0.0,0.0,0.0,0.0,0.0,0.0,0.0,0.0,0.0,0.0,0.0,0.0,0.0,0.0,0.0,0.0,0.0,0.0,0.0,0.0,0.0,0.0,0.0,0.0,0.0,0.0,0.0,0.0,0.0,0.0,0.0,0.0,0.0,0.0,-0.1528,-0.2141,-0.2682,-0.3214,-0.37,-0.423,-0.4799,-0.4981,0.0,0.0,0.0,0.0,0.0,0.0,0.0,0.0,0.0,0.0,0.0,0.0,0.0,0.0,0.0,0.0,0.0,0.0,0.0,0.0,0.0,0.0,0.0,0.0,0.0,0.0,0.0,-0.5438,0.0,0.0,0.0,0.0,0.0,0.0,0.0,0.0,0.0,0.0,0.0,0.0,0.0,0.0,-1.3329,-1.4713,-1.5355,-1.5969,0.0,0.0,-1.6416,-1.6565,-1.6072,-1.5491,0.0,0.0,0.0,0.0,0.0,0.0,0.0,0.0,0.0,0.0,0.0,0.0,0.0,0.0,0.0,0.0,0.0,0.0,0.0,0.0,0.0,0.0,0.0,0.0,0.0,0.0,0.0,0.0,0.0,0.0,0.0,0.0,0.0,0.0,0.0,0.0,0.0,0.0,0.0,0.0,0.0,0.0,0.0,0.0,0.0,0.0,0.0,0.0,0.0,0.0,0.0,0.0,0.0,0.0,-0.1104,-0.1491,-0.2054,-0.2592,-0.3216,-0.3785,-0.436,-0.498,-0.5072,-0.524,0.0,0.0,0.0,0.0,0.0,0.0,0.0,0.0,0.0,0.0,0.0,0.0,0.0,0.0,0.0,0.0,0.0,0.0,0.0,0.0,0.0,0.0,0.0,0.0,0.0,0.0,0.0,0.0,0.0,0.0,0.0,0.0,0.0,0.0,0.0,0.0,0.0,0.0,0.0,0.0,0.0,-1.3528,-1.4505,-1.5572,-1.6347,0.0,-1.6934,-1.7175,-1.7297,-1.6812,-1.6403,-1.6353,0.0,0.0,0.0,0.0,0.0,0.0,0.0,0.0,0.0,0.0,0.0,0.0,0.0,0.0,0.0,0.0,0.0,0.0,0.0,0.0,0.0,0.0,0.0,0.0,0.0,0.0,0.0,0.0,0.0,0.0,0.0,0.0,0.0,0.0,0.0,0.0,0.0,0.0,0.0,0.0,0.0,0.0,0.0,0.0,0.0,0.0,0.0,0.0,0.0,0.0,0.0,0.0,0.0,-0.1046,-0.137,-0.193,-0.2536,-0.3242,-0.3708,-0.4282,-0.4993,-0.5315,-0.5519,0.0,0.0,0.0,0.0,0.0,0.0,0.0,0.0,0.0,0.0,0.0,0.0,0.0,0.0,0.0,0.0,0.0,0.0,0.0,0.0,0.0,0.0,0.0,0.0,0.0,0.0,0.0,0.0,-0.6575,-0.6821,-0.6664,0.0,0.0,0.0,0.0,0.0,0.0,0.0,0.0,0.0,0.0,-1.3756,-1.4761,-1.5547,0.0,0.0,-1.6823,-1.7092,-1.7314,-1.7258,-1.7015,-1.6567,-1.6097,0.0,0.0,0.0,0.0,0.0,0.0,0.0,0.0,0.0,0.0,0.0,0.0,0.0,0.0,0.0,0.0,0.0,0.0,0.0,0.0,0.0,0.0,0.0,0.0,0.0,0.0,0.0,0.0,0.0,0.0,0.0,0.0,0.0,0.0,0.0,0.0,0.0,0.0,0.0,0.0,0.0,0.0,0.0,0.0,0.0,0.0,0.0,0.0,0.0,0.0,0.0,0.0,-0.0911,-0.1293,-0.1802,-0.2469,-0.332,-0.3736,-0.4323,-0.4956,-0.551,-0.5764,0.0,0.0,0.0,0.0,0.0,0.0,0.0,0.0,0.0,0.0,0.0,0.0,0.0,0.0,0.0,0.0,0.0,0.0,0.0,0.0,0.0,0.0,0.0,0.0,0.0,0.0,0.0,0.0,-0.6597,-0.6753,-0.665,0.0,0.0,0.0,0.0,0.0,0.0,0.0,0.0,0.0,0.0,-1.3795,-1.5053,-1.5742,-1.6311,-1.6931,-1.7103,-1.7273,-1.7542,-1.7582,-1.7399,-1.6929,0.0,0.0,0.0,0.0,0.0,0.0,0.0,0.0,0.0,0.0,0.0,0.0,0.0,0.0,0.0,0.0,0.0,0.0,0.0,0.0,0.0,0.0,0.0,0.0,0.0,0.0,0.0,0.0791,0.0,0.0,0.0298,0.0,0.0,0.0,0.0,0.0,0.0,0.0,0.0,0.0,0.0,0.0,0.0,0.0,0.0,0.0,0.0,0.0,0.0,0.0,0.0,0.0,0.0,-0.0686,-0.1215,-0.1719,-0.2427,-0.3276,-0.3882,-0.4447,-0.5027,-0.5649,-0.6043,-0.6184,0.0,0.0,0.0,0.0,0.0,0.0,0.0,0.0,0.0,0.0,0.0,0.0,0.0,0.0,0.0,0.0,0.0,0.0,0.0,0.0,0.0,0.0,0.0,0.0,0.0,0.0,-0.6743,-0.6633,-0.6657,0.0,0.0,0.0,0.0,0.0,0.0,0.0,0.0,0.0,-1.1397,-1.2368,-1.3623,-1.5346,-1.6137,-1.693,-1.7968,-1.7977,-1.7957,-1.8156,-1.7823,-1.7517,0.0,0.0,0.0,0.0,0.0,0.0,0.0,0.0,0.0,0.0,0.0,0.0,0.0,0.0,0.0,0.0,0.0,0.0,0.0,0.0,0.0,0.0,0.0,0.0,0.0,0.0,0.0,0.1434,0.1309,0.0,0.0,0.0,0.0,0.0,0.0,0.0,0.0,0.0,0.0,0.0,0.0803,0.1046,0.0,0.0,0.0,0.0,0.0,0.0,0.0,0.0,0.0,0.0,0.0,0.0,-0.0603,-0.107,-0.1742,-0.2421,-0.3153,-0.3936,-0.4628,-0.5244,-0.5758,-0.627,-0.6908,0.0,0.0,0.0,0.0,0.0,0.0,0.0,0.0,0.0,0.0,0.0,0.0,0.0,0.0,0.0,0.0,0.0,0.0,0.0,0.0,0.0,0.0,0.0,0.0,0.0,-0.6749,0.0,0.0,0.0,0.0,0.0,0.0,0.0,0.0,0.0,0.0,-0.962,-1.0693,-1.1582,-1.2912,-1.416,-1.5189,-1.6227,-1.7155,0.0,0.0,0.0,0.0,0.0,0.0,0.0,0.0,0.0,0.0,0.0,0.0,0.0,0.0,-1.4341,-1.4168,-1.4018,-1.3855,-1.3664,0.0,0.0,0.0,0.0,0.0,0.0,0.0,0.0,0.0,0.0,0.0,0.0,0.0,0.0,0.2067,0.1931,0.1699,0.0,0.0,0.0,0.0,0.0,0.0,0.0,0.0,0.105,0.1223,0.1352,0.1605,0.1745,0.1798,0.1877,0.1647,0.0,0.0,0.0,0.0,0.0,0.0,0.0,0.0,-0.0408,-0.0883,-0.1551,-0.2324,-0.3111,-0.3911,-0.47,-0.5377,-0.6025,-0.6659,-0.7386,-0.7383,-0.7717,0.0,0.0,0.0,0.0,0.0,0.0,0.0,0.0,0.0,0.0,0.0,0.0,0.0,0.0,0.0,0.0,0.0,0.0,0.0,0.0,0.0,0.0,0.0,-0.7326,0.0,0.0,0.0,0.0,0.0,0.0,0.0,0.0,0.0,-0.8809,-0.9866,-1.0933,-1.1785,-1.3141,-1.4467,-1.556,0.0,0.0,0.0,0.0,0.0,0.0,0.0,-1.8992,-1.9168,-1.8932,-1.863,-1.8343,-1.7988,-1.7726,-1.7734,0.0,0.0,-1.5966,-1.5578,-1.5431,-1.52,-1.4943,-1.4755,-1.4806,-1.4603,-1.4549,0.0,0.0,0.0,0.0,0.2985,0.0,0.0,0.0,0.3056,0.2902,0.0,0.2426,0.0,0.0,0.0,0.0,0.1535,0.132,0.0,0.0,0.1645,0.1797,0.2031,0.2135,0.2212,0.2322,0.2366,0.2319,0.2296,0.1752,0.0,0.0,0.0,0.0,0.0,0.0,0.0,-0.0676,-0.1285,-0.209,-0.3072,-0.3907,-0.4658,-0.5427,-0.6462,-0.7162,-0.7599,-0.7928,-0.8225,-0.8413,-0.844,0.0,0.0,0.0,0.0,0.0,0.0,0.0,0.0,0.0,0.0,0.0,0.0,0.0,0.0,0.0,0.0,0.0,0.0,0.0,0.0,-0.8042,0.0,0.0,0.0,0.0,0.0,0.0,0.0,0.0,0.0,-0.9177,-0.9109,-1.0078,-1.1123,-1.2001,0.0,0.0,0.0,0.0,-1.8375,-1.9596,-1.9677,-1.9759,-2.0175,-1.9902,-1.9698,-1.9908,0.0,0.0,-2.0647,-2.0727,-2.0701,-2.0771,-2.064,-1.9807,-1.6701,-1.6057,-1.5843,-1.5604,-1.5378,-1.5135,-1.5408,-1.5542,-1.5699,0.5769,0.0,0.0,0.0,0.0,0.415,0.416,0.4005,0.3918,0.3684,0.3428,0.3241,0.0,0.0,0.0,0.0,0.0,0.0,0.2217,0.241,0.2553,0.2743,0.2929,0.3139,0.3243,0.3285,0.3331,0.3272,0.3085,0.2756,0.2361,0.1844,0.0,0.0,0.0,0.0,0.0173,-0.0367,-0.1208,-0.2017,-0.2722,-0.3837,-0.4986,-0.6017,-0.6672,-0.7262,-0.7766,-0.8098,-0.8534,-0.9151,-0.9187,0.0,0.0,0.0,0.0,0.0,0.0,0.0,0.0,0.0,0.0,0.0,0.0,0.0,0.0,0.0,0.0,0.0,0.0,0.0,-0.7942,-0.8215,-0.8281,0.0,0.0,0.0,0.0,0.0,0.0,0.0,0.0,0.0,-1.0103,-1.0704,-1.1451,0.0,0.0,-1.5163,-1.633,-1.7468,-1.8562,-1.9573,-2.0009,0.0,-2.0908,-2.0647,-2.0481,-2.0717,-2.064,-2.0641,-2.0762,-2.0872,-2.0937,-2.0963,-2.0928,-2.0567,-1.968,-1.9156,-1.8869,-1.8633,-1.8251,-1.7918,-1.7829,-1.7624,-1.7498,0.7206,0.6007,0.591,0.5556,0.509,0.5294,0.5266,0.4969,0.4824,0.4632,0.4388,0.4093,0.3838,0.358,0.3173,0.0,0.0,0.0,0.291,0.3088,0.323,0.3444,0.3694,0.3924,0.4115,0.4265,0.4214,0.4163,0.4066,0.3792,0.3434,0.3042,0.0,0.1837,0.1554,0.1088,0.0544,0.0,-0.0902,-0.1769,-0.2501,-0.3948,-0.5233,-0.6237,-0.6733,-0.7263,-0.7867,-0.8104,-0.8584,-0.9327,-0.9215,-0.9542,0.0,0.0,0.0,0.0,0.0,0.0,0.0,0.0,0.0,0.0,0.0,-0.6886,-0.7696,0.0,0.0,0.0,-0.8652,-0.8628,-0.8406,-0.8855,0.0,0.0,0.0,0.0,0.0,0.0,0.0,-0.9238,-0.9802,-1.0384,-1.0735,-1.1478,-1.2208,-1.3062,-1.4246,-1.5426,-1.6468,0.0,-1.8655,-1.9566,-2.0143,-2.0687,-2.1238,-2.1239,-2.1306,-2.1736,-2.1733,-2.1692,-2.182,-2.1928,-2.1998,-2.205,-2.2028,-2.195,-2.182,-2.1536,-2.0984,-2.0111,-1.9603,-1.9256,-1.8927,-1.8649,-1.8493,0.831,0.7854,0.7263,0.6768,0.6323,0.6521,0.6355,0.5979,0.5871,0.5663,0.5338,0.4976,0.471,0.4532,0.4034,0.0,0.3695,0.3451,0.3524,0.3761,0.38,0.3999,0.4396,0.4553,0.4847,0.5181,0.508,0.5071,0.5106,0.4759,0.4563,0.4502,0.3243,0.2427,0.21,0.1614,0.1053,0.0481,-0.0412,-0.1386,-0.2457,-0.4168,-0.5397,-0.6152,-0.6639,-0.718,-0.7758,-0.795,-0.8418,-0.9076,-0.8767,-0.9093,-1.0193,0.0,0.0,0.0,0.0,0.0,0.0,0.0,0.0,0.0,0.0,0.0,0.0,0.0,0.0,0.0,-0.9719,0.0,-0.9123,-0.9708,0.0,0.0,0.0,-0.9437,-0.9233,-0.9494,-0.9621,-0.9505,0.0,0.0,-1.1182,-1.2246,-1.3239,-1.3845,-1.4537,-1.5453,-1.6802,-1.768,-1.8616,-1.9522,-2.0135,-2.0679,-2.1293,-2.168,-2.2082,-2.2599,-2.2995,-2.3096,-2.3271,-2.3382,-2.3517,-2.3548,-2.358,-2.3417,-2.331,-2.2996,-2.2391,-2.0619,-1.9997,-1.961,-1.9352,-1.9134,-1.9114,0.8659,0.8586,0.8414,0.791,0.7279,0.7378,0.7258,0.6937,0.6831,0.6457,0.5967,0.5924,0.5536,0.4946,0.462,0.4392,0.4291,0.4238,0.4322,0.4466,0.457,0.4839,0.5272,0.5537,0.5777,0.594,0.5986,0.5908,0.5704,0.5499,0.5298,0.5095,0.4478,0.3756,0.2999,0.2264,0.1613,0.109,0.0053,-0.1293,-0.2926,-0.3886,-0.4844,-0.5725,-0.6168,-0.6745,-0.748,-0.7705,-0.8096,-0.8731,-0.9078,-0.9515,-1.0044,-1.0191,0.0,0.0,0.0,0.0,0.0,0.0,0.0,0.0,0.0,-0.8976,-1.0126,0.0,-0.9503,0.0,-1.0217,-1.0102,-0.973,-0.9616,0.0,0.0,-0.9467,-0.9518,-0.9375,-0.9959,-1.0338,-1.0333,-1.0846,-1.1465,-1.2029,-1.2624,-1.3315,-1.4155,-1.4924,-1.5718,-1.6733,-1.7544,-1.8415,-1.9325,-2.0023,-2.0638,-2.1253,-2.1899,-2.2489,-2.2816,-2.3045,-2.3241,-2.3439,-2.353,-2.3598,-2.3669,-2.3678,-2.3589,-2.3485,-2.3321,-2.2972,-2.228,-2.171,-2.1222,-2.0904,-2.0581,-2.0408,0.8808,0.8808,0.8808,0.8554,0.8152,0.8091,0.7937,0.7673,0.7506,0.7235,0.6853,0.6696,0.6255,0.556,0.5357,0.5104,0.487,0.4766,0.4765,0.4792,0.5013,0.5344,0.5782,0.6107,0.6477,0.6783,0.6841,0.6826,0.67,0.6437,0.6181,0.6025,0.5506,0.4938,0.4155,0.301,0.2187,0.1649,0.0216,-0.1262,-0.2626,-0.3462,-0.4291,-0.5169,-0.5674,-0.6203,-0.6875,-0.7291,-0.7774,-0.8165,-0.872,-0.9281,-0.9746,-1.0144,-1.0431,0.0,0.0,0.0,0.0,0.0,0.0,0.0,0.0,0.0,0.0,0.0,-0.995,-1.023,-1.0333,-1.0209,-0.9846,-0.9929,-0.9908,-0.9742,-0.9972,-1.0094,-0.9933,-1.0335,-1.0617,-1.0651,-1.1165,-1.1731,-1.2255,-1.2884,-1.3522,-1.4288,-1.5057,-1.5812,-1.6667,-1.7455,-1.8337,-1.9258,-1.9972,-2.0704,-2.1479,-2.2166,-2.2667,-2.291,-2.3144,-2.3336,-2.3517,-2.3634,-2.3703,-2.3777,-2.3759,-2.3725,-2.3616,-2.3444,-2.3265,-2.2961,-2.258,-2.2121,-2.1661,-2.1402,-2.1175,0.8811,0.8808,0.8808,0.8808,0.8808,0.8689,0.8474,0.8218,0.8043,0.7877,0.7726,0.7348,0.6861,0.6315,0.6216,0.5887,0.5389,0.5287,0.5122,0.5009,0.5293,0.5626,0.6112,0.6537,0.7079,0.7574,0.7676,0.7726,0.7777,0.7458,0.7192,0.6982,0.6438,0.5887,0.5382,0.3949,0.283,0.2034,0.0275,-0.1062,-0.2015,-0.2854,-0.3685,-0.4563,-0.5175,-0.5698,-0.6162,-0.6832,-0.7337,-0.7571,-0.8116,-0.8683,-0.9303,-0.9886,-1.0258,0.0,-1.054,0.0,0.0,0.0,0.0,0.0,0.0,0.0,0.0,-1.0573,-1.0095,-1.0086,-1.0216,-1.0158,-0.9849,-1.0302,-1.0569,-1.0414,-1.0567,-1.0651,-1.0557,-1.0601,-1.0678,-1.0759,-1.1352,-1.1889,-1.2268,-1.3044,-1.3758,-1.4332,-1.5011,-1.5774,-1.6588,-1.7421,-1.8298,-1.9229,-2.0042,-2.091,-2.1777,-2.2381,-2.2773,-2.2977,-2.3208,-2.3453,-2.3607,-2.3734,-2.3807,-2.3887,-2.3867,-2.3795,-2.3723,-2.3553,-2.3374,-2.3193,-2.2902,-2.2553,-2.2007,-2.1738,-2.1581,0.8956,0.8952,0.8857,0.8808,0.8808,0.8752,0.8692,0.8524,0.8461,0.8315,0.8055,0.7726,0.7402,0.7074,0.6974,0.6588,0.6046,0.5889,0.5778,0.5607,0.5782,0.6168,0.6768,0.7244,0.7723,0.8212,0.8424,0.853,0.8412,0.8259,0.7943,0.7568,0.7133,0.6593,0.5987,0.0,0.0,0.0,0.0613,-0.0335,-0.1118,-0.2125,-0.302,-0.3792,-0.4506,0.0,-0.5824,-0.6248,-0.6756,-0.7364,-0.7659,0.0,0.0,0.0,0.0,0.0,0.0,0.0,0.0,0.0,0.0,0.0,-1.0255,-1.0305,-1.1105,-1.0587,-1.0151,-1.0026,-1.0198,-1.0344,-1.0342,-1.0321,-1.0281,-1.0245,-1.0225,-1.0224,-1.0191,-1.0564,-1.0896,-1.0995,-1.1618,-1.2206,-1.2686,-1.3145,-1.3705,-1.4326,-1.5057,-1.5736,-1.6423,-1.7297,-1.814,-1.9042,-2.0269,-2.1275,-2.1903,-2.239,-2.279,-2.3045,-2.3256,-2.3485,-2.37,-2.3771,-2.3846,-2.3937,-2.3976,-2.3926,-2.3786,-2.371,-2.3589,-2.3374,-2.3184,-2.2842,-2.2265,-2.1953,-2.1819,0.9263,0.9159,0.8956,0.891,0.0,0.8808,0.8748,0.8689,0.8689,0.8583,0.8371,0.8206,0.7987,0.7729,0.7563,0.7235,0.6745,0.6593,0.6431,0.6206,0.6433,0.6812,0.73,0.788,0.8362,0.8791,0.9057,0.9148,0.9089,0.8896,0.8629,0.8246,0.772,0.7235,0.6647,0.5614,0.4122,0.2178,0.134,0.0447,-0.0448,-0.1286,-0.2069,-0.2906,-0.357,0.0,0.0,0.0,0.0,0.0,0.0,0.0,0.0,-0.8455,-0.8897,-0.9323,-0.9429,-0.9714,-1.0241,-1.0118,-1.0119,-1.034,-0.9962,-0.9904,-1.0425,-1.02,-0.9986,-0.9871,-0.9973,-0.9999,-0.9935,-1.0069,-1.0118,-1.0084,-1.0198,-1.0314,-1.0431,-1.063,-1.0895,-1.1203,-1.1608,-1.2126,-1.273,-1.3152,-1.3652,-1.4321,-1.5017,-1.573,-1.6423,-1.7262,-1.8219,-1.9427,-2.0558,-2.1446,-2.1932,-2.239,-2.2799,-2.3086,-2.3304,-2.3535,-2.3777,-2.3885,-2.3987,-2.4065,-2.4086,-2.4075,-2.4025,-2.3908,-2.3792,-2.3598,-2.3412,-2.319,-2.2756,-2.2419,-2.2212,0.9669,0.9521,0.9208,0.911,0.9057,0.8906,0.8857,0.8857,0.8808,0.0,0.0,0.8629,0.8477,0.8265,0.8096,0.7818,0.7453,0.7292,0.7077,0.6802,0.7077,0.7456,0.7827,0.8468,0.8945,0.9316,0.9621,0.9769,0.9721,0.9472,0.9204,0.8935,0.8399,0.7768,0.7136,0.5939,0.4568,0.3178,0.2289,0.1342,0.0336,-0.0336,-0.1062,-0.1903,-0.2516,-0.3129,-0.3742,-0.4455,-0.5099,-0.5597,-0.6309,-0.6951,-0.7435,-0.7844,-0.8357,-0.8866,-0.8749,-0.8933,-0.9578,-0.9259,-0.9274,-0.9755,-0.9363,-0.9254,-0.9573,-0.9646,-0.9642,-0.9526,-0.9608,-0.9505,-0.9306,-0.9694,-0.9911,-0.9821,-1.0132,-1.0407,-1.0506,-1.062,-1.0804,-1.1175,-1.1469,-1.1918,-1.2622,-1.3084,-1.3658,-1.4332,-1.5062,-1.5844,-1.6631,-1.7544,-1.8581,-1.9907,-2.0797,-2.1438,-2.1932,-2.2409,-2.2833,-2.3126,-2.3392,-2.3611,-2.3792,-2.4005,-2.4133,-2.42,-2.421,-2.421,-2.42,-2.4095,-2.3958,-2.3804,-2.3664,-2.3508,-2.3319,-2.2986,-2.2668,1.0245,1.0039,0.9673,0.9462,0.9361,0.9208,0.9155,0.9113,0.891,0.8808,0.8752,0.8752,0.8689,0.8524,0.8517,0.8362,0.8052,0.7886,0.7714,0.756,0.7714,0.7984,0.8318,0.8995,0.9462,0.9714,1.015,1.036,1.036,1.0047,0.9777,0.9607,0.9099,0.8359,0.7444,0.6492,0.5673,0.4946,0.3457,0.2347,0.1566,0.0671,-0.0168,-0.0894,-0.1621,-0.2236,-0.2847,-0.3572,-0.4226,-0.4852,-0.541,-0.5967,-0.655,-0.6801,-0.7209,-0.7873,-0.7917,-0.8113,-0.8545,-0.8561,-0.8398,-0.8125,-0.7812,-0.803,-0.9,-0.8898,-0.884,-0.8913,-0.8953,-0.9026,-0.9186,-0.9409,-0.9478,-0.9489,-0.9703,-0.9903,-0.9951,-1.0312,-1.062,-1.0918,-1.1276,-1.1828,-1.2573,-1.2992,-1.3605,-1.4425,-1.5198,-1.6014,-1.7325,-1.8344,-1.9207,-2.0062,-2.0845,-2.1446,-2.1924,-2.2463,-2.2859,-2.3168,-2.3476,-2.3721,-2.3926,-2.4084,-2.42,-2.4275,-2.4284,-2.4275,-2.4229,-2.4201,-2.4115,-2.3987,-2.3894,-2.3792,-2.3637,-2.3454,-2.3221,1.0913,1.071,1.0241,0.9936,0.9832,0.9517,0.9413,0.9417,0.9316,0.911,0.8906,0.8857,0.8752,0.8692,0.8692,0.8586,0.8421,0.8309,0.82,0.8096,0.8312,0.8527,0.8896,0.9417,0.9936,1.0297,1.0663,1.0871,1.0922,1.0714,1.0506,1.0241,0.9524,0.8732,0.7984,0.7297,0.6593,0.5987,0.4343,0.3129,0.2403,0.1676,0.095,0.0168,-0.0503,-0.1117,-0.1732,-0.2458,-0.3124,-0.3783,-0.4461,-0.5116,-0.5734,-0.5962,-0.6282,-0.6856,-0.6861,-0.702,-0.731,-0.7443,-0.7379,-0.7092,-0.7075,-0.7251,-0.7643,-0.797,-0.8158,-0.8326,-0.8468,-0.8582,-0.8676,-0.8844,-0.8991,-0.8942,-0.9211,-0.9427,-0.958,-0.9899,-1.0308,-1.0722,-1.1124,-1.1723,-1.248,-1.2939,-1.3552,-1.4471,-1.5451,-1.6661,-1.7747,-1.8602,-1.9406,-2.0097,-2.0829,-2.1446,-2.1932,-2.2463,-2.2885,-2.3226,-2.3499,-2.3786,-2.3996,-2.4152,-2.4284,-2.4393,-2.4437,-2.4418,-2.4374,-2.4374,-2.4302,-2.4191,-2.4105,-2.4028,-2.3928,-2.3843,-2.3642,1.1619,1.1418,1.0858,1.0561,1.0352,1.0039,0.988,0.988,0.9821,0.9621,0.9323,0.9061,0.8906,0.8857,0.8857,0.8745,0.8633,0.8629,0.8583,0.853,0.8748,0.9008,0.9312,0.984,1.036,1.0769,1.112,1.1372,1.1477,1.1322,1.1124,1.0722,0.988,0.9208,0.8735,0.8096,0.7501,0.6904,0.5439,0.4236,0.3347,0.2736,0.2123,0.1395,0.0781,0.0167,-0.0447,-0.1174,-0.1954,-0.2675,-0.3391,-0.4113,-0.478,-0.5058,-0.5321,-0.5759,-0.5807,-0.5862,-0.6082,-0.6286,-0.633,-0.6127,-0.6323,-0.6421,-0.6359,-0.6805,-0.7298,-0.7632,-0.7874,-0.8046,-0.8002,-0.8209,-0.8362,-0.8365,-0.8689,-0.8949,-0.9208,-0.9528,-0.9943,-1.0514,-1.0964,-1.1578,-1.2372,-1.2939,-1.3695,-1.4817,-1.6058,-1.7131,-1.7935,-1.871,-1.9493,-2.0158,-2.087,-2.1438,-2.1953,-2.249,-2.2936,-2.328,-2.3571,-2.3852,-2.4075,-2.4247,-2.4384,-2.4498,-2.4592,-2.4589,-2.4554,-2.4545,-2.4486,-2.4382,-2.432,-2.4284,-2.4201,-2.4163,-2.4018,1.213,1.1977,1.1573,1.1171,1.0867,1.0765,1.0769,1.0714,1.0454,1.03,1.0194,0.9625,0.9211,0.9012,0.9008,0.891,0.8804,0.8752,0.8804,0.8752,0.9005,0.926,0.9413,1.0249,1.0765,1.1124,1.1569,1.1882,1.2026,1.1873,1.1578,1.1074,1.0549,1.0091,0.9662,0.9016,0.8435,0.7966,0.7233,0.6152,0.4787,0.4121,0.3508,0.2898,0.2174,0.1562,0.095,0.0112,-0.0726,-0.1452,-0.2232,-0.29,-0.3454,-0.3913,-0.4239,-0.453,-0.4732,-0.4952,-0.5165,-0.5245,-0.5255,-0.5208,-0.5158,-0.5173,-0.5232,-0.5429,-0.5964,-0.6701,-0.6982,-0.7144,-0.7195,-0.7461,-0.7622,-0.7678,-0.8106,-0.8524,-0.8728,-0.9152,-0.9621,-1.015,-1.0812,-1.1477,-1.2372,-1.3089,-1.4009,-1.5389,-1.649,-1.7386,-1.808,-1.8855,-1.9645,-2.033,-2.0967,-2.1499,-2.2002,-2.2536,-2.3028,-2.3421,-2.3716,-2.3967,-2.4201,-2.4383,-2.4512,-2.4631,-2.4695,-2.4707,-2.4682,-2.4667,-2.4657,-2.4601,-2.4559,-2.4543,-2.4495,-2.4487,-2.4382,1.2529,1.2436,1.213,1.1773,1.1523,1.1423,1.1377,1.1368,1.1267,1.1065,1.0913,1.0651,1.0087,0.9361,0.926,0.9106,0.891,0.8906,0.886,0.886,0.9113,0.9309,0.9618,1.03,1.0977,1.1473,1.1923,1.2278,1.2475,1.2377,1.2071,1.1773,1.1318,1.0854,1.0383,0.9803,0.9336,0.8873,0.8299,0.7664,0.6899,0.5594,0.4661,0.4165,0.3502,0.2895,0.2285,0.1449,0.0669,0.0,-0.0783,-0.1509,-0.212,-0.2464,-0.2911,-0.3342,-0.3619,-0.3838,-0.4003,-0.4062,-0.4067,-0.4179,-0.4237,-0.4294,-0.4351,-0.4512,-0.4897,-0.5395,-0.6003,-0.6381,-0.6485,-0.6761,-0.7028,-0.7087,-0.7518,-0.7999,-0.8321,-0.8847,-0.9417,-1.0095,-1.0812,-1.1528,-1.2466,-1.3552,-1.4692,-1.5858,-1.6776,-1.7625,-1.8291,-1.9132,-1.9851,-2.0532,-2.115,-2.1663,-2.2155,-2.266,-2.3133,-2.3499,-2.3813,-2.4086,-2.4311,-2.4512,-2.4651,-2.4747,-2.4803,-2.4813,-2.4818,-2.4813,-2.4813,-2.4784,-2.4731,-2.4706,-2.4666,-2.4725,-2.4695,1.2779,1.273,1.2475,1.2278,1.2076,1.1977,1.1923,1.1923,1.1873,1.1773,1.1573,1.1469,1.0952,1.0131,0.9773,0.9469,0.926,0.9159,0.911,0.9005,0.9215,0.9521,0.9817,1.0502,1.1226,1.1868,1.2314,1.2715,1.3012,1.2866,1.2657,1.2466,1.2008,1.1606,1.115,1.0626,1.0218,0.9817,0.9298,0.8984,0.8613,0.7371,0.6237,0.5536,0.4882,0.4224,0.367,0.2837,0.2116,0.1451,0.0672,0.0,-0.0615,-0.1008,-0.1457,-0.1954,-0.2341,-0.2507,-0.262,-0.2731,-0.2901,-0.3013,-0.3182,-0.3352,-0.3403,-0.3598,-0.3851,-0.4061,-0.4794,-0.5315,-0.5778,-0.6161,-0.6376,-0.6485,-0.6977,-0.7521,-0.7895,-0.8474,-0.9155,-0.9932,-1.071,-1.1719,-1.2793,-1.4107,-1.5332,-1.6164,-1.7076,-1.7908,-1.8647,-1.9391,-2.0139,-2.0764,-2.1413,-2.1948,-2.2341,-2.2824,-2.3259,-2.3637,-2.3969,-2.422,-2.4433,-2.4632,-2.477,-2.4856,-2.4915,-2.4968,-2.4981,-2.499,-2.4994,-2.4964,-2.4942,-2.491,-2.491,-2.4955,-2.5003,1.2881,1.2881,1.273,1.2578,1.2471,1.2426,1.2431,1.2431,1.2328,1.2274,1.217,1.1972,1.1719,1.1318,1.0604,1.0035,0.9766,0.9614,0.9506,0.9388,0.9677,0.9932,1.0214,1.0901,1.1623,1.2269,1.2735,1.3175,1.3568,1.3425,1.3218,1.2967,1.2672,1.2388,1.2008,1.1616,1.1262,1.0893,1.0375,1.0056,0.9913,0.9454,0.8448,0.7176,0.6305,0.5647,0.5046,0.428,0.3562,0.2839,0.2238,0.1626,0.1061,0.0559,0.0111,-0.0278,-0.0724,-0.1003,-0.1057,-0.1388,-0.1668,-0.1726,-0.1941,-0.212,-0.2267,-0.2488,-0.2717,-0.2871,-0.3315,-0.3963,-0.4871,-0.5331,-0.5682,-0.5808,-0.6477,-0.6958,-0.7289,-0.8093,-0.8834,-0.9614,-1.0596,-1.195,-1.3637,-1.4749,-1.5688,-1.6563,-1.7421,-1.8266,-1.899,-1.9724,-2.0473,-2.115,-2.1774,-2.2303,-2.2582,-2.3016,-2.3459,-2.3849,-2.4145,-2.4393,-2.461,-2.4784,-2.4888,-2.4984,-2.508,-2.5136,-2.5177,-2.5179,-2.518,-2.5171,-2.5161,-2.5141,-2.5131,-2.5164,-2.5204,1.2886,1.2886,1.2832,1.2779,1.2779,1.2779,1.273,1.2779,1.2686,1.2627,1.2524,1.2426,1.2278,1.1968,1.1615,1.0956,1.019,1.0138,0.9976,0.9806,1.0035,1.0352,1.0643,1.1364,1.2008,1.2638,1.3127,1.3658,1.4192,1.4093,1.3994,1.3842,1.3447,1.3122,1.2885,1.2418,1.211,1.1873,1.1416,1.117,1.096,1.072,1.0198,0.9467,0.8159,0.7213,0.6681,0.5916,0.5208,0.4602,0.3912,0.3269,0.2642,0.1901,0.1358,0.1045,0.0783,0.0522,0.0261,0.0052,-0.0157,-0.0419,-0.0681,-0.0945,-0.115,-0.1396,-0.1692,-0.1889,-0.2079,-0.2605,-0.3205,-0.4067,-0.4732,-0.4988,-0.5542,-0.6173,-0.6819,-0.7554,-0.8405,-0.9447,-1.0872,-1.2516,-1.3742,-1.4909,-1.589,-1.6931,-1.7827,-1.8696,-1.9507,-2.0246,-2.0959,-2.1642,-2.2231,-2.2738,-2.318,-2.3369,-2.3692,-2.4069,-2.4383,-2.4617,-2.4837,-2.499,-2.5091,-2.5161,-2.5254,-2.5293,-2.5303,-2.5312,-2.5331,-2.5331,-2.5321,-2.5321,-2.533,-2.5335,-2.5372,1.2886,1.2886,1.2886,1.2886,1.2886,1.2886,1.2886,1.2886,1.2886,1.2832,1.2779,1.2779,1.2627,1.2421,1.2328,1.1873,1.1057,1.0858,1.0694,1.0525,1.0694,1.1074,1.149,1.1918,1.2447,1.3064,1.3742,1.4321,1.4765,1.4794,1.4731,1.4634,1.4264,1.3983,1.3763,1.3204,1.2797,1.2588,1.2135,1.1774,1.1697,1.1492,1.1239,1.0848,0.9795,0.8908,0.8202,0.7451,0.6778,0.6151,0.5479,0.4759,0.4079,0.3394,0.2846,0.2601,0.2403,0.2152,0.1852,0.1604,0.1355,0.1004,0.0704,0.0352,0.0151,-0.0149,-0.0395,-0.0639,-0.0827,-0.1115,-0.1501,-0.2368,-0.3304,-0.3963,-0.4679,-0.5343,-0.6089,-0.6892,-0.7967,-0.9352,-1.0893,-1.2349,-1.3645,-1.4876,-1.6,-1.7136,-1.8173,-1.9192,-2.007,-2.0782,-2.1497,-2.213,-2.2695,-2.3191,-2.3627,-2.39,-2.4034,-2.4369,-2.4611,-2.4837,-2.5016,-2.5158,-2.5264,-2.5331,-2.5383,-2.5408,-2.5432,-2.5449,-2.5456,-2.5466,-2.5464,-2.5461,-2.547,-2.5488,-2.549,1.2886,1.2886,1.2886,1.2886,1.2886,1.2886,1.2886,1.2886,1.2886,1.2886,1.2881,1.2881,1.2827,1.273,1.2676,1.2529,1.2175,1.1823,1.161,1.1434,1.1556,1.2013,1.2678,1.2622,1.2967,1.3658,1.449,1.5006,1.5306,1.5418,1.5451,1.5311,1.5129,1.4852,1.467,1.3815,1.332,1.3107,1.2456,1.2024,1.191,1.186,1.1694,1.1386,1.1121,1.0594,0.9683,0.884,0.8101,0.7583,0.6863,0.6099,0.5445,0.5009,0.4737,0.4472,0.4154,0.3868,0.3672,0.3217,0.2906,0.2662,0.2237,0.1929,0.1671,0.13,0.1041,0.0941,0.0645,0.036,0.0135,-0.0407,-0.1488,-0.3022,-0.3862,-0.4567,-0.5282,-0.6144,-0.7427,-0.9217,-1.0624,-1.1659,-1.3017,-1.4564,-1.5981,-1.7147,-1.8375,-1.9558,-2.0345,-2.1032,-2.1888,-2.2504,-2.2771,-2.3046,-2.3759,-2.4412,-2.4526,-2.4676,-2.4872,-2.5061,-2.5173,-2.5322,-2.5405,-2.5473,-2.5459,-2.5492,-2.5517,-2.5532,-2.5552,-2.5552,-2.5566,-2.5552,-2.5557,-2.5551,-2.5549,1.2886,1.2886,1.2886,1.2886,1.2886,1.2886,1.2886,1.2886,1.2886,1.2886,1.2886,1.2886,1.2881,1.2827,1.2827,1.2779,1.2676,1.2573,1.2323,1.2017,1.2067,1.2337,1.2754,1.2949,1.3537,1.4479,1.5209,1.5662,1.5976,1.6113,1.6207,1.6133,1.5599,1.5265,1.5083,1.4262,1.3746,1.3646,1.3284,1.3045,1.2951,1.2804,1.2668,1.2494,1.2357,1.2062,1.1633,1.0287,0.9318,0.883,0.8317,0.7759,0.7124,0.671,0.6431,0.6214,0.5911,0.5645,0.5336,0.4985,0.4587,0.4264,0.3951,0.3587,0.3268,0.3011,0.276,0.2578,0.2235,0.1911,0.1513,0.1159,0.0091,-0.1825,-0.27,-0.3504,-0.445,-0.5843,-0.7459,-0.8912,-1.0307,-1.1643,-1.3018,-1.46,-1.5935,-1.7055,-1.8195,-1.92,-1.9975,-2.0756,-2.115,-2.1691,-2.2099,-2.2654,-2.3197,-2.3752,-2.4059,-2.4423,-2.4784,-2.5187,-2.5342,-2.5424,-2.5511,-2.555,-2.5548,-2.5563,-2.5588,-2.5593,-2.5595,-2.5592,-2.5569,-2.5574,-2.5596,-2.5575,-2.5541,1.2983,1.2983,1.2978,1.2978,1.2978,1.3065,1.3055,1.3012,1.306,1.305,1.3007,1.3007,1.3012,1.3007,1.3007,1.3022,1.2983,1.2978,1.2783,1.248,1.248,1.2671,1.2958,1.3478,1.4165,1.5079,1.575,1.6225,1.6612,1.6837,1.686,1.6678,1.6145,1.5743,1.5402,1.468,1.4197,1.4095,1.3772,1.3548,1.3421,1.3332,1.3238,1.311,1.3027,1.2905,1.2698,1.1653,1.0821,1.0208,0.969,0.9173,0.864,0.8399,0.8173,0.7962,0.7766,0.7489,0.7148,0.6848,0.6442,0.606,0.5772,0.5479,0.5129,0.4873,0.4656,0.4392,0.4091,0.3705,0.3267,0.2832,0.1883,0.0504,-0.0969,-0.2242,-0.3527,-0.5143,-0.6711,-0.8072,-0.9602,-1.1204,-1.2726,-1.4515,-1.5923,-1.7122,-1.8284,-1.9258,-2.0,-2.0656,-2.1047,-2.1464,-2.2034,-2.2407,-2.2545,-2.3002,-2.3499,-2.4058,-2.4605,-2.5111,-2.5483,-2.5521,-2.5586,-2.5581,-2.5586,-2.5576,-2.5604,-2.5572,-2.5561,-2.5562,-2.5383,-2.552,-2.5493,-2.5464,-2.5422,1.3133,1.3128,1.3128,1.3128,1.3172,1.3334,1.3367,1.3314,1.3372,1.3319,1.3266,1.3271,1.3271,1.3223,1.3276,1.3248,1.3118,1.3123,1.3128,1.3065,1.3017,1.3055,1.3324,1.4082,1.4834,1.5501,1.6201,1.6759,1.7249,1.7444,1.7456,1.7072,1.67,1.6362,1.5724,1.5001,1.4605,1.4491,1.4023,1.372,1.3584,1.3546,1.3484,1.3463,1.3448,1.3386,1.322,1.3068,1.2571,1.1625,1.096,1.0535,1.0213,1.0125,0.9978,0.9694,0.96,0.9405,0.9055,0.8759,0.8435,0.8065,0.778,0.7475,0.7217,0.6917,0.6709,0.6495,0.6172,0.5806,0.5333,0.4816,0.4134,0.331,0.1067,-0.0939,-0.2621,-0.3955,-0.5384,-0.693,-0.8616,-1.0452,-1.2277,-1.4393,-1.6038,-1.7393,-1.8684,-1.9628,-2.0311,-2.0759,-2.1411,-2.1672,-2.1674,-2.1716,-2.1711,-2.2247,-2.2705,-2.2955,-2.3642,-2.4306,-2.4849,-2.4932,-2.4935,-2.5027,-2.5177,-2.5301,-2.5216,-2.4892,-2.4811,-2.4681,-2.4788,-2.5185,-2.5062,-2.4715,-2.4562,1.3536,1.3478,1.3483,1.3536,1.3631,1.3678,1.3752,1.3784,1.3705,1.3716,1.3658,1.361,1.3663,1.3621,1.3663,1.3631,1.3588,1.3541,1.3483,1.3483,1.343,1.353,1.3752,1.4444,1.5142,1.575,1.6576,1.7297,1.7793,1.7744,1.7695,1.782,1.685,1.6351,1.5997,1.5414,1.504,1.4942,1.4718,1.4537,1.4512,1.439,1.4358,1.4344,1.4383,1.4383,1.4337,1.438,1.3769,1.252,1.2255,1.2036,1.1861,1.1784,1.172,1.16,1.1461,1.1289,1.1063,1.0787,1.0487,1.015,0.9882,0.9622,0.9321,0.9055,0.8809,0.8642,0.8331,0.7924,0.7547,0.7011,0.6264,0.4957,0.2786,0.0527,-0.0971,-0.247,-0.4034,-0.5887,-0.8083,-1.031,-1.2491,-1.4582,-1.6399,-1.7594,-1.8609,-1.9444,-2.0055,-2.0296,-2.0695,-2.0653,-2.0659,-2.0726,-2.0937,-2.1481,-2.1818,-2.1871,-2.2376,-2.3,-2.3378,-2.3528,-2.348,-2.3452,-2.3734,-2.3892,-2.3634,-2.332,-2.3427,-2.3708,-2.3572,-2.3616,-2.3333,-2.3017,-2.2975,1.4004,1.3941,1.3947,1.4004,1.4104,1.4274,1.4305,1.4299,1.431,1.4269,1.4222,1.417,1.417,1.417,1.417,1.4129,1.4051,1.3952,1.3947,1.3957,1.401,1.4004,1.4134,1.4674,1.535,1.6045,1.6986,1.7605,1.7956,1.8006,1.8,1.7636,1.7025,1.6555,1.6256,1.5948,1.5672,1.5586,1.5462,1.5433,1.5375,1.5323,1.5301,1.5323,1.5389,1.5389,1.5469,1.5504,1.4902,1.39,1.3594,1.3552,1.343,1.3409,1.3353,1.3274,1.3167,1.3019,1.2837,1.2647,1.2433,1.2142,1.1907,1.1676,1.1414,1.1176,1.1035,1.0851,1.0496,1.019,0.9753,0.9214,0.8409,0.7445,0.5592,0.3546,0.1439,-0.0306,-0.2256,-0.4559,-0.727,-1.0159,-1.2705,-1.5004,-1.6779,-1.8031,-1.8851,-1.9354,-1.9711,-1.9766,-1.9817,-1.9889,-1.9921,-2.0041,-2.005,-2.0438,-2.0537,-2.0623,-2.0682,-2.139,-2.1999,-2.2208,-2.242,-2.2441,-2.246,-2.2402,-2.2229,-2.2188,-2.2505,-2.2581,-2.2258,-2.2051,-2.1918,-2.1527,-2.1487,1.4512,1.4518,1.4512,1.4518,1.4605,1.4966,1.5006,1.4897,1.5006,1.5,1.4852,1.4801,1.4795,1.4801,1.4806,1.4726,1.4564,1.4553,1.4507,1.4558,1.461,1.4569,1.4542,1.496,1.5617,1.6386,1.7374,1.7845,1.8137,1.8441,1.8131,1.7553,1.7267,1.6968,1.6674,1.6512,1.6443,1.6358,1.6316,1.6289,1.6254,1.6219,1.6231,1.6269,1.6322,1.6402,1.6507,1.6481,1.611,1.5183,1.5027,1.4927,1.4877,1.4868,1.4816,1.4711,1.4652,1.4583,1.4453,1.4339,1.4221,1.3952,1.3804,1.3643,1.3396,1.3238,1.3133,1.2956,1.275,1.2388,1.1978,1.13,1.0746,1.0145,0.9596,0.778,0.4978,0.2525,0.0257,-0.257,-0.5824,-0.9492,-1.2507,-1.5356,-1.7612,-1.8196,-1.8877,-1.9091,-1.9278,-1.9307,-1.9362,-1.942,-1.9439,-1.9451,-1.9394,-1.9355,-1.9281,-1.9223,-1.907,-1.9543,-2.0568,-2.0992,-2.1424,-2.155,-2.1065,-2.0997,-2.1157,-2.1288,-2.1392,-2.1152,-2.0615,-2.0785,-2.0932,-2.0336,-2.0065,1.5328,1.5283,1.5277,1.5283,1.5367,1.5451,1.5501,1.5552,1.5501,1.5451,1.5406,1.5406,1.54,1.5412,1.5406,1.54,1.5322,1.5232,1.5283,1.5244,1.517,1.5255,1.5277,1.5501,1.5958,1.6779,1.7767,1.8325,1.848,1.8434,1.8338,1.7879,1.7434,1.7231,1.7248,1.7183,1.7224,1.7199,1.7166,1.7118,1.7118,1.7085,1.7126,1.7149,1.7253,1.7356,1.7489,1.7503,1.7402,1.7109,1.6578,1.6203,1.6089,1.609,1.6061,1.6034,1.6041,1.6014,1.5952,1.5874,1.5819,1.5563,1.5448,1.54,1.5219,1.5081,1.5023,1.495,1.4789,1.4442,1.4015,1.3635,1.3193,1.2833,1.253,1.1976,1.0437,0.736,0.4176,0.1095,-0.3372,-0.7977,-1.0565,-1.4895,-1.7003,-1.8182,-1.8575,-1.8773,-1.8731,-1.8619,-1.8541,-1.8393,-1.8352,-1.8237,-1.8198,-1.8071,-1.795,-1.7844,-1.7681,-1.7633,-1.8658,-1.9237,-1.9471,-1.9512,-1.9379,-1.9474,-1.9721,-1.9479,-1.9398,-1.9171,-1.9022,-1.9025,-1.9,-1.868,-1.8555,1.5768,1.5736,1.573,1.573,1.5812,1.5913,1.6001,1.6007,1.5994,1.5951,1.5875,1.5869,1.5875,1.5875,1.5875,1.5869,1.5774,1.5774,1.573,1.5686,1.5653,1.5748,1.5913,1.6107,1.6471,1.7177,1.7785,1.8251,1.8402,1.8401,1.8195,1.7963,1.7676,1.7689,1.7796,1.7818,1.7824,1.7833,1.7842,1.7825,1.7864,1.7864,1.7881,1.792,1.8033,1.8154,1.8246,1.8274,1.8334,1.8268,1.7923,1.7473,1.7188,1.714,1.7155,1.718,1.7212,1.7188,1.7156,1.7148,1.7059,1.6954,1.6897,1.6865,1.6776,1.6662,1.6645,1.6613,1.6491,1.6268,1.5908,1.5733,1.5472,1.5316,1.5141,1.4951,1.4148,1.1261,0.816,0.5381,0.1084,-0.3192,-0.7357,-1.2033,-1.5149,-1.5813,-1.6625,-1.6856,-1.7012,-1.6937,-1.6995,-1.6931,-1.6943,-1.692,-1.6882,-1.6763,-1.6589,-1.6458,-1.6357,-1.6277,-1.6659,-1.7025,-1.7269,-1.7552,-1.798,-1.7943,-1.8091,-1.7779,-1.7667,-1.7701,-1.7608,-1.7289,-1.7092,-1.7126,-1.6983,1.6082,1.6076,1.6082,1.6076,1.6126,1.63,1.6306,1.6275,1.6362,1.6312,1.6281,1.625,1.6231,1.6237,1.6231,1.6188,1.6088,1.6082,1.6082,1.6082,1.6038,1.6094,1.6269,1.6546,1.6973,1.7558,1.789,1.8133,1.8277,1.8238,1.822,1.7907,1.801,1.8153,1.8264,1.8373,1.8406,1.841,1.8403,1.8431,1.8495,1.8504,1.8534,1.861,1.8691,1.8788,1.8856,1.8899,1.8968,1.9068,1.9077,1.8748,1.836,1.8082,1.8072,1.8131,1.8113,1.8113,1.8104,1.8125,1.809,1.8086,1.8078,1.8078,1.8051,1.7982,1.7947,1.7868,1.7733,1.7454,1.7423,1.6895,1.6844,1.6801,1.6887,1.6971,1.6407,1.4194,1.2072,0.9788,0.5189,0.0538,-0.3358,-0.7587,-1.0687,-1.3412,-1.4201,-1.4781,-1.4848,-1.4977,-1.4872,-1.4984,-1.4887,-1.5037,-1.505,-1.5022,-1.4884,-1.4841,-1.4796,-1.4788,-1.478,-1.5016,-1.5442,-1.6394,-1.6759,-1.6709,-1.6651,-1.6568,-1.6491,-1.6451,-1.6271,-1.6003,-1.5836,-1.5694,-1.546,1.6436,1.6436,1.6429,1.6436,1.6429,1.6479,1.6479,1.6479,1.6479,1.6485,1.6442,1.6436,1.6436,1.6436,1.6442,1.6429,1.6386,1.6349,1.6392,1.6386,1.6343,1.6355,1.6479,1.6759,1.7312,1.788,1.8151,1.8313,1.8495,1.8582,1.8449,1.8284,1.8393,1.8586,1.8726,1.8833,1.8894,1.8919,1.8951,1.8984,1.9028,1.9052,1.9091,1.9149,1.9219,1.9293,1.935,1.9392,1.9434,1.9484,1.9493,1.9447,1.9272,1.8995,1.8845,1.8803,1.8846,1.8872,1.8871,1.8895,1.8894,1.8917,1.8922,1.8945,1.8958,1.895,1.8861,1.8671,1.829,1.789,1.7877,1.7284,1.6816,1.6726,1.6815,1.6858,1.6656,1.5987,1.4858,1.2913,0.8427,0.4161,0.0537,-0.3201,-0.6764,-0.9423,-1.0774,-1.1307,-1.1525,-1.1901,-1.2205,-1.2421,-1.2672,-1.29,-1.3108,-1.3109,-1.3023,-1.3056,-1.3014,-1.31,-1.3105,-1.3175,-1.3689,-1.4329,-1.5065,-1.5391,-1.5328,-1.5278,-1.5162,-1.4986,-1.4851,-1.4706,-1.447,-1.4256,-1.4088,1.6528,1.6528,1.6528,1.6528,1.6528,1.6528,1.6528,1.6528,1.6528,1.6528,1.6528,1.6528,1.6528,1.6528,1.6528,1.6528,1.6528,1.6528,1.6528,1.6479,1.6472,1.6485,1.6571,1.685,1.7366,1.794,1.8267,1.8543,1.8752,1.8893,1.8783,1.8636,1.878,1.899,1.9132,1.9259,1.9316,1.9357,1.9397,1.9453,1.9518,1.9526,1.9593,1.9613,1.9635,1.9684,1.9741,1.9754,1.9804,1.9843,1.9851,1.9865,1.9825,1.9739,1.9538,1.9448,1.9439,1.9457,1.9452,1.946,1.9468,1.9501,1.957,1.9599,1.962,1.9591,1.9455,1.8983,1.8326,1.7783,1.7753,1.7289,1.7178,1.7109,1.7049,1.7011,1.7041,1.6978,1.6086,1.4835,1.1306,0.7635,0.4975,0.1166,-0.278,-0.5277,-0.7091,-0.7815,-0.8187,-0.873,-0.9275,-0.9741,-1.0031,-1.0463,-1.0739,-1.0826,-1.0938,-1.1009,-1.111,-1.1168,-1.127,-1.1292,-1.1427,-1.1798,-1.2612,-1.3417,-1.3843,-1.37,-1.3624,-1.3481,-1.3271,-1.3074,-1.2954,-1.2811,-1.2606,1.6528,1.6528,1.6528,1.6528,1.6528,1.6528,1.6528,1.6522,1.6515,1.6515,1.6528,1.6558,1.6558,1.6601,1.6614,1.6607,1.6571,1.6614,1.662,1.6614,1.6607,1.6614,1.665,1.6905,1.7358,1.7978,1.8549,1.8732,1.8872,1.9051,1.9003,1.8913,1.9072,1.9335,1.9451,1.9587,1.9656,1.9701,1.9746,1.9811,1.9875,1.9938,1.998,1.9991,1.9993,2.0003,2.004,2.0048,2.0078,2.0135,2.0151,2.0152,2.0167,2.0202,2.0138,1.9973,1.9902,1.9873,1.9864,1.9885,1.9886,1.9936,2.0039,2.0063,1.9965,1.9814,1.956,1.8916,1.794,1.7359,1.7287,1.7143,1.701,1.6908,1.6816,1.687,1.658,1.6294,1.5791,1.4458,1.2894,1.0645,0.757,0.5049,0.1033,-0.1336,-0.3156,-0.4391,-0.4835,-0.5632,-0.621,-0.6891,-0.7399,-0.7891,-0.819,-0.8442,-0.8564,-0.8689,-0.8876,-0.9041,-0.9194,-0.9324,-0.9483,-0.9582,-1.0108,-1.0895,-1.1503,-1.1936,-1.167,-1.1493,-1.1485,-1.1327,-1.101,-1.0998,-1.094,1.6528,1.6528,1.6528,1.6528,1.6528,1.6522,1.6522,1.6515,1.6539,1.6588,1.6669,1.6729,1.6814,1.6863,1.6905,1.6911,1.6876,1.6911,1.6918,1.6869,1.6827,1.6833,1.6833,1.6911,1.7365,1.8007,1.8764,1.9025,1.906,1.9168,1.9155,1.9084,1.9311,1.9532,1.9673,1.9828,1.9938,1.9971,2.0012,2.0078,2.0132,2.0167,2.019,2.0223,2.0238,2.0231,2.024,2.0257,2.0288,2.0342,2.0366,2.0359,2.0363,2.0365,2.0365,2.0308,2.0231,2.0145,2.0142,2.0158,2.0198,2.023,2.0305,2.0345,2.0162,1.9552,1.9107,1.9074,1.7646,1.6718,1.6469,1.598,1.5611,1.5517,1.5594,1.5392,1.5193,1.5301,1.4827,1.4082,1.2523,1.1512,0.9504,0.7333,0.4975,0.2838,0.0864,-0.0452,-0.168,-0.2637,-0.3584,-0.4389,-0.5038,-0.5512,-0.6012,-0.6181,-0.634,-0.6491,-0.6766,-0.7,-0.7179,-0.7363,-0.7355,-0.755,-0.8008,-0.8376,-0.8921,-0.9278,-0.9391,-0.9553,-0.9592,-0.9313,-0.894,-0.904,-0.9285,1.665,1.6528,1.6528,1.6528,1.6528,1.6571,1.6626,1.6663,1.6729,1.682,1.6882,1.707,1.7141,1.7199,1.7199,1.7247,1.7234,1.7234,1.7199,1.7164,1.7122,1.7086,1.7086,1.7115,1.7399,1.7941,1.8596,1.9076,1.9211,1.9572,1.9749,1.964,1.9608,1.971,1.9855,2.0021,2.0106,2.0166,2.0219,2.0279,2.0321,2.0324,2.0342,2.0359,2.0365,2.0371,2.04,2.0414,2.0419,2.0449,2.0456,2.046,2.0458,2.0461,2.0454,2.0451,2.0404,2.0352,2.0311,2.0331,2.0362,2.0413,2.0445,2.0448,2.0187,1.9248,1.8419,1.8338,1.6787,1.5912,1.5713,1.5298,1.5066,1.4868,1.4742,1.455,1.4331,1.3965,1.3697,1.2965,1.2305,1.1431,1.0501,0.8667,0.663,0.4928,0.324,0.2047,0.0844,-0.0265,-0.1185,-0.2123,-0.2742,-0.3246,-0.3766,-0.4159,-0.4252,-0.4457,-0.4926,-0.5119,-0.5282,-0.5405,-0.545,-0.5438,-0.567,-0.6064,-0.6466,-0.7123,-0.7757,-0.7766,-0.7712,-0.7472,-0.729,-0.7403,-0.7589,1.6941,1.6765,1.6686,1.6686,1.6693,1.6797,1.684,1.6918,1.706,1.7157,1.726,1.7487,1.7604,1.7611,1.7686,1.772,1.7686,1.7686,1.7645,1.757,1.7495,1.7454,1.7447,1.7441,1.7516,1.7801,1.8511,1.9101,1.9657,2.0057,2.032,2.0182,1.9811,1.9852,2.0001,2.0159,2.0268,2.0336,2.0385,2.042,2.0438,2.0437,2.042,2.0418,2.0422,2.0448,2.0493,2.0501,2.0494,2.0487,2.0489,2.0498,2.0497,2.0511,2.0527,2.0537,2.0513,2.0501,2.0454,2.0448,2.0447,2.0484,2.0503,2.0468,2.0246,1.8922,1.7839,1.7849,1.6241,1.5347,1.4978,1.4897,1.4754,1.4615,1.4475,1.4235,1.3993,1.3669,1.3293,1.2767,1.2194,1.1592,1.0594,0.9385,0.7991,0.6683,0.5522,0.4401,0.311,0.1749,0.0876,-0.0146,-0.051,-0.1092,-0.1686,-0.2072,-0.2199,-0.2556,-0.3042,-0.3396,-0.3648,-0.3693,-0.373,-0.3691,-0.3708,-0.3889,-0.4339,-0.5271,-0.6128,-0.5937,-0.5828,-0.5854,-0.5797,-0.5877,-0.5989,1.7406,1.7441,1.724,1.7157,1.7157,1.7164,1.724,1.7352,1.753,1.7659,1.7794,1.8029,1.8116,1.8182,1.824,1.8286,1.8156,1.8326,1.8247,1.8182,1.8123,1.8016,1.7929,1.7841,1.7801,1.8028,1.8549,1.9273,1.9978,2.0418,2.0431,2.0156,2.0127,2.0035,2.0098,2.027,2.039,2.0445,2.0481,2.0493,2.0489,2.0497,2.0492,2.049,2.0492,2.0505,2.051,2.0512,2.0514,2.0514,2.0514,2.0515,2.0527,2.0556,2.0584,2.0566,2.0566,2.0556,2.0536,2.0512,2.0502,2.0508,2.0488,2.0447,2.0309,1.8848,1.7932,1.7539,1.6137,1.5174,1.4859,1.4652,1.4518,1.4361,1.4205,1.3974,1.3706,1.3433,1.3055,1.2606,1.2102,1.1571,1.1082,0.9963,0.8997,0.7712,0.6447,0.5305,0.4293,0.3079,0.2526,0.187,0.1561,0.1016,0.0339,-0.0103,-0.0631,-0.1058,-0.148,-0.1848,-0.2133,-0.2156,-0.2218,-0.2267,-0.2321,-0.2256,-0.2341,-0.3253,-0.3906,-0.3922,-0.3978,-0.4218,-0.4308,-0.439,-0.4564,1.8068,1.8101,1.8147,1.7868,1.7406,1.7516,1.7591,1.772,1.8021,1.8259,1.8422,1.8521,1.8606,1.8644,1.8683,1.8753,1.8721,1.8721,1.8676,1.8637,1.8599,1.8514,1.8351,1.8233,1.8194,1.824,1.8633,1.9178,1.9882,2.0543,2.1093,2.1023,2.0776,2.0363,2.035,2.0388,2.0458,2.0509,2.0533,2.0539,2.0513,2.0544,2.0546,2.0508,2.0508,2.0508,2.0507,2.0507,2.0526,2.0544,2.0545,2.0544,2.0543,2.0583,2.0582,2.0561,2.0558,2.0554,2.0542,2.0531,2.0513,2.0489,2.0457,2.0396,2.0274,1.913,1.8208,1.7408,1.6374,1.5395,1.4666,1.4467,1.4311,1.4141,1.3949,1.3704,1.3469,1.3201,1.2918,1.253,1.2149,1.1703,1.1226,1.0667,0.9708,0.8678,0.7439,0.6239,0.5238,0.4367,0.376,0.3182,0.2816,0.2392,0.1696,0.1232,0.0801,0.0367,-0.0067,-0.0435,-0.0803,-0.084,-0.0881,-0.0939,-0.1037,-0.1104,-0.1236,-0.1497,-0.1926,-0.2493,-0.2728,-0.2814,-0.2904,-0.2993,-0.3216,1.8616,1.8707,1.8829,1.8507,1.7948,1.8028,1.8108,1.818,1.8514,1.8791,1.8974,1.8988,1.9011,1.9056,1.9101,1.9108,1.9153,1.9146,1.9108,1.9033,1.8988,1.8898,1.8815,1.87,1.8599,1.8521,1.88,1.931,1.997,2.0572,2.1233,2.1694,2.18,2.1358,2.0716,2.049,2.0516,2.0544,2.0546,2.0547,2.0506,2.0534,2.056,2.0508,2.0507,2.0507,2.0503,2.0503,2.0511,2.0539,2.0568,2.0568,2.0566,2.0564,2.0543,2.0519,2.0504,2.0506,2.0503,2.0513,2.05,2.0461,2.0395,2.0315,2.0046,1.9385,1.8383,1.7463,1.6504,1.554,1.4623,1.4289,1.4136,1.3966,1.3791,1.3559,1.332,1.3069,1.2802,1.2491,1.213,1.1812,1.1302,1.0763,0.9861,0.8946,0.7957,0.6943,0.6182,0.5411,0.483,0.4253,0.3767,0.3312,0.2825,0.2262,0.1732,0.1301,0.0901,0.067,0.0436,0.0369,0.0269,0.0168,0.0067,0.0,-0.0168,-0.04,-0.0867,-0.1436,-0.1602,-0.1732,-0.1874,-0.1992,-0.2121,1.8981,1.9071,1.9101,1.8981,1.8738,1.8738,1.8791,1.8815,1.8988,1.9176,1.9325,1.9362,1.9369,1.9369,1.9442,1.945,1.942,1.9494,1.9457,1.9376,1.9332,1.9325,1.9213,1.9101,1.8988,1.8974,1.9147,1.9529,2.0158,2.0931,2.1606,2.2205,2.2523,2.2393,2.1482,2.0806,2.0566,2.0593,2.0542,2.0518,2.0511,2.0508,2.0511,2.0511,2.0509,2.0506,2.0503,2.0503,2.0513,2.0519,2.0528,2.0525,2.0529,2.0529,2.0503,2.0487,2.0486,2.0484,2.0481,2.0501,2.0459,2.0413,2.034,2.0242,1.9952,1.9297,1.8494,1.7689,1.6606,1.5523,1.4726,1.4136,1.4003,1.3815,1.3639,1.3429,1.3208,1.2987,1.2735,1.2499,1.2228,1.192,1.137,1.075,0.9887,0.9039,0.8266,0.7545,0.6922,0.6324,0.5716,0.5159,0.461,0.413,0.3644,0.3161,0.2666,0.2235,0.1836,0.1538,0.1341,0.1174,0.1142,0.1144,0.1009,0.0772,0.0772,0.0738,0.0268,-0.0167,-0.0568,-0.0769,-0.0905,-0.1008,-0.114,1.9391,1.9413,1.9472,1.9464,1.9391,1.9176,1.9139,1.9183,1.9332,1.9487,1.9589,1.9589,1.9589,1.9625,1.9632,1.9632,1.9632,1.9625,1.9617,1.9596,1.9589,1.9567,1.9494,1.9413,1.9332,1.925,1.9398,1.961,2.0038,2.0998,2.1827,2.247,2.3061,2.2832,2.177,2.0949,2.0527,2.0526,2.0518,2.0504,2.0513,2.0503,2.0506,2.0502,2.0498,2.0494,2.0504,2.0504,2.0504,2.0494,2.0496,2.0492,2.0494,2.049,2.0472,2.0439,2.042,2.0399,2.0381,2.0366,2.0354,2.0323,2.0271,2.0162,1.9955,1.9708,1.8932,1.8049,1.7071,1.6085,1.5266,1.435,1.3979,1.3757,1.3568,1.3354,1.3147,1.2932,1.2708,1.2491,1.2257,1.1812,1.1316,1.089,1.0103,0.9484,0.88,0.8169,0.7525,0.7004,0.6431,0.5921,0.5418,0.4909,0.4395,0.3846,0.3392,0.2927,0.2565,0.2302,0.2139,0.191,0.1778,0.1679,0.1611,0.1543,0.1509,0.1475,0.1443,0.1138,0.0668,0.0267,0.0034,-0.0067,-0.0101,1.9632,1.9632,1.9682,1.9697,1.969,1.9508,1.9435,1.9472,1.9552,1.9661,1.969,1.9697,1.9697,1.9697,1.9697,1.9697,1.9697,1.969,1.969,1.9697,1.9697,1.9669,1.964,1.964,1.9545,1.9479,1.9552,1.9769,2.0158,2.0886,2.1919,2.2977,2.354,2.3328,2.2471,2.1781,2.103,2.0964,2.0847,2.0513,2.0488,2.048,2.0458,2.0454,2.0449,2.0454,2.0464,2.0473,2.0473,2.0468,2.0459,2.0459,2.0459,2.0448,2.0423,2.0383,2.0349,2.0328,2.0316,2.0281,2.0265,2.0223,2.0163,2.0069,1.9969,1.9769,1.9136,1.8349,1.7633,1.6802,1.5863,1.4867,1.4298,1.4093,1.3674,1.348,1.3187,1.2979,1.2708,1.2491,1.2236,1.1769,1.13,1.0897,1.038,0.988,0.9357,0.8728,0.8094,0.754,0.7017,0.6504,0.5959,0.5421,0.4912,0.4433,0.3978,0.3588,0.3259,0.2933,0.2673,0.2444,0.2311,0.2211,0.2145,0.2145,0.221,0.221,0.2174,0.2073,0.1836,0.1404,0.1007,0.0873,0.0772,1.9697,1.9697,1.9697,1.9697,1.9697,1.9697,1.9697,1.9682,1.9682,1.9682,1.9697,1.9697,1.9697,1.9697,1.9697,1.9697,1.9697,1.9697,1.9697,1.9697,1.9697,1.9697,1.9697,1.9705,1.9661,1.9697,1.9733,1.9876,2.0296,2.1023,2.2209,2.3389,2.3762,2.3858,2.3519,2.2885,2.2102,2.1772,2.1381,2.1035,2.0871,2.0653,2.0565,2.0496,2.0408,2.0402,2.0412,2.0402,2.0408,2.0398,2.0394,2.0392,2.0388,2.0389,2.0343,2.0317,2.0296,2.0286,2.0257,2.0217,2.0174,2.0117,2.003,1.9977,1.9898,1.976,1.9261,1.8666,1.8022,1.737,1.6602,1.5779,1.4996,1.4545,1.399,1.3666,1.3294,1.3028,1.2748,1.2491,1.2257,1.1863,1.1414,1.0991,1.0614,1.0179,0.9712,0.9203,0.8568,0.7922,0.7393,0.6893,0.6382,0.5866,0.5358,0.4884,0.4468,0.4043,0.3723,0.3397,0.3171,0.2944,0.2777,0.2711,0.2714,0.2712,0.2775,0.2838,0.2904,0.2768,0.2667,0.2335,0.1871,0.1674,0.1608,1.9697,1.9697,1.9697,1.9697,1.9697,1.9697,1.9697,1.9697,1.9697,1.9697,1.9697,1.9697,1.9697,1.9697,1.9697,1.9697,1.9697,1.9697,1.9697,1.9697,1.9726,1.9697,1.9733,1.9726,1.9733,1.9733,1.9805,1.9947,2.0334,2.107,2.2243,2.3422,2.399,2.4456,2.4495,2.4103,2.3422,2.2793,2.2337,2.1823,2.1456,2.1293,2.1029,2.0756,2.0611,2.0605,2.0595,2.0556,2.0537,2.046,2.0395,2.0357,2.0324,2.0328,2.0306,2.0296,2.0281,2.0249,2.0162,2.0136,2.0107,2.0027,1.9924,1.986,1.9806,1.9662,1.9393,1.8908,1.8386,1.7745,1.7216,1.6499,1.5854,1.5357,1.4767,1.4195,1.3833,1.3462,1.3151,1.2628,1.238,1.1975,1.1532,1.1162,1.0784,1.0411,1.0002,0.9528,0.9013,0.8338,0.7753,0.725,0.6747,0.6202,0.5769,0.5261,0.488,0.4497,0.4145,0.3826,0.3536,0.334,0.3243,0.3175,0.3142,0.3206,0.33,0.3364,0.3462,0.3499,0.3399,0.3066,0.2735,0.2537,0.2373,1.9697,1.9726,1.9718,1.9762,1.9797,1.9805,1.9833,1.9833,1.9754,1.9697,1.9697,1.9697,1.9697,1.9697,1.9697,1.9697,1.9697,1.9697,1.9697,1.9733,1.9754,1.9733,1.9769,1.9826,1.9861,1.9897,1.9983,2.0131,2.0496,2.1387,2.2539,2.3404,2.4141,2.4774,2.5027,2.4912,2.4652,2.3998,2.3393,2.2767,2.2372,2.2133,2.1771,2.1442,2.1266,2.1258,2.1251,2.1249,2.1278,2.1314,2.1335,2.1326,2.1212,2.1051,2.0478,2.0421,2.0215,2.0171,2.0117,2.0069,2.0027,1.9951,1.984,1.9757,1.9671,1.9564,1.9409,1.9121,1.8663,1.8166,1.7692,1.7205,1.6769,1.6314,1.5601,1.4893,1.4438,1.4026,1.3504,1.2903,1.2479,1.2074,1.1664,1.1333,1.0951,1.0583,1.0211,0.979,0.9251,0.8673,0.8094,0.7583,0.7051,0.6543,0.6102,0.5637,0.5197,0.482,0.4468,0.4148,0.3896,0.37,0.36,0.3567,0.3567,0.363,0.3758,0.3891,0.3991,0.4026,0.4118,0.3914,0.3614,0.3323,0.3194,1.9697,1.9726,1.9762,1.9884,1.999,2.0025,2.0096,2.0108,1.9904,1.9747,1.9797,1.9762,1.9805,1.9833,1.9833,1.9833,1.9833,1.9841,1.9876,1.9769,1.9876,1.9912,1.9975,2.0003,2.0108,2.0185,2.0289,2.0452,2.082,2.1562,2.2461,2.3276,2.3994,2.4642,2.5141,2.5372,2.5224,2.5021,2.418,2.342,2.3136,2.2994,2.2962,2.2774,2.2718,2.2728,2.2757,2.2815,2.2892,2.286,2.2809,2.2682,2.2367,2.1996,2.1239,2.0888,2.0766,2.0518,2.0441,2.033,2.0076,1.9948,1.9773,1.9673,1.9569,1.948,1.9353,1.9239,1.8796,1.8546,1.8128,1.7749,1.7331,1.6867,1.6257,1.5682,1.5242,1.4702,1.3995,1.3479,1.313,1.2657,1.1996,1.166,1.1282,1.0824,1.0386,1.0002,0.9549,0.8975,0.8428,0.7903,0.7383,0.6876,0.6356,0.589,0.5488,0.5106,0.4756,0.4436,0.418,0.4018,0.3923,0.3923,0.3956,0.4086,0.4183,0.4318,0.4479,0.4602,0.4663,0.4724,0.4494,0.4202,0.3973,1.9697,1.9733,1.9884,2.0068,2.0235,2.0281,2.035,2.0418,2.035,2.0247,2.0193,2.0158,2.0123,2.0115,2.0115,2.0115,2.0115,2.008,2.0166,2.0158,2.0158,2.0177,2.0239,2.0342,2.0384,2.046,2.0587,2.0869,2.1206,2.1811,2.2406,2.3149,2.3851,2.4492,2.5062,2.5352,2.5515,2.5535,2.5123,2.4335,2.393,2.3731,2.3612,2.3173,2.2933,2.3022,2.3012,2.2955,2.2878,2.2819,2.2809,2.2785,2.2747,2.2575,2.2345,2.2077,2.1817,2.1451,2.1082,2.0842,2.0611,2.0083,1.9821,1.962,1.9466,1.9374,1.9259,1.915,1.9,1.8789,1.856,1.82,1.7844,1.7355,1.6885,1.6455,1.5989,1.5306,1.4554,1.4155,1.3808,1.322,1.252,1.2021,1.1589,1.1138,1.0626,1.0186,0.9822,0.9337,0.8728,0.8207,0.771,0.718,0.666,0.6172,0.5765,0.5393,0.5046,0.4724,0.4433,0.4307,0.418,0.428,0.4344,0.4473,0.4602,0.4771,0.4896,0.5081,0.5201,0.5257,0.5372,0.5179,0.488,1.9769,1.9762,2.0045,2.0315,2.0545,2.0605,2.0712,2.0852,2.0852,2.0852,2.0771,2.0561,2.0407,2.0399,2.0399,2.0426,2.0426,2.0357,2.0365,2.0399,2.0494,2.052,2.0579,2.0712,2.0811,2.0917,2.1111,2.1363,2.1601,2.1936,2.2451,2.3053,2.3706,2.4304,2.4874,2.5247,2.55,2.5599,2.5596,2.5257,2.4718,2.4598,2.4492,2.3974,2.3879,2.3851,2.3908,2.3908,2.3918,2.3918,2.4005,2.365,2.3543,2.3313,2.3015,2.2677,2.2413,2.2312,2.1888,2.1576,2.1317,2.082,2.0229,2.0168,1.9878,1.9744,1.9168,1.9026,1.8852,1.8642,1.8487,1.8194,1.8004,1.7642,1.7291,1.6909,1.6515,1.6022,1.5305,1.4691,1.4369,1.3983,1.3346,1.2874,1.2402,1.1685,1.1121,1.0525,1.0122,0.9745,0.9114,0.8512,0.8018,0.7476,0.6902,0.6443,0.6044,0.5672,0.5299,0.495,0.4628,0.45,0.4438,0.4538,0.4666,0.4823,0.4988,0.5151,0.5372,0.5554,0.5672,0.5762,0.5923,0.614,0.6074,1.9967,1.9975,2.03,2.0671,2.0926,2.0999,2.1143,2.1309,2.1363,2.1417,2.1432,2.0942,2.0687,2.0654,2.062,2.062,2.0654,2.0771,2.0704,2.0697,2.0844,2.0934,2.1031,2.1175,2.1269,2.1394,2.1548,2.17,2.1848,2.2113,2.2458,2.2994,2.3566,2.4157,2.4699,2.5129,2.541,2.5537,2.5579,2.5552,2.5476,2.5455,2.5243,2.5236,2.5303,2.5303,2.5284,2.5264,2.5245,2.5178,2.4995,2.4657,2.4339,2.4097,2.3737,2.3406,2.3253,2.2984,2.2587,2.2402,2.2206,2.1852,2.1214,2.0756,2.0477,1.996,1.9397,1.904,1.8857,1.8545,1.8414,1.823,1.8044,1.7808,1.7507,1.723,1.6871,1.6546,1.59,1.5212,1.4962,1.4634,1.4124,1.3667,1.309,1.2376,1.1717,1.1043,1.0495,1.0135,0.9634,0.8973,0.8326,0.7772,0.7166,0.6721,0.6299,0.5921,0.5547,0.5137,0.4823,0.473,0.473,0.4797,0.4957,0.517,0.534,0.5491,0.5742,0.6043,0.6281,0.6459,0.6677,0.6896,0.7252,2.0704,2.0455,2.0697,2.1007,2.1285,2.1433,2.1556,2.17,2.1708,2.1721,2.1721,2.1661,2.1471,2.1308,2.13,2.1268,2.1174,2.1237,2.1204,2.1194,2.1252,2.1362,2.1462,2.1556,2.1678,2.1789,2.1848,2.1945,2.2049,2.222,2.2462,2.2875,2.3324,2.3868,2.4381,2.4839,2.5275,2.5439,2.5567,2.5564,2.5509,2.5451,2.5406,2.536,2.5322,2.5313,2.5303,2.5303,2.5303,2.5303,2.5283,2.5107,2.4949,2.4772,2.4526,2.4283,2.4122,2.3816,2.3498,2.3242,2.3005,2.2383,2.1819,2.1502,2.1088,2.0499,2.0001,1.958,1.9266,1.8636,1.8397,1.8155,1.7944,1.7612,1.7304,1.7043,1.6732,1.6504,1.6123,1.5821,1.5639,1.5171,1.4594,1.4195,1.3861,1.3182,1.2684,1.1987,1.1162,1.0657,1.0196,0.9524,0.8816,0.8104,0.7505,0.7009,0.6582,0.6172,0.5762,0.5386,0.5109,0.4988,0.4998,0.5135,0.5325,0.5521,0.5684,0.5999,0.6226,0.6562,0.6888,0.717,0.7397,0.7736,0.8114]}]]